[[{"header":{"parameterUnit":"m.s-1","parameterCategory":1,"la1":30.6,"la2":29.2853,"lo1":-89.7004,"lo2":-87.6739,"dy":0.0162,"dx":0.0183,"nx":112,"ny":82,"refTime":"2026-03-22T00:00:00:Z","depth":0,"parameterNumber":2,"parameterNumberName":"U-component_of_WINDS"},"data":[0.0,0.0,0.0,0.0,0.0,0.0,0.0,0.0,0.0,0.0,0.0,0.0,0.0,0.0,0.0,0.0,0.0,0.0,0.0,0.0,0.0,0.0,0.0,0.0,0.0,0.0,0.0,0.0,0.0,0.0,0.0,0.0,0.0,0.0,0.0,0.0,0.0,0.0,0.0,0.0,0.0,0.0,0.0,0.0,0.0,0.0,0.0,0.0,0.0,0.0,0.0,0.0,0.0,0.0,0.0,0.0,0.0,0.0,0.0,0.0,0.0,0.0,0.0,0.0,0.0,0.0,0.0,0.0,0.0,0.0,0.0,0.0,0.0,0.0,0.0,0.0,0.0,0.0,0.0,0.0,0.0,0.0,0.0,0.0,0.0,0.0,0.0,0.0,0.0,0.0,-4.175,-4.2133,-4.3738,-4.5065,-4.5749,-4.5065,-4.4226,-4.3363,0.0,0.0,0.0,0.0,0.0,0.0,0.0,0.0,0.0,0.0,0.0,0.0,0.0,0.0,0.0,0.0,0.0,0.0,0.0,0.0,0.0,0.0,0.0,0.0,0.0,0.0,0.0,0.0,0.0,0.0,0.0,0.0,0.0,0.0,0.0,0.0,0.0,0.0,0.0,0.0,0.0,0.0,0.0,0.0,0.0,0.0,0.0,0.0,0.0,0.0,0.0,0.0,0.0,0.0,0.0,0.0,0.0,0.0,0.0,0.0,0.0,0.0,0.0,0.0,0.0,0.0,0.0,0.0,0.0,0.0,0.0,0.0,0.0,0.0,0.0,0.0,0.0,0.0,0.0,0.0,0.0,0.0,0.0,0.0,0.0,0.0,0.0,0.0,0.0,0.0,0.0,0.0,0.0,0.0,0.0,0.0,0.0,0.0,0.0,0.0,0.0,0.0,0.0,0.0,-4.2131,-4.3753,-4.4935,-4.5671,-4.5787,-4.5065,-4.4226,-4.3363,0.0,0.0,0.0,0.0,0.0,0.0,0.0,0.0,0.0,0.0,0.0,0.0,0.0,0.0,0.0,0.0,0.0,0.0,0.0,0.0,0.0,0.0,0.0,0.0,0.0,0.0,0.0,0.0,0.0,0.0,0.0,0.0,0.0,0.0,0.0,0.0,0.0,0.0,0.0,0.0,0.0,0.0,0.0,0.0,0.0,0.0,0.0,0.0,0.0,0.0,0.0,0.0,0.0,0.0,0.0,0.0,0.0,0.0,0.0,0.0,0.0,0.0,0.0,0.0,0.0,0.0,0.0,0.0,0.0,0.0,0.0,0.0,0.0,0.0,0.0,0.0,0.0,0.0,0.0,0.0,0.0,0.0,0.0,0.0,0.0,0.0,0.0,0.0,0.0,0.0,0.0,0.0,0.0,0.0,0.0,0.0,0.0,0.0,0.0,0.0,0.0,0.0,0.0,-4.1632,-4.2632,-4.4032,-4.5081,-4.5715,-4.58,-4.5065,-4.4226,-4.3363,-4.2473,0.0,0.0,0.0,0.0,0.0,0.0,0.0,0.0,0.0,0.0,0.0,0.0,0.0,0.0,0.0,0.0,0.0,0.0,0.0,0.0,0.0,0.0,0.0,0.0,0.0,0.0,0.0,0.0,0.0,0.0,0.0,0.0,0.0,0.0,0.0,0.0,0.0,0.0,0.0,0.0,0.0,0.0,0.0,0.0,0.0,0.0,0.0,0.0,0.0,0.0,0.0,0.0,0.0,0.0,0.0,0.0,0.0,0.0,0.0,0.0,0.0,0.0,0.0,0.0,0.0,0.0,0.0,0.0,0.0,0.0,0.0,0.0,0.0,0.0,0.0,0.0,0.0,0.0,0.0,0.0,0.0,0.0,0.0,0.0,0.0,0.0,0.0,0.0,0.0,0.0,0.0,0.0,0.0,0.0,0.0,0.0,0.0,0.0,0.0,0.0,0.0,0.0,-4.2255,-4.2906,-4.4115,-4.4996,-4.5543,-4.5642,-4.4932,-4.4124,-4.3296,-4.2433,0.0,0.0,0.0,0.0,0.0,0.0,0.0,0.0,0.0,0.0,0.0,0.0,0.0,0.0,0.0,0.0,0.0,0.0,0.0,0.0,0.0,0.0,0.0,0.0,0.0,0.0,0.0,0.0,0.0,0.0,0.0,0.0,0.0,0.0,0.0,0.0,0.0,0.0,0.0,0.0,0.0,0.0,0.0,0.0,0.0,0.0,0.0,0.0,0.0,0.0,0.0,0.0,0.0,0.0,0.0,0.0,0.0,0.0,0.0,0.0,0.0,0.0,0.0,0.0,0.0,0.0,0.0,0.0,0.0,0.0,0.0,0.0,0.0,0.0,0.0,0.0,0.0,0.0,0.0,0.0,0.0,0.0,0.0,0.0,0.0,0.0,0.0,0.0,0.0,0.0,0.0,0.0,0.0,0.0,0.0,0.0,0.0,0.0,0.0,0.0,0.0,0.0,-4.1989,-4.2706,-4.4474,-4.5003,-4.5232,-4.5253,-4.4557,-4.3841,-4.3161,-4.2291,0.0,0.0,0.0,0.0,0.0,0.0,0.0,0.0,0.0,0.0,0.0,0.0,0.0,0.0,0.0,0.0,0.0,0.0,0.0,0.0,0.0,0.0,0.0,0.0,0.0,0.0,0.0,0.0,0.0,0.0,0.0,0.0,0.0,0.0,0.0,0.0,0.0,0.0,0.0,0.0,0.0,0.0,0.0,0.0,0.0,0.0,0.0,0.0,0.0,0.0,0.0,0.0,0.0,0.0,0.0,0.0,0.0,0.0,0.0,0.0,0.0,0.0,0.0,0.0,0.0,0.0,0.0,0.0,0.0,0.0,0.0,0.0,0.0,0.0,0.0,0.0,0.0,0.0,0.0,0.0,0.0,0.0,0.0,0.0,0.0,0.0,0.0,0.0,0.0,0.0,0.0,0.0,0.0,0.0,0.0,0.0,0.0,0.0,0.0,0.0,0.0,0.0,-4.1846,-4.2621,-4.439,-4.4763,-4.4722,-4.4293,-4.4003,-4.334,-4.2113,0.0,0.0,0.0,0.0,0.0,0.0,0.0,0.0,0.0,0.0,0.0,0.0,0.0,0.0,0.0,0.0,0.0,0.0,0.0,0.0,0.0,0.0,0.0,0.0,0.0,0.0,0.0,0.0,0.0,0.0,0.0,0.0,0.0,0.0,0.0,0.0,0.0,0.0,0.0,0.0,0.0,0.0,0.0,0.0,0.0,0.0,0.0,0.0,0.0,0.0,0.0,0.0,0.0,0.0,0.0,0.0,0.0,0.0,0.0,0.0,0.0,0.0,0.0,0.0,0.0,0.0,0.0,0.0,0.0,0.0,0.0,0.0,0.0,0.0,0.0,0.0,0.0,0.0,0.0,0.0,0.0,0.0,0.0,0.0,0.0,0.0,0.0,0.0,0.0,0.0,0.0,0.0,0.0,0.0,0.0,0.0,0.0,0.0,0.0,0.0,0.0,0.0,-4.0661,-4.1101,-4.188,-4.3413,-4.3713,-4.3693,-4.3483,-4.305,-4.2465,-4.1689,0.0,0.0,0.0,0.0,0.0,0.0,0.0,0.0,0.0,0.0,0.0,0.0,0.0,0.0,0.0,0.0,0.0,0.0,0.0,0.0,0.0,0.0,0.0,0.0,0.0,0.0,0.0,0.0,0.0,0.0,0.0,0.0,0.0,0.0,0.0,0.0,0.0,0.0,0.0,0.0,0.0,0.0,0.0,0.0,0.0,0.0,0.0,0.0,0.0,0.0,0.0,0.0,0.0,0.0,0.0,0.0,0.0,0.0,0.0,0.0,0.0,0.0,0.0,0.0,0.0,0.0,0.0,0.0,0.0,0.0,0.0,0.0,0.0,0.0,0.0,0.0,0.0,0.0,0.0,0.0,0.0,0.0,0.0,0.0,0.0,0.0,0.0,0.0,0.0,0.0,0.0,0.0,0.0,0.0,0.0,0.0,0.0,0.0,0.0,0.0,0.0,0.0,-3.9073,-3.9623,-4.0409,-4.1486,-4.1716,-4.2114,-4.2903,-4.1619,-4.1186,0.0,0.0,0.0,0.0,0.0,0.0,0.0,0.0,0.0,0.0,0.0,0.0,0.0,0.0,0.0,0.0,0.0,0.0,0.0,0.0,0.0,0.0,0.0,0.0,0.0,0.0,0.0,0.0,0.0,0.0,0.0,0.0,0.0,0.0,0.0,0.0,0.0,0.0,0.0,0.0,0.0,0.0,0.0,0.0,0.0,0.0,0.0,0.0,0.0,0.0,0.0,0.0,0.0,0.0,0.0,0.0,0.0,0.0,0.0,0.0,0.0,0.0,0.0,0.0,0.0,0.0,0.0,0.0,0.0,0.0,0.0,0.0,0.0,0.0,0.0,0.0,0.0,0.0,0.0,0.0,0.0,0.0,0.0,0.0,0.0,0.0,0.0,0.0,0.0,0.0,0.0,0.0,0.0,0.0,0.0,0.0,0.0,0.0,0.0,0.0,0.0,0.0,0.0,-3.8615,-3.9747,-4.0683,-4.1001,-4.1084,-4.1192,-4.1415,-4.0541,-3.9919,-3.9886,0.0,0.0,0.0,0.0,0.0,0.0,0.0,0.0,0.0,0.0,0.0,0.0,0.0,0.0,0.0,0.0,0.0,0.0,0.0,0.0,0.0,0.0,0.0,0.0,0.0,0.0,0.0,0.0,0.0,0.0,0.0,0.0,0.0,0.0,0.0,0.0,0.0,0.0,0.0,0.0,0.0,0.0,0.0,0.0,0.0,0.0,0.0,0.0,0.0,0.0,0.0,0.0,0.0,0.0,0.0,0.0,0.0,0.0,0.0,0.0,0.0,0.0,0.0,0.0,0.0,0.0,0.0,0.0,0.0,0.0,0.0,0.0,0.0,0.0,0.0,0.0,0.0,0.0,0.0,0.0,0.0,0.0,0.0,0.0,0.0,0.0,0.0,0.0,0.0,0.0,0.0,0.0,0.0,0.0,0.0,0.0,0.0,0.0,0.0,0.0,0.0,0.0,-3.7468,-3.8755,-3.9721,-3.9838,-3.9838,-3.9966,-4.0294,-3.9566,-3.9004,-3.8725,0.0,0.0,0.0,0.0,0.0,0.0,0.0,0.0,0.0,0.0,0.0,0.0,0.0,0.0,0.0,0.0,0.0,0.0,0.0,0.0,0.0,0.0,0.0,0.0,0.0,0.0,0.0,0.0,0.0,0.0,0.0,0.0,0.0,0.0,0.0,0.0,0.0,0.0,0.0,0.0,0.0,0.0,0.0,0.0,0.0,0.0,0.0,0.0,0.0,0.0,0.0,0.0,0.0,0.0,0.0,0.0,0.0,0.0,0.0,0.0,0.0,0.0,0.0,0.0,0.0,0.0,0.0,0.0,0.0,0.0,0.0,0.0,0.0,0.0,0.0,0.0,0.0,0.0,0.0,0.0,0.0,0.0,0.0,0.0,0.0,0.0,0.0,0.0,0.0,0.0,0.0,0.0,0.0,0.0,0.0,0.0,0.0,0.0,0.0,0.0,0.0,0.0,-3.5996,-3.7128,-3.8072,-3.8178,-3.8192,-3.8518,-3.9336,-3.868,-3.8241,-3.8237,0.0,0.0,0.0,0.0,0.0,0.0,0.0,0.0,0.0,0.0,0.0,0.0,0.0,0.0,0.0,0.0,0.0,0.0,0.0,0.0,0.0,0.0,0.0,0.0,0.0,0.0,0.0,0.0,0.0,0.0,0.0,0.0,0.0,0.0,0.0,0.0,0.0,0.0,0.0,0.0,0.0,0.0,0.0,0.0,0.0,0.0,0.0,0.0,0.0,0.0,0.0,0.0,0.0,0.0,0.0,0.0,0.0,0.0,0.0,0.0,-3.6318,-3.6628,0.0,0.0,0.0,0.0,0.0,0.0,0.0,0.0,0.0,0.0,0.0,0.0,0.0,0.0,0.0,0.0,0.0,0.0,0.0,0.0,0.0,0.0,0.0,0.0,0.0,0.0,0.0,0.0,0.0,0.0,0.0,0.0,0.0,0.0,0.0,0.0,0.0,0.0,0.0,0.0,-3.5312,-3.6949,-3.7818,-3.6702,-3.6684,-3.7095,-3.7936,-3.729,-3.6928,-3.713,-3.6998,0.0,0.0,0.0,0.0,0.0,0.0,0.0,0.0,0.0,0.0,0.0,0.0,0.0,0.0,0.0,0.0,0.0,0.0,0.0,0.0,0.0,0.0,0.0,0.0,0.0,0.0,0.0,0.0,0.0,0.0,0.0,0.0,0.0,0.0,0.0,0.0,0.0,0.0,0.0,0.0,0.0,0.0,0.0,0.0,0.0,0.0,0.0,0.0,0.0,0.0,0.0,0.0,0.0,0.0,0.0,0.0,0.0,0.0,0.0,-3.5457,-3.5939,0.0,0.0,0.0,0.0,0.0,0.0,0.0,0.0,0.0,0.0,0.0,0.0,0.0,0.0,0.0,0.0,0.0,0.0,0.0,0.0,0.0,0.0,0.0,0.0,0.0,0.0,0.0,0.0,0.0,0.0,0.0,0.0,0.0,0.0,0.0,0.0,0.0,0.0,0.0,0.0,-3.4614,-3.5891,-3.6556,-3.5806,-3.5926,-3.6251,-3.6697,-3.6696,-3.6574,-3.6346,-3.6007,0.0,0.0,0.0,0.0,0.0,0.0,0.0,0.0,0.0,0.0,0.0,0.0,0.0,0.0,0.0,0.0,0.0,0.0,0.0,0.0,0.0,0.0,0.0,0.0,0.0,0.0,0.0,0.0,0.0,0.0,0.0,0.0,0.0,0.0,0.0,0.0,0.0,0.0,0.0,0.0,0.0,0.0,0.0,0.0,0.0,0.0,0.0,0.0,0.0,0.0,0.0,0.0,0.0,-3.5654,-3.5355,-3.4706,-3.4487,-3.4348,-3.4314,-3.4762,-3.5339,-3.5989,-3.6097,0.0,0.0,0.0,0.0,0.0,0.0,0.0,0.0,0.0,0.0,0.0,0.0,0.0,0.0,0.0,0.0,0.0,0.0,0.0,0.0,0.0,0.0,-3.2672,-3.2861,-3.3205,-3.3119,-3.1759,0.0,0.0,0.0,0.0,0.0,0.0,0.0,0.0,0.0,0.0,0.0,-3.3783,-3.4458,-3.4893,-3.4774,-3.5133,-3.5395,-3.5414,-3.6129,-3.6322,-3.5636,-3.5044,-3.4275,0.0,0.0,0.0,0.0,0.0,0.0,0.0,0.0,0.0,0.0,0.0,0.0,0.0,0.0,0.0,0.0,0.0,0.0,0.0,0.0,0.0,0.0,0.0,0.0,0.0,0.0,0.0,0.0,0.0,0.0,0.0,0.0,-3.1506,-3.1506,0.0,0.0,0.0,0.0,0.0,0.0,0.0,0.0,0.0,0.0,0.0,0.0,0.0,-3.2576,-3.3264,-3.3923,-3.4275,-3.4331,-3.4968,-3.522,-3.5119,-3.5096,-3.505,-3.5027,-3.4811,0.0,-3.5487,-3.5565,0.0,0.0,0.0,0.0,0.0,0.0,0.0,0.0,0.0,0.0,0.0,0.0,0.0,0.0,0.0,0.0,0.0,0.0,0.0,0.0,0.0,0.0,-3.3073,-3.2588,-3.2624,-3.2554,-3.1882,-3.2541,-3.3077,-3.2395,-3.2386,-3.2459,0.0,0.0,0.0,0.0,0.0,0.0,-3.2527,-3.3117,-3.3317,-3.2662,-3.3329,-3.3826,-3.3897,-3.4576,-3.4966,-3.4843,-3.474,-3.4038,-3.2584,-3.1848,0.0,0.0,0.0,0.0,0.0,0.0,0.0,0.0,0.0,0.0,0.0,0.0,0.0,0.0,0.0,0.0,0.0,0.0,0.0,0.0,0.0,0.0,0.0,0.0,0.0,0.0,0.0,0.0,0.0,-3.188,-3.183,-3.1593,-3.2056,-3.2307,0.0,0.0,0.0,0.0,0.0,0.0,0.0,0.0,0.0,-3.1888,-3.2302,-3.2762,-3.327,-3.3828,-3.4218,-3.4426,-3.4764,-3.4913,-3.4913,-3.4682,-3.4586,-3.4561,-3.4448,-3.448,-3.469,-3.4951,-3.5214,-3.5464,0.0,0.0,0.0,0.0,-3.4602,-3.3203,-3.4047,-3.3425,-3.2271,-3.205,0.0,0.0,0.0,0.0,0.0,0.0,0.0,-3.0709,-3.1211,-3.1632,-3.2002,-3.2404,-3.2552,-3.262,-3.2635,-3.3023,-3.3107,-3.2337,-3.234,-3.2357,-3.2001,-3.1746,0.0,0.0,0.0,-3.2155,-3.18,-3.2029,-3.2112,-3.1779,-3.2278,-3.2816,-3.3212,-3.3972,-3.4597,-3.4958,-3.4582,-3.4059,-3.3385,-3.2296,-3.1732,0.0,0.0,0.0,0.0,0.0,0.0,0.0,0.0,0.0,0.0,0.0,0.0,0.0,0.0,0.0,0.0,0.0,0.0,0.0,0.0,0.0,0.0,0.0,0.0,0.0,0.0,0.0,0.0,-3.2017,-3.2113,-3.1977,-3.1941,-3.1898,0.0,0.0,0.0,0.0,0.0,0.0,-3.0867,-3.1582,-3.2059,-3.2215,-3.2757,-3.3228,-3.3638,-3.3961,-3.4242,-3.4546,-3.4546,-3.4521,-3.4423,-3.4126,-3.3949,-3.3899,-3.3899,-3.3899,-3.3924,-3.4374,-3.4626,-3.4785,-3.4991,-3.4726,-3.4309,-3.4795,-3.3985,-3.2786,-3.3713,-3.3356,-3.2415,-3.1905,-3.1517,-3.1096,-3.0035,0.0,0.0,0.0,0.0,-2.9664,-3.083,-3.0876,-3.086,-3.179,-3.205,-3.2141,-3.2351,-3.2551,-3.2562,-3.2176,-3.218,-3.2053,-3.1346,-3.0868,0.0,-3.0559,-3.083,-3.1019,-3.1019,-3.1019,-3.1019,-3.1019,-3.1444,-3.191,-3.242,-3.3173,-3.3921,-3.4605,-3.4157,-3.3835,-3.3835,-3.2658,-3.1962,-3.1863,0.0,0.0,0.0,0.0,0.0,0.0,0.0,0.0,0.0,0.0,0.0,0.0,0.0,0.0,0.0,0.0,0.0,0.0,0.0,0.0,0.0,0.0,0.0,0.0,0.0,0.0,0.0,0.0,0.0,-3.2292,-3.1379,0.0,0.0,0.0,0.0,-3.0159,-3.0864,-3.121,-3.1,-3.1824,-3.2497,-3.3023,-3.3088,-3.3405,-3.4061,-3.4086,-3.4118,-3.4126,-3.4126,-3.4,-3.3761,-3.3736,-3.3581,-3.3319,-3.3319,-3.3319,-3.3372,-3.3899,-3.4349,-3.4715,-3.4715,-3.4482,-3.4124,-3.4291,-3.3795,-3.3097,-3.3284,-3.2835,-3.2335,-3.2993,-3.2421,-3.1475,-3.1398,-3.0562,0.0,0.0,-2.9418,-2.9498,-2.9949,-3.0127,-3.0184,-3.0369,-3.0507,-3.0493,-3.0076,-3.0517,-3.1294,-3.2196,-3.1964,-3.1454,-3.0849,0.0,-2.9946,-2.9946,-2.9956,-2.9989,-2.9989,-2.9989,-2.9989,-2.9989,-3.0567,-3.0966,-3.0998,-3.1686,-3.2416,-3.3153,-3.317,-3.3153,-3.3153,-3.2423,-3.167,-3.0989,-3.0032,0.0,0.0,0.0,0.0,0.0,0.0,0.0,0.0,0.0,0.0,0.0,0.0,0.0,0.0,0.0,0.0,0.0,0.0,0.0,0.0,0.0,0.0,0.0,0.0,0.0,0.0,0.0,0.0,-3.0937,-3.0777,0.0,-3.0624,-3.0323,-3.001,-2.9789,-3.0453,-3.0745,-3.0557,-3.163,-3.2357,-3.2654,-3.3042,-3.3326,-3.3565,-3.3581,-3.3581,-3.3581,-3.3581,-3.3529,-3.345,-3.345,-3.3398,-3.3309,-3.3309,-3.3309,-3.3293,-3.3503,-3.3684,-3.3797,-3.3797,-3.3712,-3.3595,-3.3624,-3.3483,-3.3204,-3.3097,-3.2562,-3.1842,-3.1193,-3.0697,-3.0221,-2.9516,-2.9274,-2.9171,-2.8758,-2.8677,-2.8793,-2.8999,-2.8828,-2.8728,-2.9042,-2.9184,-2.9134,-2.8836,-2.8973,-2.9188,-2.9246,-2.993,-3.0299,-2.9661,-2.9026,-2.8614,-2.8614,-2.8614,-2.8724,-2.8974,-2.8997,-2.9106,-2.935,-2.9665,-3.0108,-3.0658,-3.0992,-3.1498,-3.2352,-3.2224,-3.2128,-3.2128,-3.1062,-3.0337,-3.0077,-2.856,-2.7373,0.0,0.0,0.0,0.0,0.0,0.0,0.0,0.0,0.0,0.0,0.0,0.0,0.0,0.0,0.0,0.0,0.0,0.0,0.0,0.0,0.0,0.0,0.0,0.0,0.0,-3.0354,-3.0516,-3.0478,-3.0351,-3.0249,-3.021,-2.978,-2.9429,-2.9196,-3.0069,-3.0561,-3.0472,-3.1763,-3.2562,-3.2701,-3.3082,-3.3309,-3.3309,-3.3309,-3.3309,-3.3309,-3.3309,-3.3256,-3.3176,-3.3176,-3.3107,-3.2985,-3.2985,-3.2985,-3.2985,-3.2985,-3.2985,-3.3027,-3.3214,-3.3309,-3.3282,-3.3203,-3.3176,-3.3091,-3.2562,-3.1831,-3.0982,-3.0034,-2.9535,-2.9161,-2.846,-2.8401,-2.8508,-2.8186,-2.7965,-2.7911,-2.8183,-2.7868,-2.7539,-2.7854,-2.7782,-2.7536,-2.7198,-2.7132,-2.6969,-2.644,-2.7688,-2.8773,-2.8566,-2.8014,-2.768,-2.7868,-2.7898,-2.8012,-2.8255,-2.8295,-2.8391,-2.8669,-2.8772,-2.9069,-2.9651,-2.9769,-3.0149,-3.091,-3.0837,-3.0874,-3.1054,-2.9974,-2.9369,-2.9369,-2.7506,-2.627,-2.5718,0.0,0.0,0.0,0.0,0.0,0.0,0.0,0.0,0.0,0.0,0.0,0.0,0.0,0.0,0.0,0.0,0.0,0.0,0.0,0.0,0.0,0.0,0.0,-2.98,-3.0087,-3.0366,-3.1023,-3.0069,-2.9623,-3.0267,-2.9162,-2.8411,-2.8411,-2.9753,-3.0639,-3.0791,-3.2233,-3.3134,-3.3266,-3.3266,-3.3266,-3.3266,-3.3266,-3.3266,-3.3266,-3.3266,-3.3123,-3.287,-3.287,-3.2718,-3.2398,-3.2398,-3.2398,-3.2398,-3.2367,-3.2367,-3.2422,-3.3038,-3.3266,-3.3256,-3.2947,-3.2823,-3.2687,-3.1674,-3.0655,-2.9791,-2.9735,-2.9165,-2.8497,-2.8454,-2.8154,-2.7791,-2.7749,-2.7284,-2.6947,-2.7594,-2.7242,-2.675,-2.675,-2.6287,-2.5669,-2.5077,-2.495,-2.4767,-2.4149,-2.5404,-2.6823,-2.7574,-2.7288,-2.7139,-2.7758,-2.7849,0.0,-2.7849,-2.7849,-2.7849,-2.7874,-2.7889,-2.7874,-2.7889,-2.8006,-2.8314,-2.8829,-2.9032,-2.9348,-2.9896,-2.9194,-2.8794,-2.8794,-2.6916,-2.5737,-2.5319,0.0,0.0,0.0,0.0,0.0,0.0,0.0,0.0,0.0,0.0,0.0,0.0,0.0,0.0,0.0,0.0,0.0,0.0,0.0,0.0,0.0,-2.8338,-2.83,-2.8795,-2.8864,-2.8965,-2.914,-2.8876,-2.8746,-2.8924,-2.8625,-2.8411,-2.8411,-2.9221,-2.9991,-3.0623,-3.1424,-3.2148,-3.2769,-3.2715,-3.2645,-3.2645,-3.2645,-3.2645,-3.2645,-3.2645,-3.2605,-3.2551,-3.2551,-3.2496,-3.2398,-3.2398,-3.2398,-3.2351,-3.1859,-3.1659,-3.1732,-3.2389,-3.2645,-3.2583,-3.2021,-3.1489,-3.0942,-2.987,-2.9641,-2.9609,-2.8441,-2.8274,-2.8353,-2.7513,-2.7512,-2.7622,-2.6666,-2.6596,-2.675,-2.6483,-2.595,-2.5472,-2.5472,-2.5035,-2.4416,-2.3758,-2.3603,-2.3435,-2.2841,-2.3103,-2.3942,-2.5494,-2.5649,-2.575,-2.6357,-2.6443,-2.6549,-2.6864,-2.6875,-2.7004,-2.7287,-2.7399,-2.75,-2.76,-2.7735,-2.791,-2.8156,-2.7633,-2.7579,-2.8162,-2.7107,-2.636,-2.609,-2.5123,-2.4333,0.0,0.0,0.0,0.0,0.0,0.0,0.0,0.0,0.0,0.0,0.0,0.0,0.0,0.0,0.0,0.0,0.0,0.0,0.0,0.0,0.0,0.0,-2.8165,-2.8088,-2.8365,-2.8411,-2.8411,-2.8411,-2.8411,-2.8411,-2.8411,-2.8411,-2.8411,-2.8411,-2.9002,-2.973,-3.0485,-3.1081,-3.1744,-3.2492,-3.2425,-3.2398,-3.2398,-3.2398,-3.2398,-3.2398,-3.2398,-3.2398,-3.2398,-3.2398,-3.2398,-3.2382,-3.209,-3.1967,-3.1921,-3.1259,-3.0982,-3.1028,0.0,0.0,0.0,0.0,-3.0462,-2.9652,-2.9025,-2.8622,-2.8267,-2.7335,-2.7207,-2.7299,-2.6609,-2.6694,-2.6863,-2.6104,-2.6146,-2.6343,-2.5992,-2.543,-2.5006,-2.5006,-2.4331,-2.3586,-2.3182,-2.2887,-2.263,-2.2278,-2.2208,0.0,-2.398,-2.4444,-2.4838,-2.5442,-2.5725,-2.5961,-2.6231,-2.6258,-2.6324,-2.6563,-2.668,-2.6745,-2.6823,-2.6953,0.0,0.0,0.0,-2.6404,-2.6455,-2.5736,0.0,0.0,0.0,0.0,0.0,-2.3081,0.0,0.0,-2.3511,-2.3298,0.0,0.0,0.0,0.0,0.0,0.0,0.0,0.0,0.0,0.0,0.0,0.0,0.0,0.0,0.0,0.0,-2.7817,-2.7632,-2.8295,-2.8411,-2.8411,-2.8411,-2.8411,-2.8411,-2.8411,-2.8411,-2.8411,-2.8411,-2.8965,-2.9571,-3.0248,-3.0843,0.0,0.0,0.0,-3.2321,-3.2398,-3.2398,-3.2398,-3.2398,-3.2398,-3.2398,-3.2398,-3.2321,-3.2275,-3.2244,-3.1567,-3.1274,-3.1228,-3.0555,-3.0222,-3.0135,-3.0314,-3.033,-3.0227,-3.0227,-2.954,-2.8613,-2.8561,0.0,0.0,-2.6457,-2.6204,-2.5893,-2.5893,-2.5893,-2.5893,-2.5893,-2.5893,-2.5893,-2.5893,-2.5414,-2.4922,-2.4978,-2.4036,-2.3097,-2.3097,-2.2676,-2.2292,-2.2208,-2.2208,-2.2376,-2.2901,-2.3558,-2.4191,-2.481,-2.5428,-2.5795,-2.5795,-2.5851,-2.5893,-2.5893,-2.5893,0.0,-2.5893,-2.6002,-2.6029,-2.5921,-2.5975,-2.5707,-2.4982,-2.4913,-2.4593,-2.394,-2.4387,-2.4305,-2.3666,-2.3486,-2.3165,-2.2671,-2.2857,-2.2549,0.0,0.0,0.0,0.0,0.0,0.0,0.0,0.0,0.0,0.0,0.0,0.0,0.0,0.0,0.0,-2.8107,-2.7714,-2.7555,-2.8308,-2.8411,-2.8411,-2.8411,-2.8411,-2.8411,-2.8411,-2.8411,-2.8411,-2.8411,-2.8535,-2.8904,-2.9556,-2.9735,-3.0335,-3.1551,-3.1609,-3.1844,-3.2382,-3.2398,-3.2398,-3.2398,-3.2398,0.0,-3.2382,-3.1828,-3.1609,-3.1551,-3.0889,-3.0586,-3.0525,-2.9863,-2.9073,-2.844,-2.9868,-2.9867,-2.9111,-2.9111,-2.84,-2.7391,-2.7068,-2.6744,-2.6457,-2.6123,-2.5975,-2.5893,-2.5893,-2.5893,0.0,-2.5893,-2.5893,-2.5893,-2.5893,-2.5091,-2.4388,-2.488,-2.4036,-2.3097,-2.3097,-2.2999,-2.2774,-2.2292,-2.2208,-2.225,-2.2362,-2.2897,-2.353,-2.4177,-2.4795,-2.5175,-2.5175,-2.5584,-2.5893,-2.5893,-2.5893,-2.5893,-2.5893,-2.5921,-2.5921,-2.5893,-2.573,-2.5314,-2.4623,-2.4394,-2.3851,-2.291,-2.2522,-2.1886,-2.0936,-2.0926,-2.1017,-2.1301,-2.1769,-2.1896,0.0,0.0,0.0,0.0,0.0,0.0,0.0,0.0,0.0,0.0,0.0,-2.6546,-2.6546,0.0,-2.6834,-2.7378,-2.7363,-2.7489,-2.8014,-2.8275,-2.8411,-2.8411,-2.8411,-2.8411,-2.8411,-2.8411,-2.8411,-2.8411,-2.8411,-2.8704,-2.9356,-2.9387,-2.9874,-3.0874,-3.0905,-3.1074,-3.1413,-3.1413,-3.1413,-3.1413,-3.1413,-3.1413,-3.1397,-3.1059,-3.0905,-3.0859,-3.0186,-2.9894,-2.9848,-2.9196,-2.8482,-2.7891,-2.8758,-2.861,-2.795,-2.795,-2.7469,-2.6759,-2.6563,-2.6377,-2.6177,-2.5975,-2.5893,-2.5893,-2.5893,-2.5893,-2.5893,-2.5893,-2.5893,-2.5893,-2.5893,-2.5246,-2.4627,-2.4936,-2.4036,-2.3097,-2.3097,-2.2859,-2.2573,-2.2264,-2.2208,-2.2114,-2.1841,-2.2056,-2.2554,-2.3452,-2.4402,-2.4954,-2.4769,-2.5312,-2.555,-2.5147,-2.509,-2.4992,-2.4711,-2.4498,-2.4229,-2.396,-2.3823,-2.3459,-2.2818,-2.2658,-2.222,-2.1394,-2.1394,-2.1277,-2.1041,-2.0959,-2.1166,-2.1661,-2.1511,-2.1499,0.0,0.0,0.0,0.0,0.0,0.0,0.0,-2.4739,-2.4905,-2.5231,-2.5576,-2.5809,-2.5809,-2.589,-2.6106,-2.6493,-2.6794,-2.7119,-2.7534,-2.7989,-2.8275,-2.8275,-2.8348,-2.8411,-2.8411,-2.8411,-2.8411,-2.8411,-2.8411,-2.8642,-2.9196,-2.9212,-2.9494,-3.0186,-3.0202,-3.0263,-3.0402,-3.0402,-3.0402,-3.0402,-3.0402,-3.0402,-3.0402,-3.0263,-3.0202,-3.0156,-2.9494,-2.9212,-2.9156,-2.8627,-2.8113,-2.765,-2.765,-2.7331,-2.6864,-2.6941,-2.6733,-2.6377,-2.6377,-2.6177,-2.5893,-2.5893,-2.5893,-2.5893,-2.5893,-2.5893,-2.5893,-2.5893,-2.5893,-2.5893,-2.5893,-2.543,-2.5006,-2.5006,-2.4134,-2.3252,-2.3077,-2.2584,-2.2122,-2.1963,-2.1851,-2.166,-2.124,-2.1166,-2.1486,-2.2428,-2.3553,-2.4169,-2.3877,-2.4423,-2.4569,-2.3921,-2.3955,-2.3835,-2.3401,-2.2933,-2.2474,-2.2037,-2.1957,-2.1709,-2.122,-2.1025,-2.0678,-2.0091,-2.0548,-2.0964,-2.131,-2.1259,-2.1494,-2.2012,-2.1342,-2.1179,-2.2364,-2.2649,-2.2974,-2.4204,-2.4269,-2.3899,0.0,-2.3836,-2.4069,-2.3597,-2.4374,-2.5104,-2.5104,-2.5132,-2.5342,-2.5972,-2.5932,-2.6013,-2.6745,-2.7433,-2.7865,-2.7865,-2.8177,-2.8411,-2.8411,-2.8411,-2.8411,-2.8411,-2.8411,-2.8442,-2.8519,-2.8519,-2.8827,-2.9479,-2.9494,-2.9787,-3.0386,-3.0402,-3.0402,-3.0402,-3.0402,-3.0402,-3.0371,-2.9771,-2.9494,-2.9464,-2.8812,-2.8519,-2.8519,-2.8427,-2.7925,-2.7174,-2.7174,-2.6721,-2.6069,-2.6431,-2.6297,-2.5975,-2.5975,-2.5948,-2.5893,-2.5893,-2.5893,-2.5893,-2.5893,-2.5893,-2.5893,-2.5893,-2.5893,-2.5893,-2.5893,-2.543,-2.5006,-2.5006,-2.4486,-2.3775,-2.2915,-2.2399,-2.1882,-2.1124,-2.0658,-2.0408,-2.0333,-2.0333,-2.0434,-2.0662,-2.1288,-2.1642,-2.1498,-2.2018,-2.2342,-2.226,-2.2685,-2.2954,-2.2868,-2.2397,-2.2048,-2.2011,-2.1778,-2.1614,-2.1536,-2.0809,-2.017,-1.9688,-1.9665,-1.9543,-1.9249,-1.968,-2.016,-2.0615,-2.0523,-2.0761,-2.0316,-2.0592,-2.08,-2.0934,-2.141,-2.1799,-2.1626,-2.2358,-2.3135,-2.3201,-2.3881,-2.4476,-2.4476,-2.4476,-2.4635,-2.5063,-2.5329,-2.5701,-2.6269,-2.7097,-2.766,-2.779,-2.8152,-2.8411,-2.8411,-2.8411,-2.8411,-2.8411,-2.8411,-2.8411,-2.8411,-2.8411,-2.8535,-2.8827,-2.8827,-2.8965,-2.9218,-2.9258,-2.9258,-2.9258,-2.9258,-2.9258,-2.9243,-2.8965,-2.8827,-2.8812,-2.8535,-2.8275,-2.8054,-2.8054,-2.7534,-2.6733,-2.6733,-2.6404,-2.5921,-2.6096,-2.6042,-2.5893,-2.5893,-2.5893,-2.5866,-2.573,-2.5674,-2.5647,-2.5439,-2.537,-2.537,-2.537,-2.537,-2.537,-2.537,-2.5177,-2.4902,-2.4557,-2.4006,-2.3374,-2.2681,-2.1895,-2.1236,-2.0873,-2.0497,-2.0105,-1.9773,-1.9722,-1.9631,-1.9305,-2.0343,-2.108,-2.0843,-2.1366,-2.1597,-2.1107,-2.1031,-2.087,-2.0572,-2.033,-2.0048,-1.9761,-1.9624,-1.9569,-1.9569,-1.9202,-1.9073,-1.9184,-1.9167,-1.9344,-1.9769,-1.9998,-2.0366,-2.0879,-2.0879,-2.0994,-1.8907,-1.896,-1.8998,-1.8822,-1.935,-2.0064,-2.0536,-2.1468,-2.2408,-2.3065,-2.3665,-2.4083,-2.4083,-2.4083,-2.4157,-2.4363,-2.4823,-2.53,-2.5687,-2.652,-2.721,-2.7509,-2.7965,-2.8275,-2.8387,-2.8411,-2.8411,-2.8411,-2.8411,-2.8411,-2.8411,-2.8411,-2.8411,-2.8411,-2.8411,-2.8411,-2.8411,-2.8411,-2.8411,-2.8411,-2.8411,-2.8411,-2.8411,-2.8411,-2.8411,-2.8411,-2.8411,-2.8226,-2.7949,-2.7644,-2.7089,-2.6393,-2.6116,-2.5871,-2.564,-2.564,-2.5753,-2.5893,-2.5893,-2.5839,-2.5743,-2.5578,-2.5439,-2.5313,-2.5061,-2.5005,-2.5005,-2.5005,-2.5005,-2.5005,-2.5005,-2.4883,-2.4639,-2.4191,-2.3539,-2.2822,-2.2224,-2.1256,-2.0472,-2.027,-1.9914,-1.9489,-1.9109,-1.9042,-1.8895,-1.8383,-1.9422,-2.0177,-1.9937,-2.0348,-2.0474,-2.0032,-1.9535,-1.916,-1.8919,-1.8759,-1.8501,-1.8107,-1.8084,-1.8084,-1.8084,-1.8084,-1.8352,-1.8885,-1.9046,-1.9539,-2.0412,-2.0549,-2.0802,-2.119,-2.119,-2.119,-1.8907,-1.8522,-1.8428,-1.9639,-1.936,-1.92,-2.0903,-2.1511,-2.1995,-2.3009,-2.3665,-2.4083,-2.4083,-2.4083,-2.4083,-2.4112,-2.4347,-2.4609,-2.4806,-2.5591,-2.6322,-2.6875,-2.7444,-2.7965,-2.8348,-2.8411,-2.8411,-2.8411,-2.8411,-2.8411,-2.8411,-2.8411,-2.8411,-2.8411,-2.8411,-2.8411,-2.8411,-2.8411,-2.8411,-2.8411,-2.8411,-2.8411,-2.8411,-2.8411,-2.8411,-2.8411,-2.8411,-2.8387,-2.8301,-2.7261,-2.6587,-2.611,-2.5149,-2.4869,-2.5035,-2.5035,-2.5414,-2.5893,-2.5893,-2.5716,-2.5494,-2.5494,-2.5285,-2.5005,-2.5005,-2.5005,-2.5005,-2.5005,-2.5005,-2.5005,-2.5005,-2.4557,-2.4123,-2.4096,-2.3228,-2.2233,-2.1485,-2.0527,-1.963,-1.8999,-1.8464,-1.8166,-1.8139,-1.8139,-1.8139,-1.8111,-1.815,-1.8189,-1.8189,-1.82,-1.8396,-1.889,-1.8483,-1.8352,-1.885,-1.8409,-1.8134,-1.8084,-1.8084,-1.8084,-1.8084,-1.8084,-1.8352,-1.8885,-1.9401,-1.9918,-2.0412,-2.0925,-2.1178,-2.119,-2.119,-2.119,-1.6784,-1.6638,-1.6681,-1.7431,-1.7829,-1.8292,-1.927,-2.0342,-2.1421,-2.2528,-2.3231,-2.373,-2.4024,-2.4083,-2.4083,-2.4083,-2.4261,-2.4465,-2.475,-2.5453,-2.6054,-2.6443,-2.728,-2.784,-2.7989,-2.825,-2.8411,-2.8411,-2.8411,-2.8411,-2.8411,-2.8411,-2.8411,-2.8411,-2.8411,-2.8411,-2.8411,-2.8411,-2.8411,-2.8411,-2.8411,-2.8411,-2.8411,-2.8411,-2.8165,-2.7734,-2.7734,-2.7316,-2.6561,-2.598,-2.5491,-2.5075,-2.4526,-2.4332,-2.4388,-2.4388,-2.4528,-2.4824,-2.5612,-2.5716,-2.5467,-2.5257,-2.4948,-2.465,-2.4476,-2.4112,-2.3823,-2.3823,-2.3823,-2.3823,-2.3823,-2.394,-2.3923,-2.3217,-2.2457,-2.1689,-2.0781,-2.006,-1.9519,-1.9313,-1.8911,-1.8644,-1.8644,-1.8329,-1.8084,-1.8084,-1.8084,-1.8084,-1.8084,-1.8084,-1.818,-1.8352,-1.8215,-1.818,-1.8352,-1.8215,-1.8084,-1.8084,-1.8084,-1.8084,-1.8084,-1.8084,-1.8524,-1.9413,-1.9597,-2.0102,-2.0937,-2.1109,-2.119,-2.119,-2.0935,-2.0807,-1.5423,-1.5583,-1.5805,-1.6273,-1.7066,-1.7918,-1.8713,-1.9924,-2.1158,-2.2314,-2.3005,-2.3492,-2.3789,-2.3995,-2.4083,-2.4083,-2.4187,-2.4347,-2.4664,-2.5175,-2.5687,-2.6176,-2.6878,-2.7473,-2.7765,-2.8014,-2.825,-2.8387,-2.8411,-2.8411,-2.8411,-2.8411,-2.8411,-2.8411,-2.8411,-2.8411,-2.8411,-2.8411,-2.8288,-2.8042,-2.8042,-2.7919,-2.7688,-2.7688,-2.7371,-2.6826,-2.6826,-2.6342,-2.5508,-2.4917,-2.4505,-2.4225,-2.3635,-2.3544,-2.3741,-2.3741,-2.3881,-2.4205,-2.4992,-2.4993,-2.4655,-2.4491,-2.4105,-2.3768,-2.3835,-2.3553,-2.3234,-2.3443,-2.3509,-2.3509,-2.3509,-2.3639,-2.366,-2.3174,-2.2362,-2.1501,-2.0946,-2.0274,-1.9688,-1.9359,-1.9083,-1.8839,-1.8655,-1.8329,-1.8084,-1.8084,-1.8084,-1.8084,-1.8084,-1.8084,-1.8084,-1.8084,-1.8084,-1.8084,-1.8084,-1.8084,-1.8084,-1.8084,-1.8084,-1.8084,-1.8084,-1.8084,-1.8604,-1.9677,-1.9688,-2.011,-2.0999,-2.0999,-2.0924,-2.0796,-2.0539,-2.041,-1.4931,-1.538,-1.5826,-1.6278,-1.7053,-1.7999,-1.9181,-2.0171,-2.1168,-2.2299,-2.2975,-2.3373,-2.3403,-2.3815,-2.4164,-2.4164,-2.4164,-2.4268,-2.4574,-2.4833,-2.5244,-2.596,-2.631,-2.6826,-2.765,-2.7765,-2.7955,-2.8323,-2.8387,-2.8411,-2.8411,-2.8411,-2.8411,-2.8411,-2.8411,-2.8411,-2.8411,-2.8411,-2.8057,-2.7396,-2.7396,-2.7042,-2.6402,-2.6402,-2.6176,-2.5757,-2.5757,-2.5556,-2.5153,-2.4107,-2.3672,-2.3553,-2.2583,-2.2559,-2.3041,-2.3041,-2.3473,-2.3994,-2.3994,-2.3652,-2.3213,-2.3358,-2.2964,-2.252,-2.3208,-2.3282,-2.3274,-2.3903,-2.4044,-2.4044,-2.4044,-2.3639,-2.3378,-2.3923,-2.2814,-2.1647,-2.1823,-2.1034,-2.004,-1.9108,-1.8919,-1.8736,-1.8203,-1.8084,-1.8084,-1.8084,-1.8084,-1.8084,-1.8084,-1.8084,-1.8084,-1.8084,-1.8084,-1.8084,-1.8084,-1.8084,-1.8123,-1.8157,-1.8157,-1.8157,-1.8157,-1.818,-1.8662,-1.9677,-1.9711,-2.0011,-2.0603,-2.0614,-2.0431,-2.0107,-2.0107,-2.0063,-1.4556,-1.5141,-1.581,-1.6291,-1.6919,-1.7656,-1.8567,-1.9396,-2.0353,-2.1603,-2.2359,-2.2932,-2.333,-2.4167,-2.4783,-2.4783,-2.4783,-2.4842,-2.5008,-2.4945,-2.5005,-2.5384,-2.5974,-2.6484,-2.68,-2.7423,-2.784,-2.7955,-2.8226,-2.8411,-2.8411,-2.8411,-2.8411,-2.8411,-2.8411,-2.8411,-2.8411,-2.8411,-2.8057,-2.7396,-2.7396,-2.7042,-2.6402,-2.6402,-2.6043,-2.5448,-2.5448,-2.4945,-2.4147,-2.3629,-2.3227,-2.2902,-2.2404,-2.2292,-2.2433,-2.2433,-2.2545,-2.2686,-2.2686,-2.297,-2.3345,-2.3398,-2.3017,-2.2655,-2.3235,-2.3047,-2.2727,-2.3261,-2.3446,-2.3446,-2.3446,-2.3639,-2.38,-2.3632,-2.2686,-2.1732,-2.1379,-2.08,-2.0188,-1.9615,-1.9172,-1.8736,-1.8203,-1.8084,-1.8084,-1.8084,-1.8084,-1.8084,-1.8084,-1.8084,-1.8084,-1.8084,-1.8084,-1.8084,-1.8084,-1.8084,-1.8272,-1.8678,-1.8701,-1.8701,-1.8701,-1.908,-1.9424,-1.9688,-2.0044,-2.0403,-2.0828,-2.0667,-2.0518,-2.0291,-1.99,-1.9736,-1.4545,-1.518,-1.5828,-1.6283,-1.6908,-1.7586,-1.8326,-1.9354,-2.0434,-2.1397,-2.231,-2.3035,-2.333,-2.4283,-2.4913,-2.4635,-2.4835,-2.496,-2.4804,-2.4791,-2.4892,-2.5174,-2.5715,-2.6163,-2.6484,-2.693,-2.7382,-2.7765,-2.8177,-2.8411,-2.8411,-2.8411,-2.8273,-2.798,-2.7965,-2.7811,-2.7465,-2.7519,-2.7165,-2.6488,-2.6488,-2.6134,-2.5472,-2.5472,-2.517,-2.4621,-2.4485,-2.3998,-2.329,-2.2971,-2.2678,-2.2457,-2.2263,-2.2208,-2.2208,-2.2208,-2.2208,-2.2208,-2.2208,-2.2456,-2.2793,-2.2793,-2.239,-2.2061,-2.295,-2.2854,-2.2557,-2.338,-2.3587,-2.3587,-2.3587,-2.3835,-2.3959,-2.3425,-2.274,-2.207,-2.1511,-2.0875,-2.0205,-1.9482,-1.8919,-1.8444,-1.8157,-1.8084,-1.8084,-1.8084,-1.8084,-1.8084,-1.8084,-1.8084,-1.8084,-1.8084,-1.8084,-1.8084,-1.8084,-1.8084,-1.8237,-1.8524,-1.8563,-1.8583,-1.8669,-1.8964,-1.9256,-1.9576,-1.9845,-2.0091,-2.0324,-2.0226,-2.0064,-1.9813,-1.9506,-1.9241,-1.469,-1.5427,-1.5933,-1.6316,-1.6956,-1.7664,-1.8386,-1.9617,-2.0852,-2.1479,-2.2567,-2.3403,-2.3403,-2.4283,-2.4835,-2.4308,-2.4648,-2.4852,-2.4461,-2.4618,-2.4863,-2.5146,-2.5481,-2.5866,-2.6377,-2.6457,-2.6797,-2.753,-2.7966,-2.8185,-2.8273,-2.8181,-2.7873,-2.7288,-2.7257,-2.6965,-2.6311,-2.6364,-2.6026,-2.5296,-2.5296,-2.4943,-2.4302,-2.4302,-2.4114,-2.3782,-2.3494,-2.3105,-2.2686,-2.2379,-2.224,-2.2208,-2.2208,-2.2208,-2.2208,-2.2208,-2.2208,-2.2208,-2.2208,-2.2114,-2.202,-2.202,-2.1568,-2.1271,-2.2521,-2.2605,-2.2546,-2.3668,-2.3942,-2.3903,-2.3939,-2.3913,-2.3731,-2.3208,-2.274,-2.226,-2.18,-2.0914,-1.9953,-1.9069,-1.8455,-1.8084,-1.8084,-1.8084,-1.8084,-1.8084,-1.8084,-1.8084,-1.8084,-1.8084,-1.8084,-1.8084,-1.8084,-1.8118,-1.8215,-1.8215,-1.8244,-1.8315,-1.8326,-1.8391,-1.8514,-1.8592,-1.8873,-1.9397,-1.9442,-1.9554,-1.9638,-1.9539,-1.933,-1.9031,-1.8931,-1.864,-1.4487,-1.5546,-1.6609,-1.6581,-1.7053,-1.7696,-1.8488,-1.9587,0.0,0.0,-2.2567,-2.3403,-2.3403,-2.4283,-2.4966,-2.4861,-2.4926,-2.4966,-2.4878,-2.4752,-2.4734,-2.5005,-2.5341,-2.5647,-2.5975,-2.6297,-2.6477,-2.6396,-2.6786,-2.7163,-2.7541,-2.7042,-2.6672,-2.6587,-2.6565,-2.6503,-2.638,-2.638,-2.6026,-2.5296,-2.5296,-2.4943,-2.4302,-2.4302,-2.4114,-2.3797,-2.3754,-2.3334,-2.2709,-2.264,-2.2434,-2.2208,-2.2208,-2.2208,-2.2208,-2.2208,-2.2208,-2.2208,-2.2208,-2.2184,-2.2161,-2.2044,-2.1712,-2.1461,-2.2088,-2.2058,-2.2049,-2.3082,-2.3027,-2.2807,-2.325,-2.3041,-2.2675,-2.257,-2.1903,-2.1248,-2.1162,-2.0113,-1.9103,-1.8931,-1.8455,-1.8084,-1.8084,-1.8084,-1.8084,-1.8084,-1.8084,-1.8084,-1.8084,-1.8084,-1.8084,-1.8084,-1.8084,-1.8283,-1.8724,-1.8759,-1.8999,-1.955,-1.9606,-1.9499,-1.923,-1.9602,-1.9669,-1.943,-1.979,-1.9933,-1.9846,-1.9253,-1.8811,-1.8576,-1.7978,-1.7647,-1.5186,-1.6028,-1.6807,-1.6825,-1.7091,-1.7716,-1.8948,0.0,0.0,0.0,-2.3113,-2.376,-2.376,-2.4433,-2.49,-2.457,-2.4809,-2.4887,-2.457,-2.4562,-2.4706,-2.4977,-2.5313,-2.5605,-2.5866,-2.5786,-2.5735,-2.5843,-2.5555,-2.5845,-2.6834,-2.6211,-2.5826,-2.5826,-2.5487,-2.5302,-2.5302,-2.5302,-2.5133,-2.4795,-2.4795,-2.4604,-2.4302,-2.4302,-2.4198,-2.4051,-2.3674,-2.3348,-2.2979,-2.2595,-2.2356,-2.2208,-2.2208,-2.2208,-2.2208,-2.2208,-2.2114,-2.1996,-2.1996,-2.1902,-2.1769,-2.1712,-2.1568,-2.1507,-2.2054,-2.1937,-2.176,-2.2557,-2.261,-2.2453,-2.2728,-2.2597,-2.2282,-2.174,-2.0904,-2.0153,-1.9956,-1.937,-1.8816,-1.8524,-1.8283,-1.8084,-1.8084,-1.8084,-1.8084,-1.8084,-1.8084,-1.8084,-1.8084,-1.8084,-1.8084,-1.8084,-1.8084,-1.8235,-1.8606,-1.8651,-1.8812,-1.9207,-1.9221,-1.9177,-1.9103,-1.903,-1.8963,-1.8842,-1.8742,-1.8643,-1.8586,-1.824,-1.8003,-1.791,-1.7545,-1.7235,-1.6036,-1.6583,-1.7004,-1.7106,-1.7256,-1.7818,-1.9448,-2.0354,0.0,-2.2844,-2.3675,-2.4083,-2.4083,-2.4491,-2.4635,0.0,-2.4491,-2.4622,-2.4178,-2.4361,-2.4635,-2.492,-2.5257,-2.5508,-2.5656,-2.5261,-2.5036,-2.5185,-2.4464,-2.4582,-2.5881,-2.541,-2.5081,-2.5081,-2.4558,-2.4302,-2.4302,-2.4302,-2.4261,-2.4198,-2.4198,-2.4156,-2.4094,-2.4094,-2.4036,-2.3931,-2.3414,-2.3127,-2.3031,-2.2426,-2.2208,-2.2208,-2.2208,-2.2208,-2.2208,-2.2208,-2.2067,-2.1841,-2.1793,-2.164,-2.1447,-2.1423,-2.1375,-2.1432,-2.1905,-2.1725,-2.1485,-2.2047,-2.2113,-2.2048,-2.2179,-2.2113,-2.1798,-2.0816,-2.0008,-1.9325,-1.8848,-1.8736,-1.8609,-1.8192,-1.8084,-1.8084,-1.8084,-1.8084,-1.8084,-1.8084,-1.8084,-1.8084,-1.8084,-1.8084,-1.8084,-1.803,-1.8068,-1.8225,-1.8523,-1.855,-1.8629,-1.8787,-1.8819,-1.8825,-1.8849,-1.8344,-1.8134,-1.8303,-1.7828,-1.752,-1.7407,-1.7407,-1.7339,-1.7235,-1.7107,-1.683,-1.6562,-1.7059,-1.7601,-1.7479,-1.7562,-1.8109,-1.9778,0.0,-2.1371,-2.3031,-2.376,-2.4083,-2.4083,-2.4164,0.0,0.0,0.0,-2.4178,-2.4096,-2.4232,-2.445,-2.4778,-2.5061,-2.5149,-2.4921,-2.4955,-2.4682,-2.3923,-2.3558,-2.3723,-2.4445,-2.4441,-2.4394,-2.4394,-2.4333,-2.4302,-2.4302,-2.4302,-2.4156,-2.3861,-2.3861,-2.3689,-2.3385,-2.3385,-2.3194,-2.283,-2.2785,-2.2572,-2.2301,-2.2231,-2.2208,-2.2208,-2.2208,-2.2208,-2.2208,-2.2208,-2.2114,-2.1973,-2.1841,-2.1712,-2.1568,-2.1447,-2.1326,-2.1218,-2.1149,-2.104,-2.1036,-2.1459,-2.1237,-2.0987,-2.1459,-2.1223,-2.0641,-1.9742,-1.9468,-1.9165,-1.8344,-1.818,-1.8169,-1.8123,-1.8084,-1.8084,-1.8084,-1.8084,-1.8084,-1.8084,-1.8084,-1.8084,-1.8084,-1.8084,-1.8002,-1.7767,-1.7947,-1.8362,-1.8981,-1.9041,-1.9157,-1.9489,-1.951,-1.9367,-1.9069,-1.8569,-1.8297,-1.8303,-1.8236,-1.7964,-1.7407,-1.7407,-1.7132,-1.6673,-1.6175,-1.5903,-1.6855,-1.7427,-1.8073,-1.8104,-1.8348,-1.9036,-2.0704,-2.1232,-2.1838,-2.3486,-2.3966,-2.4083,-2.4083,-2.4083,0.0,0.0,0.0,0.0,-2.4083,-2.4332,-2.4549,-2.4778,-2.4804,-2.4777,-2.4783,-2.424,-2.3649,-2.3146,-2.2989,-2.3157,-2.3674,-2.3903,-2.4009,-2.4009,-2.4198,-2.4302,-2.4302,-2.4302,-2.4135,-2.3797,-2.3797,-2.361,-2.3297,-2.3297,-2.3194,-2.3061,-2.2822,-2.2603,-2.2495,-2.2287,-2.2208,-2.2208,-2.2208,-2.2208,-2.2208,-2.2208,-2.2067,-2.1841,-2.164,-2.1423,-2.1204,-2.1033,-2.0947,-2.0923,-2.0997,-2.0911,-2.0814,-2.0962,-2.0857,-2.0751,-2.0962,-2.0654,-2.0118,-1.9539,-1.921,-1.8866,-1.8247,-1.8084,-1.8084,-1.8084,-1.8084,-1.8084,-1.8084,-1.8084,-1.8084,-1.8084,-1.8084,-1.8084,-1.8084,-1.7959,-1.7822,-1.7711,-1.7794,-1.8047,-1.8531,-1.8546,-1.8761,-1.9278,-1.9308,-1.9241,-1.9108,-1.8226,-1.793,-1.8303,-1.7647,-1.7304,-1.7407,-1.7407,-1.7132,-1.6603,-1.6368,-1.6105,-1.7505,-1.797,-1.8494,-1.8697,-1.9136,-1.9902,-2.1365,-2.1858,-2.2352,-2.3816,-2.4083,-2.4083,-2.4083,-2.4083,-2.4083,0.0,0.0,-2.4112,-2.4157,-2.4202,-2.4325,-2.4579,-2.4505,-2.4403,-2.4253,-2.3389,-2.2753,-2.2555,-2.2549,-2.2686,-2.2949,-2.329,-2.3523,-2.3646,-2.3882,-2.3994,-2.3994,-2.3796,-2.3628,-2.3465,-2.3293,-2.3134,-2.2971,-2.3083,-2.3061,-2.2971,-2.2777,-2.264,-2.2526,-2.2287,-2.2208,-2.2208,-2.2208,-2.2208,-2.2184,-2.2114,-2.1949,-2.1712,-2.1399,-2.1144,-2.0936,-2.0762,-2.0699,-2.0724,-2.0873,-2.0799,-2.0699,-2.0699,-2.0699,-2.0699,-2.0699,-2.046,-2.0067,-1.9512,-1.9184,-1.8825,-1.822,-1.8084,-1.8084,-1.8084,-1.8084,-1.8084,-1.8084,-1.8084,-1.8084,-1.8084,-1.8084,-1.8057,-1.7975,-1.7822,-1.7629,-1.7451,-1.7434,-1.7595,-1.7956,-1.799,-1.8259,-1.8839,-1.8901,-1.8963,-1.9098,-1.8192,-1.7794,-1.8032,-1.7407,-1.7123,-1.7166,-1.7304,-1.7132,-1.6603,-1.6438,-1.6167,-1.8652,-1.8798,-1.8905,-1.9289,-1.984,-2.0546,-2.1481,-2.2178,-2.2882,-2.3907,-2.4083,-2.4083,-2.4083,-2.4083,-2.4083,0.0,0.0,0.0,-2.4263,-2.3804,-2.3587,-2.4041,-2.4232,-2.3939,-2.3009,-2.2506,-2.2208,-2.2208,-2.2208,-2.2208,-2.2208,-2.2526,-2.2889,-2.3297,-2.3319,-2.3319,-2.3319,-2.2655,-2.2446,-2.2694,-2.2119,-2.1949,-2.2217,-2.2549,-2.2526,-2.2231,-2.2549,-2.2503,-2.2194,-2.2208,-2.2208,-2.2208,-2.2208,-2.2208,-2.2184,-2.1902,-2.1722,-2.1544,-2.1131,-2.0961,-2.0888,-2.0737,-2.0699,-2.0699,-2.0699,-2.0699,-2.0699,-2.0699,-2.0699,-2.0699,-2.0699,-2.0699,-2.0473,-1.9603,-1.9394,-1.9158,-1.8275,-1.8084,-1.8084,-1.8084,-1.8084,-1.8084,-1.8084,-1.8084,-1.8084,-1.8084,-1.8084,-1.8002,-1.7739,-1.7711,-1.7451,-1.6864,-1.6807,-1.7009,-1.7459,-1.7501,-1.7773,-1.8362,-1.8414,-1.8631,-1.9088,-1.8573,-1.7998,-1.7417,-1.7998,-1.7716,-1.6603,-1.7132,-1.7132,-1.6603,-1.607,-1.5805,-1.9675,-2.0027,-2.0343,-2.0865,-2.1352,-2.1905,-2.2556,-2.2883,-2.321,-2.3965,-2.4083,-2.4083,-2.4083,-2.4083,-2.4083,-2.4083,0.0,0.0,0.0,-2.4089,-2.394,-2.3709,-2.3244,-2.2741,-2.2204,-2.2108,-2.2114,-2.2184,-2.2208,-2.2208,-2.2208,-2.2287,-2.2518,-2.2889,-2.2695,-2.2625,-2.2625,-2.1996,-2.1609,-2.1455,-2.1289,-2.1126,-2.0962,-2.1094,-2.1306,-2.1597,-2.171,-2.1928,-2.2208,-2.2208,-2.2208,-2.2184,-2.1996,-2.1926,-2.1902,-2.164,-2.1496,-2.1423,-2.1106,-2.0997,-2.0936,-2.0762,-2.0699,-2.0699,-2.0699,-2.0699,-2.0624,-2.0321,-2.0207,-2.0169,-1.9875,-1.981,-1.9681,-1.9105,-1.8984,-1.8813,-1.822,-1.8084,-1.8084,-1.8084,-1.8084,-1.8084,-1.8084,-1.8084,-1.8084,-1.8084,-1.7947,-1.7794,-1.7711,-1.7351,-1.7015,-1.6818,-1.6648,-1.6694,-1.7124,-1.7457,-1.7853,-1.8372,-1.8704,-1.8953,-1.9098,-1.8573,-1.8371,-1.8563,-1.8405,-1.8124,-1.775,-1.792,-1.7545,-1.6603,-1.6035,-1.5805,0.0,-2.1062,-2.1313,-2.1847,-2.2339,-2.2779,-2.3132,-2.3365,-2.3639,-2.4005,-2.4083,-2.4083,-2.4083,-2.4083,-2.4083,-2.4083,-2.39,-2.3851,-2.4147,-2.3892,-2.3583,-2.3336,-2.2506,-2.1975,-2.2021,-2.1921,-2.1902,-2.2044,-2.189,-2.181,-2.1856,-2.1645,-2.1609,-2.1818,-2.1888,-2.1794,-2.1598,-2.0965,-2.0674,-2.0705,-2.0447,-2.0365,-2.04,-2.0522,-2.072,-2.0956,-2.1081,-2.1286,0.0,-2.1772,-2.1729,-2.1524,-2.1541,-2.1509,-2.1415,-2.1108,-2.0965,-2.0957,-2.0892,-2.0728,-2.0518,-2.0409,-2.0203,-2.002,-2.002,-2.0334,-2.0599,-2.0131,-1.9991,-1.9927,-1.9486,-1.9394,-1.9289,-1.8905,-1.8798,-1.8664,-1.8193,-1.8084,-1.8084,-1.8084,-1.8084,-1.8084,-1.8084,-1.8084,-1.8084,-1.8084,-1.7865,-1.7656,-1.7573,-1.7099,-1.6761,-1.6648,-1.6488,-1.6498,-1.6738,-1.7182,-1.7637,-1.8112,-1.859,-1.8922,-1.9098,-1.8774,-1.8664,-1.8808,-1.8674,-1.8506,-1.8303,-1.8066,-1.7373,-1.6307,-1.5973,-1.5805,0.0,-2.2003,-2.1933,-2.2423,-2.291,-2.3276,-2.3289,-2.372,0.0,-2.4083,-2.4083,-2.4083,-2.4031,-2.4031,-2.4031,-2.4031,-2.3522,-2.3411,-2.4118,-2.3235,-2.2644,-2.2937,-2.2017,-2.1605,-2.2224,-2.186,-2.1664,-2.1793,-2.1356,-2.1145,-2.1293,-2.0731,-2.0386,-2.033,-2.0872,-2.09,-2.033,-1.9677,-1.9649,-2.0259,-1.9635,-1.9663,-2.0295,-2.0597,-2.0569,-2.0351,-2.0654,-2.0641,-2.0442,-2.0998,-2.0914,-2.0456,-2.0857,-2.0931,-2.0758,-2.0381,-2.0171,-2.0157,-2.0458,-2.0203,-1.9747,-1.9747,-1.9368,-1.8911,-1.8865,-1.9695,-2.0534,-2.0067,-1.994,-1.9863,-1.946,-1.9342,-1.921,-1.8851,-1.8744,-1.8637,-1.8193,-1.8084,-1.8084,-1.8084,-1.8084,-1.8084,-1.8057,-1.8057,-1.8057,-1.803,-1.781,-1.7545,-1.7306,-1.6987,-1.6676,-1.6441,-1.6413,-1.6423,-1.6454,-1.6779,-1.7203,-1.7668,-1.8143,-1.8621,-1.9088,-1.9108,-1.8875,-1.8371,-1.8774,-1.8731,-1.8236,-1.7588,-1.676,-1.5805,-1.5805,-1.5805,-2.3933,0.0,-2.3327,-2.3762,-2.3945,-2.4008,0.0,-2.3992,-2.4083,-2.4083,0.0,-2.3939,-2.3483,-2.3404,-2.3404,-2.3404,-2.2934,-2.2792,-2.3398,-2.2494,-2.1943,-2.247,-2.1639,-2.1101,-2.132,-2.1383,-2.1544,-2.1769,-2.1356,-2.1145,-2.1293,-2.0731,-2.0154,-1.9663,-1.9775,-1.9775,-1.9635,-1.9017,-1.8793,-1.8933,-1.8793,-1.8793,-1.8947,-1.9033,-1.9266,-1.9635,-1.9724,-1.9985,-2.0414,-2.0555,-2.0526,-2.0393,-2.0295,-2.0103,-1.9867,-1.9637,-1.9409,-1.9225,-1.93,-1.9224,-1.912,-1.912,-1.9028,-1.8865,-1.8601,-1.9221,-1.9923,-1.9494,-1.9446,-1.9434,-1.9064,-1.8679,-1.8383,-1.8275,-1.8247,-1.822,-1.8111,-1.8084,-1.8084,-1.8084,-1.8084,-1.803,-1.7822,-1.7794,-1.77,-1.744,-1.7172,-1.6987,-1.6931,-1.6658,-1.6459,-1.6402,-1.6413,-1.6519,-1.6831,-1.6955,-1.7203,-1.7668,-1.8143,-1.8621,-1.9088,-1.9108,-1.9042,-1.8908,-1.8192,-1.775,-1.7613,-1.6656,-1.6044,-1.5805,-1.5805,-1.5805,-2.4529,-2.4436,-2.4319,-2.4485,-2.4465,-2.435,-2.4232,0.0,0.0,0.0,0.0,0.0,0.0,-2.3263,-2.3459,-2.291,-2.2583,-2.24,-2.2426,-2.1904,-2.1629,-2.1956,-2.1301,-2.0825,-2.0848,-2.1082,-2.1218,-2.1195,-2.0826,-2.0548,-2.0442,-1.9866,-1.9354,-1.9003,-1.8989,-1.8989,-1.8989,-1.8666,-1.8498,-1.8498,-1.8498,-1.8498,-1.8498,-1.8498,-1.868,-1.8989,-1.8989,-1.9186,-1.9536,-1.9838,-1.9796,-1.955,-1.9635,-1.9506,-1.9233,-1.9042,-1.8822,-1.8612,-1.8842,-1.8741,-1.8532,-1.8532,-1.8349,-1.8083,-1.7906,-1.8274,-1.8693,-1.841,-1.8546,-1.8618,-1.7951,-1.7954,-1.8054,-1.7825,-1.7939,-1.8084,-1.8084,-1.8084,-1.8057,-1.7947,-1.7931,-1.781,-1.7534,-1.7479,-1.7423,-1.7217,-1.6976,-1.6818,-1.6818,-1.6573,-1.6456,-1.6663,-1.6684,-1.6841,-1.7285,-1.7327,-1.7523,-1.7999,-1.8247,-1.8621,-1.9088,-1.9108,-1.8965,-1.8741,-1.8134,-1.7545,-1.7028,-1.6447,-1.6035,-1.5805,-1.5805,-1.5805,-2.4555,-2.4845,-2.4981,-2.4865,-2.4708,-2.4496,-2.4273,0.0,0.0,0.0,0.0,0.0,0.0,-2.3184,-2.3524,-2.2558,-2.231,-2.2087,-2.1577,-2.1433,-2.142,-2.1498,-2.1027,-2.0699,-2.0699,-2.0794,-2.0748,-2.0475,-2.006,-1.9682,-1.9376,-1.8781,-1.8478,-1.8498,-1.8498,-1.8498,-1.8498,-1.8498,-1.8498,-1.8498,-1.8498,-1.8498,-1.8498,-1.8498,-1.8498,-1.8498,-1.8498,-1.8498,-1.854,-1.9059,-1.8961,-1.8554,-1.8993,-1.9003,-1.8733,-1.8557,-1.8297,-1.8092,-1.8489,-1.8349,-1.7957,-1.7957,-1.7617,-1.7199,-1.7136,-1.7248,-1.7322,-1.711,-1.7504,-1.782,-1.7018,-1.7453,-1.8008,-1.7599,-1.7802,-1.8084,-1.8084,-1.8084,-1.803,-1.7783,-1.7711,-1.7601,-1.7217,-1.7162,-1.7145,-1.7088,-1.6864,-1.6733,-1.6733,-1.6545,-1.6529,-1.6872,-1.6965,-1.7203,-1.7668,-1.7699,-1.7915,-1.8486,-1.8445,-1.8621,-1.9088,-1.9108,-1.8841,-1.8303,-1.8202,-1.7647,-1.6603,-1.6508,-1.6237,-1.5805,-1.5726,-1.5726,-2.4242,-2.4605,-2.5033,-2.5135,-2.4948,-2.4587,-2.3923,0.0,0.0,0.0,0.0,0.0,0.0,-2.2531,-2.2609,-2.2427,-2.1982,-2.1616,-2.1525,-2.1119,-2.0988,-2.1459,-2.1027,-2.0699,-2.0699,-2.0364,-2.0178,-2.0238,-1.9457,-1.9029,-1.9142,-1.8627,-1.8392,-1.8498,-1.8498,-1.8498,-1.8498,-1.8498,-1.8498,-1.8498,-1.8498,-1.8498,-1.8498,-1.8498,-1.8498,-1.8498,-1.8498,-1.8498,-1.8512,-1.8596,-1.8582,-1.8512,-1.8596,-1.8381,-1.8058,-1.8018,-1.7738,-1.7363,-1.7434,-1.7408,-1.7342,-1.7342,-1.7277,-1.7157,-1.6871,-1.6795,-1.669,-1.6029,-1.6884,-1.7979,-1.782,-1.7955,-1.8088,-1.802,-1.8054,-1.8084,-1.8084,-1.8084,-1.8057,-1.7909,-1.7783,-1.7562,-1.7095,-1.6937,-1.6779,-1.6573,-1.6488,-1.6459,-1.6459,-1.6441,-1.6433,-1.6477,-1.6789,-1.7203,-1.7668,-1.7699,-1.8081,-1.8942,-1.8631,-1.8621,-1.9088,-1.9108,-1.8841,-1.8303,-1.7794,-1.7235,-1.6603,-1.6132,-1.5867,-1.5797,-1.5461,-1.539,-2.3572,-2.3744,-2.4033,-2.4321,-2.4641,-2.4768,-2.4175,0.0,0.0,0.0,0.0,0.0,0.0,-2.1969,-2.2296,-2.1956,-2.1446,-2.099,-2.0733,-2.0705,-2.069,-2.0682,-2.0705,-2.0581,-2.0255,-2.0077,-1.9797,-1.9265,-1.8968,-1.8754,-1.8631,-1.8413,-1.8358,-1.8498,-1.8498,-1.8498,-1.8498,-1.8498,-1.8498,-1.8498,-1.8498,-1.8498,-1.8498,-1.8498,-1.8498,-1.8498,-1.8498,-1.8498,-1.8498,-1.8498,-1.8498,-1.8498,-1.838,-1.8169,-1.7935,-1.772,-1.744,-1.7199,-1.7199,-1.7199,-1.7178,-1.6976,-1.6934,-1.6871,-1.6522,-1.6272,-1.6042,-1.5702,-1.6337,-1.7085,-1.6912,-1.7294,-1.7725,-1.7725,-1.7917,-1.8084,-1.8084,-1.8084,-1.803,-1.7838,-1.759,-1.7312,-1.6937,-1.6733,-1.6545,-1.6413,-1.6413,-1.6413,-1.6413,-1.6413,-1.657,-1.7057,-1.7265,-1.7668,-1.8402,-1.8454,-1.8526,-1.8714,-1.8766,-1.888,-1.9098,-1.8831,-1.8405,-1.7818,-1.727,-1.6603,-1.5833,-1.5718,-1.547,-1.515,-1.507,-1.5034,-2.3035,-2.3097,-2.3178,-2.3504,0.0,-2.4433,-2.3894,0.0,0.0,0.0,0.0,0.0,0.0,-2.1327,-2.1779,-2.1288,-2.0772,-2.0258,-1.9901,-2.0182,-2.0258,-1.9901,-2.0245,-2.0328,-1.972,-1.9716,-1.9357,-1.8407,-1.8409,-1.8336,-1.8057,-1.8135,-1.8274,-1.8439,-1.8445,-1.8478,-1.8498,-1.8498,-1.8498,-1.8498,-1.8498,-1.8498,-1.8498,-1.8498,-1.8498,-1.8498,-1.8498,-1.8498,-1.8498,-1.8498,-1.8478,-1.842,-1.8262,-1.8055,-1.7841,-1.7481,-1.7287,-1.7199,-1.7115,-1.7081,-1.7031,-1.668,-1.6573,-1.6543,-1.6275,-1.5979,-1.5724,-1.5635,-1.5993,-1.635,-1.6134,-1.6807,-1.7553,-1.7553,-1.7783,-1.8002,-1.8002,-1.7947,-1.781,-1.759,-1.7301,-1.7022,-1.6779,-1.6573,-1.6413,-1.6413,-1.6413,-1.6413,-1.6413,-1.6413,-1.6684,-1.7451,-1.7637,-1.806,-1.9025,-1.9108,-1.8953,-1.86,-1.8911,-1.9042,-1.8931,-1.8438,-1.7852,-1.7166,-1.6673,-1.6009,-1.5133,-1.5319,-1.5177,-1.4677,-1.4721,-1.4677,-2.3121,-2.3097,-2.3115,-2.3219,-2.3281,0.0,-2.2336,-2.1917,0.0,-2.0373,0.0,0.0,-2.0407,-2.0382,-2.0432,-2.0382,-1.9871,-1.9473,-1.9447,-1.9473,-1.9473,-1.9447,-1.9811,-1.9838,-1.9317,-1.9078,-1.875,-1.8162,-1.7731,-1.7514,-1.755,-1.7788,-1.8023,-1.8222,-1.8293,-1.8358,-1.8498,-1.8498,-1.8498,-1.8498,-1.8498,-1.8498,-1.8498,-1.8498,-1.8498,-1.8498,-1.8498,-1.8498,-1.8498,-1.8498,-1.84,-1.8222,-1.8222,-1.7915,-1.7516,-1.7303,-1.7199,-1.7157,-1.685,-1.6744,-1.668,-1.634,-1.6231,-1.6244,-1.6222,-1.6178,-1.6078,-1.5702,-1.5993,-1.6409,-1.6514,-1.7298,-1.8054,-1.8054,-1.7897,-1.7739,-1.7739,-1.7479,-1.7217,-1.7067,-1.6937,-1.6779,-1.6637,-1.6506,-1.6413,-1.6413,-1.6413,-1.6413,-1.6413,-1.6413,-1.656,-1.7006,-1.7451,-1.806,-1.9025,-1.9108,-1.9088,-1.9056,-1.9088,-1.8875,-1.8371,-1.7954,-1.732,-1.6411,-1.614,-1.5665,-1.49,-1.5106,-1.5106,-1.4864,-1.4389,-1.431,-2.2677,-2.2696,-2.2643,-2.1838,-2.1837,0.0,0.0,-2.1913,-2.141,-2.0703,-2.0496,0.0,-1.9832,-1.9754,-1.9754,-1.9754,-1.9556,-1.9316,-1.9052,-1.9237,-1.9316,-1.9064,-1.9318,-1.9293,-1.8698,-1.85,-1.8166,-1.7578,-1.746,-1.7432,-1.7496,-1.7686,-1.7868,-1.8075,-1.8175,-1.8274,-1.8358,-1.8464,-1.8498,-1.8498,-1.8498,-1.8498,-1.8498,-1.8498,-1.8498,-1.8498,-1.8498,-1.8498,-1.8498,-1.8498,-1.838,-1.8169,-1.7889,-1.7591,-1.7303,-1.724,-1.7199,-1.7157,-1.6829,-1.6689,-1.6603,-1.6022,-1.5824,-1.578,-1.558,-1.5513,-1.5562,-1.5741,-1.6149,-1.6542,-1.6602,-1.714,-1.7748,-1.8043,-1.7975,-1.781,-1.7711,-1.7534,-1.7329,-1.7162,-1.6948,-1.6779,-1.6722,-1.6534,-1.6413,-1.6413,-1.6413,-1.6413,-1.6413,-1.6413,-1.655,-1.6965,-1.743,-1.7843,-1.8206,-1.8237,-1.8237,-1.8237,-1.8764,-1.8875,-1.8303,-1.7604,-1.6872,-1.614,-1.548,-1.4955,-1.4577,-1.4677,-1.4533,-1.4225,-1.4008,-1.3928,-2.2402,-2.2341,-2.2242,-2.1233,0.0,0.0,-2.1607,-2.1323,-2.0826,-2.033,-1.9907,-1.9528,-1.9257,-1.9105,-1.8999,-1.8999,-1.8999,-1.8893,-1.861,-1.8696,-1.8668,-1.8378,-1.8506,-1.8349,-1.7753,-1.7826,-1.7674,-1.7091,-1.7233,-1.7357,-1.7393,-1.7522,-1.7699,-1.7902,-1.7989,-1.8109,-1.8274,-1.8366,-1.842,-1.8445,-1.8478,-1.8498,-1.8484,-1.8301,-1.8315,-1.8498,-1.8498,-1.8459,-1.842,-1.842,-1.8228,-1.7935,-1.757,-1.7323,-1.7199,-1.7199,-1.7199,-1.7157,-1.6829,-1.6637,-1.6445,-1.5812,-1.5524,-1.539,-1.5176,-1.5108,-1.5188,-1.5544,-1.6107,-1.6598,-1.6598,-1.7117,-1.7702,-1.8031,-1.7975,-1.7772,-1.759,-1.7396,-1.7217,-1.7004,-1.6818,-1.6676,-1.6676,-1.6516,-1.6413,-1.6413,-1.6413,-1.6413,-1.6413,-1.6413,-1.655,-1.6965,-1.743,-1.7699,-1.7699,-1.7564,-1.7533,-1.7637,-1.7904,-1.7936,-1.7639,-1.6636,-1.5904,-1.5515,-1.4812,-1.4353,-1.4217,-1.4281,-1.4145,-1.3797,-1.3717,-1.3681,-2.2402,-2.2114,-2.1931,0.0,0.0,0.0,-2.0234,-1.9775,-1.9289,-1.8878,-1.841,-1.8247,-1.8718,-1.8422,-1.8084,-1.8084,-1.8084,-1.8084,-1.8084,-1.7691,-1.7407,-1.7396,-1.7326,-1.7063,-1.6467,-1.7064,-1.7264,-1.674,-1.6997,-1.7199,-1.7199,-1.7329,-1.7487,-1.7679,-1.7699,-1.7862,-1.8183,-1.8202,-1.8228,-1.8305,-1.8431,-1.8498,-1.8484,-1.7885,-1.7922,-1.8498,-1.8498,-1.838,-1.8202,-1.8189,-1.7929,-1.7475,-1.7282,-1.7199,-1.7199,-1.7199,-1.7199,-1.7157,-1.6829,-1.6479,-1.6122,-1.5724,-1.5367,-1.5108,-1.5108,-1.5108,-1.5108,-1.5119,-1.5819,-1.6598,-1.661,-1.7355,-1.8084,-1.8084,-1.7904,-1.7601,-1.7273,-1.7004,-1.6733,-1.6459,-1.6413,-1.6413,-1.6413,-1.6413,-1.6413,-1.6413,-1.6413,-1.6413,-1.6413,-1.6413,-1.655,-1.6955,-1.742,-1.7688,-1.7688,-1.7254,-1.7119,-1.7461,-1.6395,-1.59,-1.6163,-1.5036,-1.4399,-1.4382,-1.4201,-1.3992,-1.3797,-1.3992,-1.3992,-1.3797,-1.3608,-1.3608,-2.2402,-2.1708,0.0,-2.0177,0.0,0.0,0.0,-1.8592,0.0,0.0,-1.8193,-1.8139,-1.8275,-1.8193,-1.8084,-1.8084,-1.8084,-1.7985,-1.7656,-1.7499,-1.7243,-1.6887,-1.6736,-1.6598,-1.6432,-1.6518,-1.6514,-1.6352,-1.6448,-1.6607,-1.685,-1.6892,-1.7086,-1.7487,-1.7522,-1.7693,-1.7983,-1.7983,-1.8069,-1.8228,-1.7838,-1.7943,-1.8498,-1.8166,-1.8135,-1.8282,-1.8143,-1.8043,-1.7983,-1.7794,-1.7618,-1.7475,-1.7282,-1.7199,-1.7199,-1.7199,-1.7199,-1.7157,-1.6829,-1.6479,-1.6122,-1.5724,-1.5367,-1.5108,-1.5108,-1.5108,-1.5188,-1.5556,-1.6118,-1.6679,-1.706,-1.7486,-1.7822,-1.7822,-1.77,-1.7451,-1.7004,-1.6779,-1.662,-1.6431,-1.6413,-1.6413,-1.6413,-1.6413,-1.6413,-1.6413,-1.6413,-1.6413,-1.6413,-1.6413,-1.6454,-1.656,-1.6694,-1.6748,-1.6581,-1.6059,-1.5722,-1.5682,-1.4434,-1.4308,-1.5664,-1.4875,-1.421,-1.3839,-1.3727,-1.371,-1.3797,-1.371,-1.371,-1.3797,-1.3608,-1.3535,-2.1884,-2.1148,0.0,-1.9298,-1.8621,-1.812,-1.7708,0.0,0.0,0.0,-1.8084,-1.8084,-1.8084,-1.8084,-1.8043,-1.7848,-1.7813,-1.7656,-1.7151,-1.691,-1.6681,-1.6346,-1.6067,-1.5881,-1.5881,-1.5938,-1.5957,-1.5957,-1.61,-1.6297,-1.65,-1.65,-1.6714,-1.7183,-1.7199,-1.7352,-1.7747,-1.7747,-1.7848,-1.8069,-1.7556,-1.756,-1.8061,-1.7946,-1.773,-1.747,-1.7202,-1.7066,-1.7046,-1.6817,-1.6718,-1.6712,-1.6841,-1.6872,-1.6878,-1.6962,-1.6997,-1.6955,-1.6629,-1.6262,-1.5913,-1.568,-1.5367,-1.5108,-1.5108,-1.5108,-1.5165,-1.5498,-1.6072,-1.6667,-1.7002,-1.7251,-1.7465,-1.7667,-1.7534,-1.7273,-1.6864,-1.6751,-1.6609,-1.6431,-1.6413,-1.6413,-1.6413,-1.6413,-1.6413,-1.6413,-1.6413,-1.6413,-1.6413,-1.6413,-1.6413,-1.6413,-1.6345,-1.622,-1.6114,-1.5555,-1.5079,-1.4835,-1.3606,-1.3299,-1.4256,-1.3891,-1.3546,-1.3379,-1.3431,-1.3572,-1.3681,-1.3572,-1.3572,-1.3681,-1.3572,-1.3492,-2.1167,-2.0481,0.0,-1.8883,-1.8447,0.0,-1.8074,-1.8043,-1.8054,-1.8084,-1.8084,-1.8084,-1.8084,-1.8077,-1.7894,-1.7476,-1.7361,-1.7128,-1.6598,-1.6187,-1.5889,-1.5843,-1.5406,-1.5108,-1.5108,-1.5367,-1.5546,-1.5546,-1.5891,-1.61,-1.6144,-1.6178,-1.6405,-1.6876,-1.6748,-1.692,-1.7395,-1.7342,-1.7451,-1.7706,-1.7356,-1.7204,-1.7214,-1.7269,-1.695,-1.6316,-1.5936,-1.5766,-1.5766,-1.558,-1.5487,-1.5539,-1.6101,-1.6349,-1.6414,-1.6606,-1.6672,-1.6659,-1.6362,-1.5957,-1.5591,-1.5591,-1.5367,-1.5108,-1.5108,-1.5108,-1.5108,-1.5108,-1.5784,-1.653,-1.6505,-1.6704,-1.6979,-1.7383,-1.7296,-1.7013,-1.6743,-1.6729,-1.6676,-1.6459,-1.6413,-1.6413,-1.6413,-1.6413,-1.6413,-1.6413,-1.6413,-1.6413,-1.6413,-1.6413,-1.6413,-1.6413,-1.6239,-1.6114,-1.6085,-1.5526,-1.5021,-1.4715,-1.3584,-1.2818,-1.2504,-1.2465,-1.2594,-1.2958,-1.3287,-1.347,-1.3492,-1.3492,-1.3492,-1.3492,-1.3492,-1.3492,-2.1637,-2.0449,0.0,0.0,-1.8093,-1.7612,-1.756,-1.7542,-1.7656,-1.8031,-1.8084,-1.8084,-1.8084,-1.779,-1.7534,-1.7419,-1.7048,-1.66,-1.6119,-1.5957,-1.5727,-1.5326,-1.5177,-1.5108,-1.5108,-1.5176,-1.5221,-1.5221,-1.5289,-1.5446,-1.5702,-1.6035,-1.6362,-1.6723,-1.6556,-1.6545,-1.6718,-1.6191,-1.6063,-1.6327,-1.634,-1.6172,-1.5855,-1.6324,-1.6295,-1.5826,-1.5655,-1.5562,-1.5562,-1.5524,-1.5487,-1.55,-1.563,-1.597,-1.6402,-1.6459,-1.6553,-1.6701,-1.6616,-1.6163,-1.5591,-1.5591,-1.5367,-1.5108,-1.5108,-1.5108,-1.5108,-1.5108,-1.5567,-1.6012,-1.5785,-1.5898,-1.603,-1.5905,-1.6111,-1.6254,-1.5991,-1.6238,-1.6459,-1.6402,-1.6413,-1.6413,-1.6413,-1.6413,-1.6413,-1.6413,-1.6413,-1.6413,-1.6413,-1.6413,-1.6413,-1.6413,-1.6374,-1.623,-1.5972,-1.5342,-1.4835,-1.4558,-1.3334,-1.2573,-1.2512,-1.224,-1.2259,-1.2587,-1.295,-1.3243,-1.3492,-1.3492,-1.3492,-1.3492,-1.3492,-1.3492,-2.1143,0.0,0.0,-1.8447,0.0,-1.7476,-1.7337,-1.7313,-1.7299,-1.7252,-1.7515,-1.7825,-1.8066,-1.7725,-1.7327,-1.706,-1.66,-1.6095,-1.559,-1.551,-1.5418,-1.512,-1.5108,-1.5108,-1.5108,-1.5108,-1.5108,-1.5108,-1.489,-1.4852,-1.5028,-1.5105,-1.5297,-1.5636,-1.5694,-1.5828,-1.6008,-1.5719,-1.5655,-1.5845,-1.5654,-1.5331,-1.4878,-1.5192,-1.5372,-1.5381,-1.4901,-1.4694,-1.4694,-1.4694,-1.4694,-1.4703,-1.4964,-1.5434,-1.5977,-1.6093,-1.6265,-1.6436,-1.625,-1.5822,-1.5367,-1.5367,-1.5244,-1.5108,-1.5108,-1.5108,-1.5062,-1.4949,-1.53,-1.5649,-1.5372,-1.5304,-1.529,-1.5149,-1.5526,-1.5871,-1.5745,-1.6081,-1.6413,-1.6413,-1.6413,-1.6413,-1.6413,-1.6413,-1.6413,-1.6413,-1.6413,-1.6413,-1.6413,-1.6413,-1.6413,-1.6413,-1.6306,-1.6163,-1.5914,-1.5507,-1.5059,-1.4529,-1.3825,-1.3227,-1.2758,-1.2567,-1.2503,-1.2511,-1.2994,-1.3323,-1.3492,-1.3492,-1.3492,-1.3492,-1.3492,-1.3492,-2.0645,0.0,-1.9288,-1.8117,-1.7763,0.0,-1.7401,-1.7285,-1.7059,-1.6518,-1.6852,-1.733,-1.772,-1.7341,-1.6836,-1.6404,-1.5862,-1.5366,-1.5005,-1.4971,-1.4994,-1.5062,-1.5005,-1.5016,-1.5096,-1.4947,-1.489,-1.4982,-1.4534,-1.4247,-1.4247,-1.4123,-1.4177,-1.4494,-1.4738,-1.5012,-1.5343,-1.5312,-1.5351,-1.5478,-1.5055,-1.4658,-1.43,-1.4254,-1.4492,-1.4873,-1.4119,-1.3804,-1.3804,-1.3754,-1.3725,-1.3777,-1.4167,-1.4681,-1.524,-1.5481,-1.5761,-1.5935,-1.57,-1.5367,-1.5108,-1.5108,-1.5108,-1.5108,-1.5108,-1.5108,-1.504,-1.4766,-1.5022,-1.5287,-1.4974,-1.4855,-1.4761,-1.4712,-1.5227,-1.567,-1.5587,-1.6029,-1.6413,-1.6413,-1.6413,-1.6413,-1.6413,-1.6413,-1.6413,-1.6413,-1.6413,-1.6413,-1.6413,-1.6374,-1.6345,-1.6345,-1.621,-1.6038,-1.5885,-1.5798,-1.543,-1.4706,-1.444,-1.397,-1.3188,-1.3003,-1.2816,-1.2599,-1.3133,-1.344,-1.3492,-1.3492,-1.3492,-1.3492,-1.3492,-1.3492,0.0,0.0,-1.8522,0.0,-1.8058,-1.8232,0.0,-1.7591,-1.7131,-1.6952,-1.6666,-1.6465,-1.6518,-1.5863,-1.5316,-1.5226,-1.4475,-1.3992,-1.428,-1.4419,-1.4605,-1.488,-1.4663,-1.4649,-1.5062,-1.4316,-1.3983,-1.4454,-1.3994,-1.3696,-1.3696,-1.3952,-1.4205,-1.4494,-1.4381,-1.4428,-1.4716,-1.4262,-1.4078,-1.4162,-1.4266,-1.4303,-1.4287,-1.4127,-1.4072,-1.4123,-1.3901,-1.3804,-1.3788,-1.3556,-1.3442,-1.3438,-1.3213,-1.3499,-1.4069,-1.4513,-1.4833,-1.5123,-1.5481,-1.5367,-1.5108,-1.5108,-1.5108,-1.5108,-1.5108,-1.5108,-1.504,-1.4766,-1.4753,-1.4704,-1.4271,-1.4438,-1.4648,-1.4414,-1.5044,-1.5577,-1.5173,-1.5773,-1.6413,-1.6413,-1.6413,-1.6413,-1.6413,-1.6413,-1.6413,-1.6413,-1.6413,-1.6413,-1.6413,-1.6249,-1.6142,-1.6142,-1.6114,-1.6009,-1.5759,-1.5827,-1.5701,-1.5294,-1.4252,-1.3704,-1.387,-1.3018,-1.2674,-1.2936,-1.3031,-1.3214,-1.3492,-1.3492,-1.3492,-1.3492,-1.3492,-1.3492,-2.188,-1.9814,-1.8351,0.0,-1.8487,-1.8383,-1.7429,-1.6988,-1.6511,-1.5473,-1.5096,-1.5153,-1.5855,-1.5428,-1.4925,-1.4701,-1.4069,-1.3658,-1.3847,-1.388,-1.3947,-1.4149,-1.3999,-1.3987,-1.4235,-1.3857,-1.3705,-1.3925,-1.3498,-1.321,-1.321,-1.3212,-1.3273,-1.3385,-1.3626,-1.3799,-1.3938,-1.3875,-1.3871,-1.3904,-1.399,-1.4023,-1.4023,-1.3927,-1.3931,-1.4,-1.3858,-1.3804,-1.3788,-1.3522,-1.3408,-1.3374,-1.303,-1.3262,-1.3859,-1.4325,-1.4663,-1.4964,-1.5445,-1.5367,-1.5108,-1.5108,-1.5108,-1.5108,-1.5108,-1.5108,-1.5017,-1.4628,-1.4535,-1.443,-1.3915,-1.4118,-1.4439,-1.4339,-1.5018,-1.5628,-1.5432,-1.5908,-1.6413,-1.6413,-1.6413,-1.6413,-1.6413,-1.6413,-1.6413,-1.6413,-1.6413,-1.6374,-1.6249,-1.6142,-1.6056,-1.599,-1.599,-1.5904,-1.5711,-1.541,-1.5128,-1.4913,-1.4013,-1.3583,-1.3713,-1.329,-1.3131,-1.3272,-1.3279,-1.3353,-1.3492,-1.3492,-1.3492,-1.3492,-1.3492,-1.3492,0.0,0.0,-1.8627,-1.8851,-1.897,-1.8655,-1.7157,-1.6736,-1.6218,-1.4601,-1.4259,-1.4421,-1.4969,-1.472,-1.4306,-1.4008,-1.3443,-1.3131,-1.3338,-1.3228,-1.3247,-1.352,-1.3401,-1.3385,-1.3581,-1.3383,-1.3279,-1.3417,-1.2969,-1.2712,-1.2712,-1.2516,-1.2437,-1.2508,-1.2948,-1.3242,-1.3408,-1.3725,-1.3871,-1.3871,-1.3871,-1.3821,-1.3704,-1.3704,-1.3745,-1.3852,-1.3808,-1.3804,-1.3771,-1.3425,-1.3271,-1.3224,-1.2843,-1.298,-1.3441,-1.4063,-1.4397,-1.4659,-1.5255,-1.53,-1.5085,-1.5017,-1.4994,-1.4994,-1.4949,-1.4926,-1.4834,-1.443,-1.4378,-1.4348,-1.3736,-1.4138,-1.4624,-1.4511,-1.5194,-1.5894,-1.5894,-1.6164,-1.6413,-1.6413,-1.6413,-1.6413,-1.6413,-1.6413,-1.6413,-1.6413,-1.6288,-1.6134,-1.5912,-1.5729,-1.5555,-1.5362,-1.5332,-1.5274,-1.5157,-1.4706,-1.4401,-1.4261,-1.3623,-1.3308,-1.3503,-1.3335,-1.3328,-1.3521,-1.3492,-1.3492,-1.3492,-1.3492,-1.3492,-1.3492,-1.3492,-1.3492,0.0,-2.0715,0.0,-1.9246,-1.946,-1.9384,-1.7957,-1.7407,-1.68,-1.5574,-1.5226,-1.4783,-1.3654,-1.3081,-1.2811,-1.2793,-1.212,-1.1893,-1.2643,-1.2436,-1.2484,-1.331,-1.3008,-1.2958,-1.3547,-1.2739,-1.2383,-1.2889,-1.2429,-1.213,-1.213,-1.2125,-1.224,-1.249,-1.2526,-1.2826,-1.3391,-1.3674,-1.3804,-1.3804,-1.3804,-1.3674,-1.3425,-1.3425,-1.3425,-1.3442,-1.3691,-1.3804,-1.3754,-1.3168,-1.2931,-1.2861,-1.2347,-1.2161,-1.2311,-1.3285,-1.3665,-1.3818,-1.4786,-1.5108,-1.5062,-1.4789,-1.472,-1.4685,-1.4489,-1.4443,-1.4384,-1.4114,-1.4339,-1.451,-1.3782,-1.4614,-1.5504,-1.507,-1.567,-1.6371,-1.6371,-1.6392,-1.6413,-1.6413,-1.6413,-1.6413,-1.6413,-1.6413,-1.6413,-1.6413,-1.6029,-1.5614,-1.5294,-1.4688,-1.4174,-1.3858,-1.3798,-1.3747,-1.3623,-1.3696,-1.3687,-1.3571,-1.2917,-1.283,-1.347,-1.2882,-1.286,-1.3484,-1.3492,-1.3492,-1.3492,-1.3492,-1.3492,-1.3492,-1.3492,-1.3492,0.0,0.0,0.0,-1.9363,-1.956,-1.9579,-1.8255,-1.749,-1.6708,-1.5407,-1.4801,-1.4157,-1.3119,-1.302,-1.2836,-1.2064,-1.1697,-1.1514,-1.1546,-1.1339,-1.1339,-1.1753,-1.1759,-1.1864,-1.2213,-1.2091,-1.2096,-1.2371,-1.2199,-1.2095,-1.2095,-1.2095,-1.215,-1.2228,-1.2419,-1.2791,-1.3391,-1.3674,-1.3804,-1.3804,-1.3804,-1.3657,-1.3408,-1.3408,-1.3276,-1.3069,-1.3185,-1.334,-1.3506,-1.2896,-1.265,-1.2615,-1.2228,-1.2095,-1.221,-1.3233,-1.3593,-1.373,-1.4752,-1.5108,-1.5062,-1.4789,-1.4708,-1.4662,-1.4466,-1.4396,-1.4326,-1.4091,-1.4113,-1.4225,-1.4073,-1.4656,-1.5359,-1.5811,-1.6174,-1.6413,-1.6413,-1.6413,-1.6413,-1.6413,-1.6413,-1.6413,-1.6413,-1.6413,-1.6413,-1.6413,-1.6259,-1.5865,-1.5099,-1.4796,-1.4382,-1.3644,-1.3584,-1.3563,-1.3511,-1.3152,-1.2901,-1.2848,-1.2282,-1.2122,-1.251,-1.2502,-1.2594,-1.2862,-1.3075,-1.3287,-1.3492,-1.3492,-1.3492,-1.3492,-1.3492,-1.3492,-2.192,0.0,0.0,0.0,-2.0009,-1.9787,-1.8694,-1.7891,-1.7042,-1.5918,-1.5003,-1.4164,-1.3408,-1.317,-1.2799,-1.1838,-1.1476,-1.1246,-1.1108,-1.0738,-1.0569,-1.0806,-1.0923,-1.1105,-1.1367,-1.1619,-1.1851,-1.2016,-1.2077,-1.2095,-1.2095,-1.2095,-1.2095,-1.2095,-1.2455,-1.2826,-1.3237,-1.3607,-1.3804,-1.3804,-1.3804,-1.3657,-1.3408,-1.3276,-1.3104,-1.2878,-1.272,-1.2861,-1.319,-1.2703,-1.2508,-1.2473,-1.2192,-1.2095,-1.221,-1.3233,-1.3593,-1.373,-1.4752,-1.5108,-1.504,-1.4708,-1.4593,-1.4535,-1.4233,-1.414,-1.4093,-1.3915,-1.3984,-1.4094,-1.4059,-1.4531,-1.5235,-1.6184,-1.6413,-1.6413,-1.6413,-1.6413,-1.6374,-1.6306,-1.6306,-1.6288,-1.623,-1.623,-1.623,-1.623,-1.6105,-1.571,-1.4923,-1.4501,-1.3986,-1.3252,-1.2986,-1.2873,-1.2873,-1.2436,-1.2182,-1.2182,-1.1833,-1.1738,-1.1989,-1.2207,-1.2375,-1.2485,-1.2731,-1.295,-1.317,-1.3279,-1.3389,-1.3492,-1.3492,-1.3492,0.0,0.0,0.0,0.0,-2.0785,-2.0006,-1.9266,-1.8576,-1.7857,-1.7135,-1.5918,-1.4875,-1.4447,-1.3473,-1.2586,-1.2165,-1.143,-1.1058,-1.1439,-1.0627,-1.0181,-1.0633,-1.0627,-1.0736,-1.1142,-1.1367,-1.1601,-1.1863,-1.2016,-1.2084,-1.2072,-1.2072,-1.2072,-1.2095,-1.2615,-1.2878,-1.2878,-1.3489,-1.3771,-1.3771,-1.3788,-1.3641,-1.3357,-1.3052,-1.2896,-1.2843,-1.2318,-1.2389,-1.2861,-1.2597,-1.249,-1.2473,-1.2192,-1.2095,-1.221,-1.3233,-1.3593,-1.373,-1.473,-1.5085,-1.4994,-1.4535,-1.4384,-1.428,-1.3763,-1.3597,-1.3597,-1.3597,-1.3917,-1.419,-1.3741,-1.4345,-1.5266,-1.6195,-1.6413,-1.6413,-1.6413,-1.6413,-1.6345,-1.6114,-1.6075,-1.6028,-1.5875,-1.5827,-1.5827,-1.5827,-1.5449,-1.505,-1.4677,-1.3674,-1.2856,-1.2512,-1.195,-1.1591,-1.1591,-1.1591,-1.1591,-1.1591,-1.1591,-1.1731,-1.1974,-1.1996,-1.2149,-1.2489,-1.247,-1.2477,-1.2477,-1.2833,-1.3155,-1.347,-1.3477,-1.3477,-2.2121,0.0,0.0,0.0,0.0,0.0,-1.8995,-1.8093,-1.7349,-1.676,-1.5925,-1.4987,-1.3995,-1.3561,-1.3077,-1.224,-1.1669,-1.1274,-1.1081,-1.0585,-1.0266,-1.0398,-1.0297,-1.0312,-1.0525,-1.0992,-1.1367,-1.159,-1.1833,-1.182,-1.1532,-1.1509,-1.1698,-1.2102,-1.2437,-1.2615,-1.2615,-1.2965,-1.3151,-1.3138,-1.3391,-1.3242,-1.2756,-1.3104,-1.2913,-1.2318,-1.2365,-1.2354,-1.233,-1.2228,-1.2204,-1.2192,-1.2131,-1.2095,-1.221,-1.3233,-1.347,-1.3451,-1.4474,-1.472,-1.4535,-1.4221,-1.4114,-1.4057,-1.3692,-1.3597,-1.3597,-1.3597,-1.369,-1.3931,-1.448,-1.5308,-1.6091,-1.635,-1.6413,-1.6413,-1.6413,-1.6413,-1.622,-1.5555,-1.5439,-1.5255,-1.4628,-1.4519,-1.4519,-1.4519,-1.4421,-1.4094,-1.3403,-1.3039,-1.2589,-1.1919,-1.1709,-1.1591,-1.1591,-1.1591,-1.1591,-1.1591,-1.1591,-1.1635,-1.1716,-1.1911,-1.1937,-1.1863,-1.205,-1.2109,-1.1977,-1.2429,-1.2701,-1.2797,-1.3031,-1.314,0.0,0.0,0.0,0.0,0.0,0.0,-1.9562,-1.8656,-1.7817,-1.7315,-1.632,-1.5303,-1.4602,-1.4097,-1.3549,-1.2832,-1.2397,-1.1912,-1.1246,-1.0605,-1.0228,-1.0228,-0.9993,-0.9971,-1.0312,-1.0745,-1.118,-1.1593,-1.1808,-1.171,-1.132,-1.1302,-1.144,-1.1756,-1.2248,-1.2508,-1.2508,-1.2773,-1.2896,-1.2896,-1.3087,-1.3,-1.2685,-1.2913,-1.2756,-1.2276,-1.2312,-1.2228,-1.2095,-1.2095,-1.2095,-1.2095,-1.2095,-1.2048,-1.2082,-1.3074,-1.3285,-1.3221,-1.4226,-1.4489,-1.4361,-1.408,-1.3997,-1.3949,-1.3692,-1.3597,-1.3597,-1.3597,-1.3597,-1.3762,-1.4521,-1.5111,-1.5608,-1.6029,-1.6122,-1.6136,-1.6236,-1.6278,-1.6124,-1.5671,-1.5313,-1.4923,-1.4392,-1.4004,-1.3795,-1.3795,-1.3795,-1.3614,-1.3161,-1.2856,-1.2489,-1.2042,-1.174,-1.1591,-1.1591,-1.1591,-1.1591,-1.1591,-1.1591,-1.1591,-1.1591,-1.1736,-1.1719,-1.1466,-1.1648,-1.1646,-1.1518,-1.197,-1.2227,-1.2289,-1.2647,-1.2773,-2.281,-2.2224,0.0,0.0,-2.1188,0.0,-2.0472,-1.9674,-1.8812,-1.8318,-1.7008,-1.5916,-1.5787,-1.4907,-1.4084,-1.3742,-1.3416,-1.2816,-1.1775,-1.0848,-1.0239,-1.0185,-0.9842,-0.9799,-1.0312,-1.0572,-1.0992,-1.1678,-1.1788,-1.1689,-1.132,-1.1257,-1.1245,-1.1302,-1.2001,-1.2396,-1.2443,-1.2685,-1.2808,-1.2808,-1.2843,-1.2843,-1.2808,-1.2632,-1.2508,-1.2443,-1.224,-1.2131,-1.2095,-1.2095,-1.2095,-1.2095,-1.2095,-1.1975,-1.1916,-1.2865,-1.3057,-1.3031,-1.4023,-1.4326,-1.428,-1.4033,-1.3973,-1.3915,-1.3668,-1.3597,-1.3597,-1.3597,-1.3604,-1.3714,-1.4126,-1.4234,-1.4456,-1.5303,-1.5529,-1.5618,-1.5865,-1.593,-1.5902,-1.5902,-1.5303,-1.4678,-1.4401,-1.3773,-1.3299,-1.3299,-1.3299,-1.3299,-1.3299,-1.2765,-1.2389,-1.2389,-1.1919,-1.1591,-1.1591,-1.1591,-1.1591,-1.1591,-1.1591,-1.1591,-1.1591,-1.1591,-1.1466,-1.1303,-1.1272,-1.1185,-1.1059,-1.1493,-1.1777,-1.1912,-1.2251,-1.2404,-2.3288,-2.2905,-2.2525,-2.2034,-2.1467,0.0,-2.0306,-1.9723,-1.9109,-1.8414,-1.7862,-1.7183,-1.6278,-1.5688,-1.5139,-1.4447,-1.4339,-1.3913,-1.2657,-1.1743,-1.11,-1.0783,-1.0398,-1.0145,-1.0156,-1.0495,-1.0886,-1.1356,-1.1415,-1.1383,-1.1297,-1.0936,-1.0901,-1.1291,-1.1446,-1.1734,-1.2174,-1.224,-1.2258,-1.2258,-1.2473,-1.2473,-1.2276,-1.265,-1.2597,-1.2204,-1.2347,-1.2312,-1.2095,-1.2095,-1.2095,-1.2095,-1.2095,-1.2004,-1.1994,-1.2865,-1.2994,-1.2872,-1.3782,-1.3939,-1.3763,-1.3692,-1.3692,-1.3668,-1.3621,-1.3597,-1.3597,-1.3597,-1.365,-1.3696,-1.3776,-1.386,-1.3944,-1.4119,-1.4429,-1.4665,-1.4714,-1.4763,-1.4824,-1.4824,-1.4323,-1.3567,-1.2405,-1.2081,-1.1957,-1.1957,-1.1957,-1.1957,-1.1957,-1.1864,-1.1771,-1.1771,-1.1685,-1.1591,-1.1591,-1.1591,-1.1591,-1.1591,-1.1591,-1.1591,-1.1591,-1.1428,-1.1341,-1.1303,-1.1028,-1.087,-1.087,-1.1122,-1.1241,-1.128,-1.1558,-1.184,-2.3724,-2.338,-2.2991,-2.2552,-2.2096,0.0,0.0,-2.036,-1.9728,-1.9126,-1.8598,-1.7893,-1.6757,-1.6695,-1.6431,-1.5325,-1.5186,-1.4887,-1.3978,-1.3158,-1.2353,-1.1539,-1.1088,-1.0738,-1.0433,-1.0716,-1.1116,-1.1511,-1.1396,-1.1302,-1.1302,-1.1073,-1.1062,-1.1302,-1.1561,-1.1842,-1.2095,-1.2095,-1.2095,-1.2095,-1.224,-1.224,-1.2113,-1.2383,-1.2347,-1.2113,-1.2228,-1.2222,-1.2095,-1.2095,-1.2095,-1.2095,-1.2095,-1.2004,-1.1957,-1.2744,-1.2868,-1.2754,-1.3542,-1.3716,-1.3597,-1.3597,-1.3597,-1.3597,-1.3597,-1.3597,-1.3597,-1.3597,-1.3476,-1.3343,-1.3343,-1.3235,-1.3211,-1.3411,-1.3603,-1.3758,-1.3774,-1.3839,-1.3728,-1.3333,-1.3033,-1.2704,-1.2258,-1.1864,-1.1591,-1.1591,-1.1591,-1.1591,-1.1591,-1.1591,-1.1591,-1.1591,-1.1591,-1.1591,-1.1591,-1.1591,-1.1591,-1.1591,-1.1591,-1.1591,-1.1591,-1.1498,-1.1373,-1.1216,-1.087,-1.0713,-1.0713,-1.0814,-1.0846,-1.0846,-1.1149,-1.1437,-2.4095,-2.3658,-2.3207,-2.3177,-2.2688,-2.2177,0.0,0.0,0.0,-2.0008,-1.9361,-1.8506,-1.7319,-1.7417,-1.733,-1.6283,-1.6028,-1.5782,-1.5319,-1.4742,-1.3835,-1.2375,-1.1885,-1.1482,-1.0981,-1.1171,-1.1448,-1.1686,-1.1552,-1.1405,-1.1291,-1.1285,-1.1302,-1.1302,-1.1721,-1.1992,-1.2095,-1.2095,-1.2095,-1.2095,-1.2095,-1.2095,-1.2095,-1.2095,-1.2095,-1.2095,-1.2095,-1.2095,-1.2095,-1.2059,-1.2041,-1.2041,-1.2041,-1.1977,-1.1953,-1.2505,-1.27,-1.2775,-1.3296,-1.3514,-1.3597,-1.3597,-1.3597,-1.3597,-1.3597,-1.3597,-1.3586,-1.3515,-1.3194,-1.288,-1.2798,-1.2525,-1.2333,-1.2607,-1.2746,-1.2781,-1.2788,-1.2805,-1.2603,-1.2036,-1.1872,-1.1974,-1.2472,-1.2042,-1.1591,-1.1591,-1.1591,-1.1591,-1.1591,-1.1591,-1.1591,-1.1591,-1.1591,-1.1591,-1.1591,-1.1591,-1.1591,-1.1591,-1.1591,-1.1591,-1.1591,-1.1529,-1.1373,-1.1059,-1.0751,-1.0593,-1.0593,-1.0593,-1.0593,-1.0624,-1.0877,-1.1134,-2.4294,-2.3612,-2.3085,-2.3656,-2.2914,-2.2207,-2.2869,0.0,-2.1799,-2.0801,0.0,-1.9452,-1.8127,0.0,0.0,-1.7186,-1.7017,-1.6685,-1.6213,-1.6332,-1.5568,-1.3169,-1.274,-1.2412,-1.1817,-1.1798,-1.1696,-1.1384,-1.1752,-1.1781,-1.1251,-1.128,-1.1302,-1.1302,-1.136,-1.1618,-1.2102,-1.2095,-1.2095,-1.2095,-1.2095,-1.2095,-1.2095,-1.2095,-1.2095,-1.2095,-1.2095,-1.2095,-1.2095,-1.1902,-1.1829,-1.1829,-1.1829,-1.2005,-1.2221,-1.2064,-1.2457,-1.3032,-1.2991,-1.3245,-1.3597,-1.3597,-1.3597,-1.3597,-1.3597,-1.3597,-1.3515,-1.317,-1.2817,-1.2471,-1.2116,-1.1719,-1.1385,-1.1201,-1.1385,-1.1531,-1.1315,-1.13,-1.1399,-1.1603,-1.1405,-1.133,-1.1657,-1.1654,-1.1591,-1.1591,-1.1591,-1.1591,-1.1591,-1.1591,-1.1591,-1.1591,-1.1591,-1.1591,-1.1591,-1.1591,-1.1591,-1.1591,-1.1591,-1.1591,-1.1591,-1.131,-1.1059,-1.0839,-1.0681,-1.0593,-1.0593,-1.0593,-1.0593,-1.0593,-1.0656,-1.0799,-2.4471,-2.3675,-2.3041,-2.3875,-2.3159,-2.2507,-2.3415,-2.2835,-2.1982,-2.1445,0.0,0.0,0.0,0.0,0.0,0.0,-1.7735,-1.7787,-1.7201,-1.6836,-1.5922,-1.4031,-1.377,-1.3452,-1.2778,-1.2537,-1.2303,-1.2031,-1.2282,-1.2251,-1.1748,-1.1975,-1.2023,-1.1767,-1.1756,-1.1859,-1.2095,-1.2095,-1.2095,-1.2095,-1.2095,-1.2095,-1.2095,-1.2095,-1.2095,-1.2095,-1.2095,-1.2029,-1.192,-1.1829,-1.1719,-1.1608,-1.1501,-1.1776,-1.2252,-1.2303,-1.268,-1.3172,-1.3273,-1.3431,-1.3597,-1.3597,-1.3597,-1.3597,-1.3597,-1.3597,-1.3515,-1.3112,-1.2628,-1.2123,-1.1769,-1.1242,-1.0794,-1.0693,-1.0788,-1.0789,-1.0486,-1.0443,-1.0508,-1.0701,-1.0775,-1.0924,-1.1254,-1.1467,-1.1591,-1.1591,-1.1591,-1.1591,-1.1591,-1.1591,-1.1591,-1.1591,-1.1591,-1.1591,-1.1591,-1.1591,-1.1591,-1.1591,-1.1498,-1.1435,-1.1435,-1.109,-1.0902,-1.0807,-1.0688,-1.0593,-1.0593,-1.0593,-1.0593,-1.0593,-1.0593,-1.0747,-2.4155,-2.3422,-2.2795,-2.3695,-2.3115,-2.2493,-2.3164,-2.2543,-2.1811,-2.1735,-2.0924,0.0,0.0,0.0,-1.9337,-1.8248,0.0,-1.8503,-1.8027,-1.7119,-1.6061,-1.496,-1.4443,-1.3934,-1.3272,-1.2937,-1.2615,-1.2189,-1.2509,-1.251,-1.2075,-1.2327,-1.2368,-1.211,-1.2055,-1.2059,-1.2095,-1.2095,-1.2095,-1.2095,-1.2095,-1.2095,-1.2095,-1.2095,-1.2095,-1.2095,-1.2095,-1.1986,-1.1792,-1.1737,-1.159,-1.1407,-1.1331,-1.168,-1.2227,-1.2297,-1.2731,-1.3328,-1.3398,-1.3483,-1.3597,-1.3597,-1.3597,-1.3597,-1.3597,-1.3597,-1.3491,-1.3001,-1.2482,-1.1965,-1.1469,-1.0947,-1.0522,-1.0385,-1.036,-1.029,-0.9966,-0.9888,-0.9933,-1.0065,-1.0368,-1.0726,-1.1048,-1.1379,-1.1591,-1.1591,-1.1591,-1.1591,-1.1591,-1.1591,-1.1591,-1.1591,-1.1591,-1.1591,-1.1591,-1.1591,-1.1591,-1.1529,-1.1341,-1.1247,-1.1247,-1.0965,-1.0807,-1.0807,-1.0688,-1.0593,-1.0593,-1.0593,-1.0593,-1.0593,-1.0593,-1.0707,-2.3084,-2.2712,-2.2229,-2.3027,-2.2511,-2.183,-2.1857,-2.1635,-2.1442,-2.1507,-2.1123,-2.0741,-2.0629,-1.9966,0.0,0.0,0.0,0.0,0.0,-1.7363,-1.629,-1.5993,-1.4571,-1.3447,-1.3049,-1.2825,-1.2325,-1.141,-1.2181,-1.2477,-1.1943,-1.1933,-1.1982,-1.2101,-1.1979,-1.1961,-1.2095,-1.2095,-1.2095,-1.2095,-1.2095,-1.2095,-1.2095,-1.2095,-1.2095,-1.2095,-1.2095,-1.1986,-1.1774,-1.159,-1.1378,-1.1227,-1.1484,-1.1871,-1.2224,-1.1799,-1.2462,-1.3527,-1.307,-1.3214,-1.3597,-1.3597,-1.3597,-1.3597,-1.3597,-1.3597,-1.3454,-1.2715,-1.2397,-1.2076,-1.115,-1.0794,-1.059,-1.0128,-1.0025,-0.994,-0.9666,-0.9614,-0.9709,-1.0038,-1.0368,-1.0726,-1.1048,-1.1379,-1.1591,-1.1591,-1.1591,-1.1591,-1.1591,-1.1591,-1.1591,-1.1591,-1.1591,-1.1591,-1.1591,-1.1591,-1.1529,-1.1334,-1.1185,-1.1122,-1.1122,-1.0902,-1.0807,-1.0807,-1.0688,-1.0593,-1.0593,-1.0593,-1.0593,-1.0593,-1.0593,-1.0593,-2.2171,-2.1596,-2.1287,-2.2716,-2.1957,-2.12,-2.2427,-2.1762,-2.0881,-2.0898,-2.0599,-2.0293,-2.0129,-2.0483,0.0,0.0,0.0,0.0,0.0,-1.7951,-1.6699,-1.5894,-1.5133,-1.4539,-1.4281,-1.4193,-1.3941,-1.3443,-1.37,-1.3726,-1.3301,-1.3506,-1.329,-1.253,-1.2456,-1.2309,-1.2095,-1.2095,-1.2095,-1.2095,-1.2095,-1.2095,-1.2095,-1.2095,-1.2095,-1.2095,-1.2095,-1.1902,-1.159,-1.1534,-1.1303,-1.1016,-1.1104,-1.1602,-1.2296,-1.242,-1.2936,-1.3542,-1.3118,-1.324,-1.3563,-1.329,-1.3386,-1.3539,-1.329,-1.3194,-1.3016,-1.2092,-1.1644,-1.1259,-1.0506,-1.0146,-0.9932,-0.9777,-0.9725,-0.9725,-0.9614,-0.9588,-0.9709,-1.0038,-1.0368,-1.0726,-1.1048,-1.1379,-1.1591,-1.1591,-1.1591,-1.1591,-1.1591,-1.1591,-1.1591,-1.1591,-1.1591,-1.156,-1.1397,-1.131,-1.1247,-1.1185,-1.0996,-1.0902,-1.0902,-1.0744,-1.0688,-1.0688,-1.0624,-1.0593,-1.0593,-1.0593,-1.0593,-1.0593,-1.0593,-1.0593,-2.1164,-2.082,-2.0675,-2.1795,-2.1027,-2.0305,-2.1559,-2.0757,-1.9918,-2.0473,-2.0648,-2.0635,-2.0382,-2.1319,0.0,0.0,0.0,0.0,0.0,-1.803,-1.6923,-1.5896,-1.542,-1.5085,-1.4858,-1.4764,-1.4655,-1.4496,-1.4581,-1.4577,-1.4401,-1.4383,-1.3972,-1.3044,-1.2814,-1.251,-1.2095,-1.2095,-1.2095,-1.2095,-1.2095,-1.2095,-1.2095,-1.2095,-1.2059,-1.1993,-1.1993,-1.17,-1.1217,-1.1217,-1.101,-1.0768,-1.1093,-1.1665,-1.2339,-1.2586,-1.3082,-1.3563,-1.329,-1.329,-1.3338,-1.3088,-1.3098,-1.3166,-1.2914,-1.2808,-1.2647,-1.1744,-1.1318,-1.0939,-1.0205,-0.9836,-0.9647,-0.9614,-0.9588,-0.9588,-0.9588,-0.9588,-0.9709,-1.0038,-1.0368,-1.0726,-1.1048,-1.1379,-1.1591,-1.1591,-1.1591,-1.1591,-1.1591,-1.1591,-1.1591,-1.1591,-1.1591,-1.1529,-1.1334,-1.1122,-1.0996,-1.0996,-1.0839,-1.0713,-1.0713,-1.0656,-1.0593,-1.0593,-1.0593,-1.0593,-1.0593,-1.0593,-1.0593,-1.0593,-1.0593,-1.0593]},{"header":{"parameterUnit":"m.s-1","parameterCategory":1,"la1":30.6,"la2":29.2853,"lo1":-89.7004,"lo2":-87.6739,"dy":0.0162,"dx":0.0183,"nx":112,"ny":82,"refTime":"2026-03-22T00:00:00:Z","depth":0,"parameterNumber":3,"parameterNumberName":"V-component_of_WINDS"},"data":[0.0,0.0,0.0,0.0,0.0,0.0,0.0,0.0,0.0,0.0,0.0,0.0,0.0,0.0,0.0,0.0,0.0,0.0,0.0,0.0,0.0,0.0,0.0,0.0,0.0,0.0,0.0,0.0,0.0,0.0,0.0,0.0,0.0,0.0,0.0,0.0,0.0,0.0,0.0,0.0,0.0,0.0,0.0,0.0,0.0,0.0,0.0,0.0,0.0,0.0,0.0,0.0,0.0,0.0,0.0,0.0,0.0,0.0,0.0,0.0,0.0,0.0,0.0,0.0,0.0,0.0,0.0,0.0,0.0,0.0,0.0,0.0,0.0,0.0,0.0,0.0,0.0,0.0,0.0,0.0,0.0,0.0,0.0,0.0,0.0,0.0,0.0,0.0,0.0,0.0,0.7738,0.7145,0.6634,0.6333,0.6379,0.6333,0.6265,0.6094,0.0,0.0,0.0,0.0,0.0,0.0,0.0,0.0,0.0,0.0,0.0,0.0,0.0,0.0,0.0,0.0,0.0,0.0,0.0,0.0,0.0,0.0,0.0,0.0,0.0,0.0,0.0,0.0,0.0,0.0,0.0,0.0,0.0,0.0,0.0,0.0,0.0,0.0,0.0,0.0,0.0,0.0,0.0,0.0,0.0,0.0,0.0,0.0,0.0,0.0,0.0,0.0,0.0,0.0,0.0,0.0,0.0,0.0,0.0,0.0,0.0,0.0,0.0,0.0,0.0,0.0,0.0,0.0,0.0,0.0,0.0,0.0,0.0,0.0,0.0,0.0,0.0,0.0,0.0,0.0,0.0,0.0,0.0,0.0,0.0,0.0,0.0,0.0,0.0,0.0,0.0,0.0,0.0,0.0,0.0,0.0,0.0,0.0,0.0,0.0,0.0,0.0,0.0,0.0,0.8142,0.7518,0.6816,0.6368,0.6384,0.6333,0.6265,0.6094,0.0,0.0,0.0,0.0,0.0,0.0,0.0,0.0,0.0,0.0,0.0,0.0,0.0,0.0,0.0,0.0,0.0,0.0,0.0,0.0,0.0,0.0,0.0,0.0,0.0,0.0,0.0,0.0,0.0,0.0,0.0,0.0,0.0,0.0,0.0,0.0,0.0,0.0,0.0,0.0,0.0,0.0,0.0,0.0,0.0,0.0,0.0,0.0,0.0,0.0,0.0,0.0,0.0,0.0,0.0,0.0,0.0,0.0,0.0,0.0,0.0,0.0,0.0,0.0,0.0,0.0,0.0,0.0,0.0,0.0,0.0,0.0,0.0,0.0,0.0,0.0,0.0,0.0,0.0,0.0,0.0,0.0,0.0,0.0,0.0,0.0,0.0,0.0,0.0,0.0,0.0,0.0,0.0,0.0,0.0,0.0,0.0,0.0,0.0,0.0,0.0,0.0,0.0,0.9899,0.8819,0.7962,0.7392,0.6883,0.6437,0.6333,0.6265,0.6094,0.5969,0.0,0.0,0.0,0.0,0.0,0.0,0.0,0.0,0.0,0.0,0.0,0.0,0.0,0.0,0.0,0.0,0.0,0.0,0.0,0.0,0.0,0.0,0.0,0.0,0.0,0.0,0.0,0.0,0.0,0.0,0.0,0.0,0.0,0.0,0.0,0.0,0.0,0.0,0.0,0.0,0.0,0.0,0.0,0.0,0.0,0.0,0.0,0.0,0.0,0.0,0.0,0.0,0.0,0.0,0.0,0.0,0.0,0.0,0.0,0.0,0.0,0.0,0.0,0.0,0.0,0.0,0.0,0.0,0.0,0.0,0.0,0.0,0.0,0.0,0.0,0.0,0.0,0.0,0.0,0.0,0.0,0.0,0.0,0.0,0.0,0.0,0.0,0.0,0.0,0.0,0.0,0.0,0.0,0.0,0.0,0.0,0.0,0.0,0.0,0.0,0.0,0.0,1.0879,0.9856,0.9076,0.8441,0.7826,0.7229,0.6966,0.6693,0.6422,0.6247,0.0,0.0,0.0,0.0,0.0,0.0,0.0,0.0,0.0,0.0,0.0,0.0,0.0,0.0,0.0,0.0,0.0,0.0,0.0,0.0,0.0,0.0,0.0,0.0,0.0,0.0,0.0,0.0,0.0,0.0,0.0,0.0,0.0,0.0,0.0,0.0,0.0,0.0,0.0,0.0,0.0,0.0,0.0,0.0,0.0,0.0,0.0,0.0,0.0,0.0,0.0,0.0,0.0,0.0,0.0,0.0,0.0,0.0,0.0,0.0,0.0,0.0,0.0,0.0,0.0,0.0,0.0,0.0,0.0,0.0,0.0,0.0,0.0,0.0,0.0,0.0,0.0,0.0,0.0,0.0,0.0,0.0,0.0,0.0,0.0,0.0,0.0,0.0,0.0,0.0,0.0,0.0,0.0,0.0,0.0,0.0,0.0,0.0,0.0,0.0,0.0,0.0,1.1793,1.1393,1.1347,1.0235,0.946,0.9361,0.8762,0.8027,0.7271,0.703,0.0,0.0,0.0,0.0,0.0,0.0,0.0,0.0,0.0,0.0,0.0,0.0,0.0,0.0,0.0,0.0,0.0,0.0,0.0,0.0,0.0,0.0,0.0,0.0,0.0,0.0,0.0,0.0,0.0,0.0,0.0,0.0,0.0,0.0,0.0,0.0,0.0,0.0,0.0,0.0,0.0,0.0,0.0,0.0,0.0,0.0,0.0,0.0,0.0,0.0,0.0,0.0,0.0,0.0,0.0,0.0,0.0,0.0,0.0,0.0,0.0,0.0,0.0,0.0,0.0,0.0,0.0,0.0,0.0,0.0,0.0,0.0,0.0,0.0,0.0,0.0,0.0,0.0,0.0,0.0,0.0,0.0,0.0,0.0,0.0,0.0,0.0,0.0,0.0,0.0,0.0,0.0,0.0,0.0,0.0,0.0,0.0,0.0,0.0,0.0,0.0,0.0,1.2495,1.207,1.205,1.1317,1.0582,0.9921,0.9604,0.9064,0.8234,0.0,0.0,0.0,0.0,0.0,0.0,0.0,0.0,0.0,0.0,0.0,0.0,0.0,0.0,0.0,0.0,0.0,0.0,0.0,0.0,0.0,0.0,0.0,0.0,0.0,0.0,0.0,0.0,0.0,0.0,0.0,0.0,0.0,0.0,0.0,0.0,0.0,0.0,0.0,0.0,0.0,0.0,0.0,0.0,0.0,0.0,0.0,0.0,0.0,0.0,0.0,0.0,0.0,0.0,0.0,0.0,0.0,0.0,0.0,0.0,0.0,0.0,0.0,0.0,0.0,0.0,0.0,0.0,0.0,0.0,0.0,0.0,0.0,0.0,0.0,0.0,0.0,0.0,0.0,0.0,0.0,0.0,0.0,0.0,0.0,0.0,0.0,0.0,0.0,0.0,0.0,0.0,0.0,0.0,0.0,0.0,0.0,0.0,0.0,0.0,0.0,0.0,1.3212,1.3058,1.2854,1.2705,1.2225,1.1707,1.1043,1.0684,1.0195,0.9481,0.0,0.0,0.0,0.0,0.0,0.0,0.0,0.0,0.0,0.0,0.0,0.0,0.0,0.0,0.0,0.0,0.0,0.0,0.0,0.0,0.0,0.0,0.0,0.0,0.0,0.0,0.0,0.0,0.0,0.0,0.0,0.0,0.0,0.0,0.0,0.0,0.0,0.0,0.0,0.0,0.0,0.0,0.0,0.0,0.0,0.0,0.0,0.0,0.0,0.0,0.0,0.0,0.0,0.0,0.0,0.0,0.0,0.0,0.0,0.0,0.0,0.0,0.0,0.0,0.0,0.0,0.0,0.0,0.0,0.0,0.0,0.0,0.0,0.0,0.0,0.0,0.0,0.0,0.0,0.0,0.0,0.0,0.0,0.0,0.0,0.0,0.0,0.0,0.0,0.0,0.0,0.0,0.0,0.0,0.0,0.0,0.0,0.0,0.0,0.0,0.0,0.0,1.279,1.3547,1.3963,1.358,1.3053,1.2825,1.3117,1.2229,1.147,0.0,0.0,0.0,0.0,0.0,0.0,0.0,0.0,0.0,0.0,0.0,0.0,0.0,0.0,0.0,0.0,0.0,0.0,0.0,0.0,0.0,0.0,0.0,0.0,0.0,0.0,0.0,0.0,0.0,0.0,0.0,0.0,0.0,0.0,0.0,0.0,0.0,0.0,0.0,0.0,0.0,0.0,0.0,0.0,0.0,0.0,0.0,0.0,0.0,0.0,0.0,0.0,0.0,0.0,0.0,0.0,0.0,0.0,0.0,0.0,0.0,0.0,0.0,0.0,0.0,0.0,0.0,0.0,0.0,0.0,0.0,0.0,0.0,0.0,0.0,0.0,0.0,0.0,0.0,0.0,0.0,0.0,0.0,0.0,0.0,0.0,0.0,0.0,0.0,0.0,0.0,0.0,0.0,0.0,0.0,0.0,0.0,0.0,0.0,0.0,0.0,0.0,0.0,1.4055,1.4713,1.511,1.4923,1.4751,1.4739,1.487,1.4356,1.3648,1.2624,0.0,0.0,0.0,0.0,0.0,0.0,0.0,0.0,0.0,0.0,0.0,0.0,0.0,0.0,0.0,0.0,0.0,0.0,0.0,0.0,0.0,0.0,0.0,0.0,0.0,0.0,0.0,0.0,0.0,0.0,0.0,0.0,0.0,0.0,0.0,0.0,0.0,0.0,0.0,0.0,0.0,0.0,0.0,0.0,0.0,0.0,0.0,0.0,0.0,0.0,0.0,0.0,0.0,0.0,0.0,0.0,0.0,0.0,0.0,0.0,0.0,0.0,0.0,0.0,0.0,0.0,0.0,0.0,0.0,0.0,0.0,0.0,0.0,0.0,0.0,0.0,0.0,0.0,0.0,0.0,0.0,0.0,0.0,0.0,0.0,0.0,0.0,0.0,0.0,0.0,0.0,0.0,0.0,0.0,0.0,0.0,0.0,0.0,0.0,0.0,0.0,0.0,1.4336,1.5071,1.5496,1.5193,1.5193,1.5241,1.5367,1.5138,1.4583,1.3808,0.0,0.0,0.0,0.0,0.0,0.0,0.0,0.0,0.0,0.0,0.0,0.0,0.0,0.0,0.0,0.0,0.0,0.0,0.0,0.0,0.0,0.0,0.0,0.0,0.0,0.0,0.0,0.0,0.0,0.0,0.0,0.0,0.0,0.0,0.0,0.0,0.0,0.0,0.0,0.0,0.0,0.0,0.0,0.0,0.0,0.0,0.0,0.0,0.0,0.0,0.0,0.0,0.0,0.0,0.0,0.0,0.0,0.0,0.0,0.0,0.0,0.0,0.0,0.0,0.0,0.0,0.0,0.0,0.0,0.0,0.0,0.0,0.0,0.0,0.0,0.0,0.0,0.0,0.0,0.0,0.0,0.0,0.0,0.0,0.0,0.0,0.0,0.0,0.0,0.0,0.0,0.0,0.0,0.0,0.0,0.0,0.0,0.0,0.0,0.0,0.0,0.0,1.4134,1.5142,1.5673,1.4991,1.49,1.4979,1.5247,1.4993,1.4775,1.4678,0.0,0.0,0.0,0.0,0.0,0.0,0.0,0.0,0.0,0.0,0.0,0.0,0.0,0.0,0.0,0.0,0.0,0.0,0.0,0.0,0.0,0.0,0.0,0.0,0.0,0.0,0.0,0.0,0.0,0.0,0.0,0.0,0.0,0.0,0.0,0.0,0.0,0.0,0.0,0.0,0.0,0.0,0.0,0.0,0.0,0.0,0.0,0.0,0.0,0.0,0.0,0.0,0.0,0.0,0.0,0.0,0.0,0.0,0.0,0.0,1.7177,1.6837,0.0,0.0,0.0,0.0,0.0,0.0,0.0,0.0,0.0,0.0,0.0,0.0,0.0,0.0,0.0,0.0,0.0,0.0,0.0,0.0,0.0,0.0,0.0,0.0,0.0,0.0,0.0,0.0,0.0,0.0,0.0,0.0,0.0,0.0,0.0,0.0,0.0,0.0,0.0,0.0,1.5861,1.6887,1.7334,1.6533,1.6237,1.6177,1.6348,1.6069,1.5675,1.519,1.4995,0.0,0.0,0.0,0.0,0.0,0.0,0.0,0.0,0.0,0.0,0.0,0.0,0.0,0.0,0.0,0.0,0.0,0.0,0.0,0.0,0.0,0.0,0.0,0.0,0.0,0.0,0.0,0.0,0.0,0.0,0.0,0.0,0.0,0.0,0.0,0.0,0.0,0.0,0.0,0.0,0.0,0.0,0.0,0.0,0.0,0.0,0.0,0.0,0.0,0.0,0.0,0.0,0.0,0.0,0.0,0.0,0.0,0.0,0.0,1.8556,1.8262,0.0,0.0,0.0,0.0,0.0,0.0,0.0,0.0,0.0,0.0,0.0,0.0,0.0,0.0,0.0,0.0,0.0,0.0,0.0,0.0,0.0,0.0,0.0,0.0,0.0,0.0,0.0,0.0,0.0,0.0,0.0,0.0,0.0,0.0,0.0,0.0,0.0,0.0,0.0,0.0,1.707,1.7748,1.8077,1.7609,1.7184,1.6952,1.7015,1.7063,1.6861,1.6373,1.6126,0.0,0.0,0.0,0.0,0.0,0.0,0.0,0.0,0.0,0.0,0.0,0.0,0.0,0.0,0.0,0.0,0.0,0.0,0.0,0.0,0.0,0.0,0.0,0.0,0.0,0.0,0.0,0.0,0.0,0.0,0.0,0.0,0.0,0.0,0.0,0.0,0.0,0.0,0.0,0.0,0.0,0.0,0.0,0.0,0.0,0.0,0.0,0.0,0.0,0.0,0.0,0.0,0.0,2.0275,2.0207,1.9886,2.0264,2.0537,2.0669,1.9868,1.9639,1.9795,1.9599,0.0,0.0,0.0,0.0,0.0,0.0,0.0,0.0,0.0,0.0,0.0,0.0,0.0,0.0,0.0,0.0,0.0,0.0,0.0,0.0,0.0,0.0,2.1268,2.0683,2.1052,2.0896,1.8661,0.0,0.0,0.0,0.0,0.0,0.0,0.0,0.0,0.0,0.0,0.0,1.7963,1.8274,1.8455,1.8344,1.795,1.7647,1.7609,1.8013,1.8109,1.7865,1.752,1.7136,0.0,0.0,0.0,0.0,0.0,0.0,0.0,0.0,0.0,0.0,0.0,0.0,0.0,0.0,0.0,0.0,0.0,0.0,0.0,0.0,0.0,0.0,0.0,0.0,0.0,0.0,0.0,0.0,0.0,0.0,0.0,0.0,1.769,1.769,0.0,0.0,0.0,0.0,0.0,0.0,0.0,0.0,0.0,0.0,0.0,0.0,0.0,1.9237,1.9839,2.0182,2.0392,2.0527,2.0907,2.1058,2.0998,2.1036,2.1113,2.1151,2.1542,0.0,2.0644,2.043,0.0,0.0,0.0,0.0,0.0,0.0,0.0,0.0,0.0,0.0,0.0,0.0,0.0,0.0,0.0,0.0,0.0,0.0,0.0,0.0,0.0,0.0,2.3591,2.2925,2.2737,2.2426,2.1505,2.0088,1.8762,1.8142,1.7998,1.7946,0.0,0.0,0.0,0.0,0.0,0.0,1.8544,1.8928,1.909,1.8621,1.8713,1.8702,1.8452,1.892,1.9183,1.9165,1.9108,1.8722,1.7922,1.7518,0.0,0.0,0.0,0.0,0.0,0.0,0.0,0.0,0.0,0.0,0.0,0.0,0.0,0.0,0.0,0.0,0.0,0.0,0.0,0.0,0.0,0.0,0.0,0.0,0.0,0.0,0.0,0.0,0.0,1.7581,1.7871,1.7332,1.7907,1.8139,0.0,0.0,0.0,0.0,0.0,0.0,0.0,0.0,0.0,1.9208,1.9505,2.0027,2.084,2.0679,2.0866,2.1459,2.1618,2.1711,2.1711,2.2042,2.2193,2.2231,2.2478,2.2392,2.1993,2.1576,2.1106,2.0682,0.0,0.0,0.0,0.0,2.0028,1.9901,2.1069,2.1397,2.1309,2.1466,0.0,0.0,0.0,0.0,0.0,0.0,0.0,2.2362,2.3359,2.4163,2.4611,2.4308,2.4142,2.3918,2.3332,2.2537,2.1602,2.0305,1.9818,1.949,1.9133,1.8607,0.0,0.0,0.0,1.956,1.9392,1.9579,1.963,1.9426,1.9203,1.9137,1.9272,1.9713,2.0075,2.0387,2.0218,1.9913,1.9518,1.8787,1.832,0.0,0.0,0.0,0.0,0.0,0.0,0.0,0.0,0.0,0.0,0.0,0.0,0.0,0.0,0.0,0.0,0.0,0.0,0.0,0.0,0.0,0.0,0.0,0.0,0.0,0.0,0.0,0.0,1.7976,1.8401,1.7362,1.8348,1.8695,0.0,0.0,0.0,0.0,0.0,0.0,1.9008,1.9448,1.9791,1.9984,2.037,2.1016,2.1897,2.1428,2.1605,2.2327,2.2327,2.2365,2.2515,2.2964,2.3224,2.3298,2.3298,2.3298,2.3261,2.259,2.2166,2.1842,2.1548,2.0969,2.0412,2.127,2.1391,2.1343,2.2633,2.3086,2.3068,2.3074,2.311,2.2957,2.2224,0.0,0.0,0.0,0.0,2.3543,2.4524,2.5059,2.5326,2.5231,2.5153,2.4942,2.4378,2.4307,2.393,2.2321,2.1553,2.0965,2.0405,1.9523,0.0,1.8911,1.9546,2.0048,2.0048,2.0048,2.0048,2.0048,1.9744,1.9698,2.0062,2.0478,2.094,2.1467,2.1189,2.104,2.104,2.016,1.9538,1.9287,0.0,0.0,0.0,0.0,0.0,0.0,0.0,0.0,0.0,0.0,0.0,0.0,0.0,0.0,0.0,0.0,0.0,0.0,0.0,0.0,0.0,0.0,0.0,0.0,0.0,0.0,0.0,0.0,0.0,1.8363,1.9847,0.0,0.0,0.0,0.0,1.9399,1.971,2.0075,2.047,2.0815,2.1357,2.2118,2.2161,2.2426,2.292,2.2883,2.2905,2.2964,2.2964,2.315,2.353,2.3567,2.3787,2.4152,2.4152,2.4152,2.408,2.3298,2.2628,2.2063,2.2063,2.1442,2.0758,2.211,2.2368,2.2219,2.3632,2.3856,2.3547,2.3971,2.4155,2.4206,2.4147,2.4202,0.0,0.0,2.4739,2.4917,2.5863,2.6074,2.6008,2.5823,2.5598,2.5249,2.4464,2.4602,2.4504,2.3338,2.259,2.1922,2.1252,0.0,2.0009,2.0009,2.0064,2.0085,2.0085,2.0085,2.0085,2.0085,2.0521,2.0838,2.0859,2.1272,2.1762,2.2205,2.2216,2.2205,2.2205,2.1716,2.1261,2.0804,2.0544,0.0,0.0,0.0,0.0,0.0,0.0,0.0,0.0,0.0,0.0,0.0,0.0,0.0,0.0,0.0,0.0,0.0,0.0,0.0,0.0,0.0,0.0,0.0,0.0,0.0,0.0,0.0,0.0,1.9191,2.0275,0.0,1.9651,1.9505,1.9629,1.9998,2.0445,2.0885,2.1297,2.2148,2.2709,2.2865,2.3298,2.3607,2.3776,2.3787,2.3787,2.3787,2.3787,2.3861,2.397,2.397,2.4043,2.42,2.42,2.42,2.4189,2.3897,2.3641,2.3446,2.3446,2.3224,2.2981,2.3489,2.3554,2.3575,2.4324,2.426,2.3886,2.4316,2.4472,2.4472,2.4439,2.4728,2.497,2.4671,2.5093,2.5699,2.5996,2.6301,2.644,2.6035,2.5877,2.555,2.452,2.4419,2.4222,2.3315,2.3331,2.3301,2.2657,2.2072,2.171,2.171,2.171,2.1596,2.1293,2.1262,2.1146,2.0839,2.0868,2.0984,2.1219,2.1251,2.1446,2.1822,2.2044,2.2184,2.2184,2.2207,2.2143,2.2003,2.162,2.1242,0.0,0.0,0.0,0.0,0.0,0.0,0.0,0.0,0.0,0.0,0.0,0.0,0.0,0.0,0.0,0.0,0.0,0.0,0.0,0.0,0.0,0.0,0.0,0.0,0.0,2.0522,2.0875,1.984,2.0908,2.1328,2.0281,2.0324,2.0558,2.0921,2.1547,2.2001,2.219,2.3237,2.3766,2.3541,2.398,2.42,2.42,2.42,2.42,2.42,2.42,2.4273,2.4381,2.4381,2.4442,2.4575,2.4575,2.4575,2.4575,2.4575,2.4575,2.455,2.4298,2.42,2.4236,2.4345,2.4381,2.4431,2.4649,2.448,2.4206,2.4485,2.4782,2.5071,2.5014,2.5405,2.5782,2.5323,2.5625,2.6085,2.6223,2.6388,2.6421,2.6032,2.5794,2.5398,2.4435,2.4216,2.4018,2.3289,2.3336,2.3404,2.3132,2.2635,2.2365,2.2567,2.2592,2.2482,2.2175,2.2156,2.2032,2.1702,2.1534,2.1559,2.1791,2.1629,2.1704,2.215,2.2353,2.2534,2.2718,2.2793,2.2843,2.2843,2.2424,2.1897,2.1247,0.0,0.0,0.0,0.0,0.0,0.0,0.0,0.0,0.0,0.0,0.0,0.0,0.0,0.0,0.0,0.0,0.0,0.0,0.0,0.0,0.0,0.0,0.0,1.9771,2.0775,2.1263,2.0292,2.1847,2.2577,2.1639,2.1925,2.2197,2.2197,2.2985,2.3404,2.3203,2.4015,2.4406,2.4225,2.4225,2.4225,2.4225,2.4225,2.4225,2.4225,2.4225,2.4454,2.4825,2.4825,2.4992,2.5312,2.5312,2.5312,2.5312,2.5288,2.5288,2.5217,2.4503,2.4225,2.4273,2.4658,2.479,2.4743,2.4525,2.4493,2.4504,2.4511,2.5186,2.5998,2.6016,2.6369,2.6779,2.6738,2.6348,2.6022,2.6589,2.6307,2.5833,2.5833,2.5385,2.4788,2.4164,2.4042,2.3865,2.3269,2.2574,2.2209,2.268,2.2196,2.1977,2.2578,2.2652,0.0,2.2652,2.2652,2.2652,2.2622,2.2634,2.2622,2.2634,2.2427,2.2573,2.3242,2.3145,2.3344,2.3941,2.3536,2.3317,2.3317,2.3039,2.2521,2.172,0.0,0.0,0.0,0.0,0.0,0.0,0.0,0.0,0.0,0.0,0.0,0.0,0.0,0.0,0.0,0.0,0.0,0.0,0.0,0.0,0.0,2.1942,2.1863,2.1502,2.18,2.1926,2.1661,2.2107,2.2308,2.2044,2.2114,2.2197,2.2197,2.2779,2.3221,2.3392,2.4113,2.4613,2.4862,2.4933,2.4993,2.4993,2.4993,2.4993,2.4993,2.4993,2.5076,2.5147,2.5147,2.5218,2.5312,2.5312,2.5312,2.5276,2.4891,2.4735,2.4736,2.4909,2.4993,2.4945,2.4682,2.4381,2.4066,2.3973,2.4164,2.4571,2.4888,2.5458,2.5981,2.5938,2.6337,2.6616,2.5751,2.5683,2.5833,2.5575,2.5059,2.4598,2.4598,2.4123,2.3527,2.2943,2.2793,2.2631,2.2009,2.1733,2.2035,2.3464,2.3555,2.3647,2.4257,2.4337,2.4221,2.3872,2.3829,2.3682,2.3357,2.3195,2.3075,2.2955,2.2761,2.2702,2.2801,2.2577,2.2735,2.3318,2.3357,2.3527,2.3855,2.3376,2.2791,0.0,0.0,0.0,0.0,0.0,0.0,0.0,0.0,0.0,0.0,0.0,0.0,0.0,0.0,0.0,0.0,0.0,0.0,0.0,0.0,0.0,0.0,2.2005,2.1945,2.2161,2.2197,2.2197,2.2197,2.2197,2.2197,2.2197,2.2197,2.2197,2.2197,2.271,2.3175,2.3604,2.4174,2.4689,2.5158,2.5276,2.5312,2.5312,2.5312,2.5312,2.5312,2.5312,2.5312,2.5312,2.5312,2.5312,2.53,2.5071,2.4975,2.4939,2.4422,2.4206,2.4242,0.0,0.0,0.0,0.0,2.4014,2.3745,2.3714,2.4017,2.4464,2.4721,2.515,2.5568,2.5529,2.5778,2.5885,2.5208,2.5249,2.5439,2.51,2.4557,2.4096,2.4096,2.3445,2.2727,2.2386,2.2101,2.1805,2.1467,2.1399,0.0,2.3106,2.3554,2.3933,2.4516,2.4842,2.4907,2.4622,2.4593,2.4494,2.4234,2.4076,2.3975,2.3888,2.3741,0.0,0.0,0.0,2.336,2.3508,2.3634,0.0,0.0,0.0,0.0,0.0,2.288,0.0,0.0,2.1639,2.1725,0.0,0.0,0.0,0.0,0.0,0.0,0.0,0.0,0.0,0.0,0.0,0.0,0.0,0.0,0.0,0.0,2.188,2.1735,2.2156,2.2197,2.2197,2.2197,2.2197,2.2197,2.2197,2.2197,2.2197,2.2197,2.263,2.3156,2.3685,2.4097,0.0,0.0,0.0,2.5252,2.5312,2.5312,2.5312,2.5312,2.5312,2.5312,2.5312,2.5252,2.5216,2.5192,2.4662,2.4434,2.4398,2.3926,2.3718,2.3703,2.3791,2.3803,2.3776,2.3776,2.3761,2.3692,2.3754,0.0,0.0,2.435,2.465,2.5005,2.5005,2.5005,2.5005,2.5005,2.5005,2.5005,2.5005,2.4489,2.4014,2.4069,2.3161,2.2305,2.2305,2.1898,2.148,2.1399,2.1399,2.1562,2.2115,2.27,2.331,2.3906,2.4502,2.491,2.491,2.4964,2.5005,2.5005,2.5005,0.0,2.5005,2.4892,2.4863,2.4977,2.492,2.4663,2.4177,2.4164,2.3905,2.3372,2.3809,2.3781,2.3205,2.4374,2.4733,2.4258,2.3159,2.2996,0.0,0.0,0.0,0.0,0.0,0.0,0.0,0.0,0.0,0.0,0.0,0.0,0.0,0.0,0.0,2.2457,2.2694,2.2765,2.2266,2.2197,2.2197,2.2197,2.2197,2.2197,2.2197,2.2197,2.2197,2.2197,2.2294,2.2582,2.3144,2.3232,2.3701,2.465,2.464,2.4879,2.53,2.5312,2.5312,2.5312,2.5312,0.0,2.53,2.4867,2.464,2.465,2.4133,2.395,2.3902,2.3384,2.3125,2.3133,2.3599,2.3758,2.3732,2.3732,2.3673,2.3654,2.4053,2.4239,2.435,2.4736,2.492,2.5005,2.5005,2.5005,0.0,2.5005,2.5005,2.5005,2.5005,2.4177,2.3499,2.3974,2.3161,2.2305,2.2305,2.221,2.1993,2.148,2.1399,2.144,2.1548,2.2063,2.2673,2.3296,2.3892,2.4258,2.4258,2.4706,2.5005,2.5005,2.5005,2.5005,2.5005,2.4977,2.4977,2.5005,2.5229,2.5094,2.4515,2.4661,2.4591,2.4248,2.3889,2.3521,2.32,2.3445,2.3808,2.4235,2.4551,2.4804,0.0,0.0,0.0,0.0,0.0,0.0,0.0,0.0,0.0,0.0,0.0,2.4166,2.4166,0.0,2.3846,2.328,2.3267,2.3118,2.2635,2.234,2.2197,2.2197,2.2197,2.2197,2.2197,2.2197,2.2197,2.2197,2.2197,2.2426,2.2987,2.3011,2.334,2.4121,2.4145,2.4278,2.4542,2.4542,2.4542,2.4542,2.4542,2.4542,2.453,2.4266,2.4145,2.4109,2.3637,2.3408,2.3372,2.2811,2.2707,2.294,2.3236,2.348,2.3662,2.3662,2.3773,2.3989,2.4234,2.4436,2.4679,2.492,2.5005,2.5005,2.5005,2.5005,2.5005,2.5005,2.5005,2.5005,2.5005,2.4326,2.373,2.4028,2.3161,2.2305,2.2305,2.2074,2.1751,2.1453,2.1399,2.1496,2.1746,2.2056,2.2358,2.2697,2.3513,2.415,2.434,2.4874,2.5383,2.5701,2.5756,2.5824,2.604,2.5703,2.5366,2.5029,2.5159,2.4992,2.4362,2.4457,2.4303,2.3865,2.3865,2.3944,2.4151,2.4813,2.5506,2.6161,2.6862,2.6847,0.0,0.0,0.0,0.0,0.0,0.0,0.0,2.4258,2.4368,2.5012,2.5024,2.4924,2.4924,2.4839,2.4612,2.4224,2.3862,2.3522,2.3155,2.2665,2.234,2.234,2.2247,2.2197,2.2197,2.2197,2.2197,2.2197,2.2197,2.2378,2.2811,2.2823,2.3095,2.3637,2.3649,2.3697,2.3806,2.3806,2.3806,2.3806,2.3806,2.3806,2.3806,2.3697,2.3649,2.3613,2.3095,2.2823,2.283,2.2366,2.2512,2.3047,2.3047,2.3395,2.3872,2.3783,2.4018,2.4436,2.4436,2.4679,2.5005,2.5005,2.5005,2.5005,2.5005,2.5005,2.5005,2.5005,2.5005,2.5005,2.5005,2.4557,2.4096,2.4096,2.3256,2.2454,2.2383,2.2049,2.1739,2.1678,2.1708,2.1898,2.2333,2.2402,2.2395,2.2428,2.3348,2.4169,2.4457,2.5016,2.5609,2.6162,2.6315,2.653,2.6861,2.6207,2.557,2.5018,2.5037,2.4864,2.4357,2.4294,2.4052,2.3628,2.4112,2.4655,2.5284,2.6489,2.7449,2.811,2.8646,2.8427,2.2658,2.2649,2.3125,2.5173,2.4482,2.3692,0.0,2.5173,2.4978,2.5584,2.574,2.577,2.577,2.5743,2.5508,2.4754,2.4824,2.4739,2.3975,2.3275,2.2818,2.2818,2.2463,2.2197,2.2197,2.2197,2.2197,2.2197,2.2197,2.2221,2.2282,2.2282,2.2522,2.3083,2.3095,2.3324,2.3794,2.3806,2.3806,2.3806,2.3806,2.3806,2.3782,2.3312,2.3095,2.3071,2.251,2.2282,2.2282,2.2209,2.2714,2.3518,2.3518,2.406,2.4793,2.4379,2.4523,2.492,2.492,2.4948,2.5005,2.5005,2.5005,2.5005,2.5005,2.5005,2.5005,2.5005,2.5005,2.5005,2.5005,2.4557,2.4096,2.4096,2.3594,2.3009,2.2715,2.2843,2.2908,2.2603,2.2793,2.3017,2.3084,2.3084,2.3046,2.2947,2.3488,2.3983,2.4139,2.4669,2.5087,2.516,2.5697,2.6059,2.6134,2.5482,2.5086,2.4989,2.5219,2.5307,2.5271,2.4965,2.4908,2.5142,2.5284,2.5526,2.5895,2.6718,2.7432,2.8115,2.8183,2.8444,2.4536,2.4433,2.4462,2.5115,2.4684,2.4263,2.4988,2.4995,2.5027,2.5655,2.6119,2.642,2.642,2.642,2.6245,2.5728,2.5439,2.5091,2.4496,2.3607,2.3005,2.2909,2.2494,2.2197,2.2197,2.2197,2.2197,2.2197,2.2197,2.2197,2.2197,2.2197,2.2294,2.2522,2.2522,2.263,2.2879,2.2859,2.2859,2.2859,2.2859,2.2859,2.2847,2.263,2.2522,2.251,2.2294,2.234,2.2616,2.2616,2.3155,2.4018,2.4018,2.4408,2.4977,2.4765,2.4821,2.5005,2.5005,2.5005,2.5033,2.5229,2.5285,2.5313,2.5495,2.5536,2.5536,2.5536,2.5536,2.5536,2.5536,2.5342,2.5065,2.4664,2.4111,2.3527,2.303,2.2922,2.2873,2.2729,2.2965,2.3282,2.3565,2.3608,2.3709,2.4,2.403,2.4091,2.4296,2.4851,2.5399,2.5833,2.6321,2.6474,2.6037,2.5731,2.5431,2.501,2.5118,2.5161,2.5161,2.5025,2.5197,2.5749,2.5785,2.6262,2.7209,2.7525,2.8031,2.8672,2.8672,2.883,2.5904,2.5623,2.5326,2.5263,2.4935,2.4667,2.4912,2.497,2.5107,2.5672,2.6341,2.6806,2.6806,2.6806,2.6712,2.6472,2.5987,2.5522,2.5133,2.4195,2.3446,2.3185,2.2696,2.234,2.2228,2.2197,2.2197,2.2197,2.2197,2.2197,2.2197,2.2197,2.2197,2.2197,2.2197,2.2197,2.2197,2.2197,2.2197,2.2197,2.2197,2.2197,2.2197,2.2197,2.2197,2.2197,2.2197,2.2402,2.2684,2.2687,2.3137,2.3869,2.3826,2.4178,2.4761,2.4761,2.4869,2.5005,2.5005,2.5061,2.5188,2.5411,2.555,2.5647,2.5839,2.5893,2.5893,2.5893,2.5893,2.5893,2.5893,2.5767,2.5514,2.505,2.4322,2.3684,2.3419,2.3146,2.2987,2.3165,2.3471,2.38,2.4131,2.4209,2.4349,2.4786,2.4581,2.4423,2.462,2.5016,2.5567,2.6283,2.6461,2.6372,2.604,2.5819,2.5523,2.5037,2.5005,2.5005,2.5005,2.5005,2.5318,2.5993,2.6214,2.6893,2.8094,2.8284,2.8632,2.9098,2.9098,2.9098,2.5904,2.5435,2.519,2.6359,2.5518,2.4631,2.547,2.5523,2.547,2.5723,2.6341,2.6806,2.6806,2.6806,2.6806,2.6779,2.6513,2.6217,2.6084,2.5258,2.4439,2.3829,2.3233,2.2696,2.2247,2.2197,2.2197,2.2197,2.2197,2.2197,2.2197,2.2197,2.2197,2.2197,2.2197,2.2197,2.2197,2.2197,2.2197,2.2197,2.2197,2.2197,2.2197,2.2197,2.2197,2.2197,2.2197,2.2228,2.2211,2.2075,2.2309,2.2747,2.2595,2.3191,2.4123,2.4123,2.4489,2.5005,2.5005,2.5216,2.5494,2.5494,2.5674,2.5893,2.5893,2.5893,2.5893,2.5893,2.5893,2.5893,2.5893,2.543,2.4926,2.5006,2.4053,2.3275,2.3862,2.377,2.376,2.4317,2.4726,2.4946,2.4966,2.4966,2.4966,2.4985,2.4982,2.4977,2.4977,2.4993,2.5262,2.5941,2.544,2.5318,2.5945,2.5397,2.5017,2.5005,2.5005,2.5005,2.5005,2.5005,2.5318,2.5993,2.6704,2.7415,2.8094,2.8735,2.9082,2.9098,2.9098,2.9098,2.5359,2.5198,2.5263,2.6149,2.5641,2.512,2.5806,2.592,2.5928,2.6145,2.6724,2.7119,2.6858,2.6806,2.6806,2.6806,2.6592,2.6351,2.6138,2.5398,2.4724,2.4337,2.3454,2.2848,2.2665,2.2371,2.2197,2.2197,2.2197,2.2197,2.2197,2.2197,2.2197,2.2197,2.2197,2.2197,2.2197,2.2197,2.2197,2.2197,2.2197,2.2197,2.2197,2.2197,2.2005,2.1668,2.1668,2.1631,2.1605,2.1848,2.2208,2.2677,2.2871,2.3191,2.3499,2.3499,2.3635,2.392,2.4734,2.5216,2.5522,2.5702,2.5948,2.6204,2.642,2.6199,2.5828,2.5828,2.5828,2.5828,2.5828,2.6012,2.6107,2.5955,2.5272,2.4622,2.4657,2.4771,2.4927,2.5112,2.544,2.5661,2.5661,2.5286,2.5005,2.5005,2.5005,2.5005,2.5005,2.5005,2.508,2.5318,2.5128,2.508,2.5318,2.5128,2.5005,2.5005,2.5005,2.5005,2.5005,2.5005,2.5555,2.672,2.6972,2.7668,2.8751,2.8988,2.9098,2.9098,2.9282,2.9373,2.523,2.5429,2.5728,2.6105,2.5968,2.5889,2.6356,2.6561,2.6719,2.6889,2.7175,2.7325,2.7067,2.6884,2.6806,2.6806,2.6686,2.6513,2.6218,2.5674,2.5133,2.4624,2.3884,2.3258,2.2939,2.2635,2.2371,2.2228,2.2197,2.2197,2.2197,2.2197,2.2197,2.2197,2.2197,2.2197,2.2197,2.2197,2.2101,2.1909,2.1909,2.1813,2.1632,2.1632,2.153,2.1338,2.1338,2.1379,2.1499,2.1708,2.1968,2.2247,2.2478,2.2686,2.2876,2.2876,2.3012,2.3323,2.4082,2.4614,2.498,2.514,2.5457,2.5825,2.624,2.61,2.5861,2.6094,2.6166,2.6166,2.6166,2.6312,2.645,2.6541,2.5952,2.5455,2.5637,2.5775,2.5833,2.569,2.5848,2.593,2.5677,2.5286,2.5005,2.5005,2.5005,2.5005,2.5005,2.5005,2.5005,2.5005,2.5005,2.5005,2.5005,2.5005,2.5005,2.5005,2.5005,2.5005,2.5005,2.5005,2.5665,2.7083,2.7099,2.7806,2.9236,2.9236,2.9266,2.9357,2.9538,2.9627,2.5411,2.5916,2.6469,2.624,2.6512,2.6873,2.7078,2.7447,2.7775,2.7908,2.7685,2.7427,2.7401,2.7096,2.6837,2.6837,2.6837,2.6717,2.641,2.6112,2.5633,2.4851,2.4481,2.3943,2.3047,2.2939,2.2739,2.2278,2.2228,2.2197,2.2197,2.2197,2.2197,2.2197,2.2197,2.2197,2.2197,2.2197,2.1921,2.1404,2.1404,2.1127,2.0581,2.0581,2.0775,2.1138,2.1138,2.135,2.1674,2.1563,2.1549,2.1535,2.143,2.1738,2.2251,2.2251,2.2619,2.312,2.312,2.3497,2.3985,2.3926,2.4305,2.4901,2.5438,2.5687,2.5905,2.6547,2.6762,2.6762,2.6762,2.6312,2.6021,2.6686,2.6129,2.5741,2.671,2.6742,2.6473,2.612,2.604,2.5787,2.5112,2.5005,2.5005,2.5005,2.5005,2.5005,2.5005,2.5005,2.5005,2.5005,2.5005,2.5005,2.5005,2.5005,2.5001,2.5049,2.5049,2.5049,2.5049,2.508,2.5745,2.7083,2.713,2.7926,2.9493,2.9509,2.9589,2.981,2.981,2.9815,2.4589,2.5013,2.5611,2.6071,2.6621,2.7123,2.7527,2.8025,2.8402,2.8474,2.811,2.7695,2.7437,2.7436,2.7463,2.7463,2.7463,2.7409,2.7232,2.6517,2.5893,2.5495,2.4865,2.4321,2.3972,2.3318,2.2848,2.2739,2.2402,2.2197,2.2197,2.2197,2.2197,2.2197,2.2197,2.2197,2.2197,2.2197,2.1921,2.1404,2.1404,2.1127,2.0581,2.0581,2.0439,2.0152,2.0152,2.0155,2.0173,2.045,2.0731,2.1032,2.1307,2.148,2.1616,2.1616,2.1724,2.186,2.186,2.277,2.3912,2.3914,2.4255,2.4832,2.5412,2.5373,2.5241,2.589,2.6039,2.6039,2.6039,2.6312,2.6666,2.7126,2.6857,2.6659,2.7241,2.754,2.7532,2.6935,2.6388,2.5787,2.5112,2.5005,2.5005,2.5005,2.5005,2.5005,2.5005,2.5005,2.5005,2.5005,2.5005,2.5005,2.5005,2.5005,2.5207,2.5708,2.574,2.574,2.574,2.6261,2.6735,2.7099,2.7589,2.8342,2.9335,2.9448,2.9576,2.9732,2.9995,3.0103,2.4754,2.5263,2.5829,2.6122,2.6605,2.7145,2.7688,2.803,2.8319,2.8654,2.8174,2.7635,2.7437,2.7568,2.7608,2.736,2.7521,2.754,2.7128,2.6527,2.6002,2.5729,2.516,2.4666,2.4321,2.3826,2.3335,2.2939,2.2463,2.2197,2.2197,2.2197,2.2089,2.1861,2.1849,2.1728,2.1506,2.15,2.1223,2.0694,2.0694,2.0418,1.9901,1.9901,1.9842,1.9717,1.9916,2.0047,2.0156,2.0548,2.0871,2.108,2.1313,2.1399,2.1399,2.1399,2.1399,2.1399,2.1399,2.2068,2.2893,2.2893,2.3287,2.3918,2.4773,2.4941,2.5052,2.5966,2.6253,2.6253,2.6253,2.653,2.6785,2.6711,2.7041,2.7315,2.7287,2.7703,2.781,2.6814,2.604,2.5444,2.5049,2.5005,2.5005,2.5005,2.5005,2.5005,2.5005,2.5005,2.5005,2.5005,2.5005,2.5005,2.5005,2.5005,2.5159,2.5555,2.555,2.5753,2.6172,2.6586,2.7121,2.7828,2.8211,2.8826,2.971,2.9776,2.9886,3.0076,3.0253,3.0422,2.519,2.5866,2.6451,2.6239,2.6552,2.7071,2.7648,2.7822,2.7988,2.8568,2.7993,2.7401,2.7401,2.7568,2.7521,2.6997,2.7374,2.748,2.6753,2.6342,2.6029,2.5757,2.5425,2.5033,2.4436,2.435,2.3917,2.2947,2.2445,2.217,2.2089,2.2017,2.1777,2.132,2.1296,2.1067,2.0603,2.0598,2.0334,1.9808,1.9808,1.9531,1.8987,1.8987,1.9225,1.9604,1.9978,2.0397,2.0833,2.1191,2.1337,2.1399,2.1399,2.1399,2.1399,2.1399,2.1399,2.1399,2.1399,2.1496,2.1592,2.1592,2.2044,2.276,2.3836,2.44,2.493,2.6286,2.6591,2.6547,2.6646,2.6617,2.6413,2.5832,2.6684,2.7488,2.6981,2.7379,2.7462,2.6246,2.546,2.5005,2.5005,2.5005,2.5005,2.5005,2.5005,2.5005,2.5005,2.5005,2.5005,2.5005,2.5005,2.5053,2.5128,2.5128,2.5227,2.5441,2.5457,2.5843,2.6687,2.68,2.746,2.8757,2.8892,2.9334,3.0167,3.0231,3.0342,3.0531,3.0593,3.0794,2.4471,2.5246,2.6008,2.6026,2.6512,2.712,2.7603,2.7844,0.0,0.0,2.7993,2.7401,2.7401,2.7568,2.7666,2.755,2.7623,2.7666,2.7509,2.6777,2.6179,2.5893,2.5619,2.5313,2.492,2.4523,2.3893,2.2895,2.2376,2.1947,2.1566,2.1127,2.0839,2.0725,2.0754,2.0706,2.061,2.061,2.0334,1.9808,1.9808,1.9531,1.8987,1.8987,1.9225,1.9617,1.9668,2.0105,2.0809,2.0883,2.1104,2.1399,2.1399,2.1399,2.1399,2.1399,2.1399,2.1399,2.1399,2.1423,2.1447,2.1568,2.1902,2.2419,2.3225,2.3655,2.4168,2.5578,2.5575,2.5274,2.5821,2.5589,2.5183,2.5067,2.5702,2.6297,2.6191,2.6271,2.6293,2.6056,2.546,2.5005,2.5005,2.5005,2.5005,2.5005,2.5005,2.5005,2.5005,2.5005,2.5005,2.5005,2.5005,2.5223,2.5772,2.5819,2.6392,2.7726,2.7806,2.7977,2.8375,2.8925,2.9092,2.8806,2.934,2.9762,3.0055,3.0368,3.0621,3.0764,3.114,3.1351,2.4481,2.522,2.5881,2.5846,2.6069,2.6451,2.7123,0.0,0.0,0.0,2.7545,2.7093,2.7093,2.7435,2.7594,2.7287,2.7492,2.7579,2.7287,2.6687,2.6206,2.5921,2.5647,2.5383,2.5033,2.4524,2.3894,2.3167,2.2165,2.14,2.1012,2.0478,2.0177,2.0177,1.9913,1.9768,1.9768,1.9768,1.9636,1.9372,1.9372,1.9266,1.8987,1.8987,1.9119,1.9303,1.9734,2.0118,2.051,2.0932,2.1215,2.1399,2.1399,2.1399,2.1399,2.1399,2.1496,2.1616,2.1616,2.1712,2.1817,2.1902,2.2044,2.232,2.2987,2.3474,2.4008,2.5052,2.5056,2.4882,2.5187,2.5042,2.4801,2.4681,2.519,2.5795,2.5948,2.5999,2.5898,2.5555,2.5223,2.5005,2.5005,2.5005,2.5005,2.5005,2.5005,2.5005,2.5005,2.5005,2.5005,2.5005,2.5005,2.533,2.6145,2.6209,2.6741,2.8012,2.8098,2.8364,2.893,2.9444,2.9766,2.9935,3.0434,3.0723,3.0781,3.0965,3.1103,3.1179,3.1408,3.1579,2.4635,2.5234,2.5752,2.5661,2.5584,2.5744,2.6646,2.6406,0.0,2.7285,2.7115,2.6806,2.6806,2.72,2.736,0.0,2.72,2.7345,2.6852,2.6527,2.6245,2.5975,2.5702,2.5342,2.4885,2.4394,2.381,2.3078,2.1691,2.0718,2.0266,1.9853,1.964,1.964,1.923,1.8987,1.8987,1.8987,1.904,1.9119,1.9119,1.9172,1.9251,1.9251,1.9291,1.9422,2.0042,2.0372,2.0511,2.1142,2.1399,2.1399,2.1399,2.1399,2.1399,2.1399,2.1544,2.1746,2.1793,2.1973,2.2161,2.2184,2.2231,2.2339,2.2832,2.3298,2.3809,2.4486,2.4559,2.4433,2.4578,2.4505,2.4369,2.4319,2.4763,2.5299,2.5705,2.5787,2.5614,2.5096,2.5005,2.5005,2.5005,2.5005,2.5005,2.5005,2.5005,2.5005,2.5005,2.5005,2.5005,2.5045,2.5041,2.5433,2.6515,2.6615,2.7106,2.8249,2.8298,2.8645,2.9375,2.9716,3.0255,3.0995,3.1271,3.1445,3.1485,3.1485,3.1523,3.1579,3.1671,3.1819,2.4497,2.4938,2.5371,2.5432,2.5375,2.5564,2.6426,0.0,2.6273,2.7205,2.7093,2.6806,2.6806,2.6837,0.0,0.0,0.0,2.6852,2.682,2.6618,2.6392,2.6111,2.5839,2.5314,2.4436,2.4205,2.3474,2.197,2.0888,1.995,1.9185,1.9095,1.9059,1.9059,1.9011,1.8987,1.8987,1.8987,1.9172,1.9539,1.9539,1.9746,2.0105,2.0105,2.0296,2.0646,2.0696,2.0957,2.1302,2.1375,2.1399,2.1399,2.1399,2.1399,2.1399,2.1399,2.1496,2.164,2.1746,2.1902,2.2044,2.2161,2.2278,2.2408,2.258,2.2761,2.3057,2.378,2.3534,2.3207,2.3833,2.3519,2.3228,2.3896,2.4095,2.4311,2.4961,2.508,2.5065,2.5001,2.5005,2.5005,2.5005,2.5005,2.5005,2.5005,2.5005,2.5005,2.5005,2.5005,2.5064,2.5256,2.5103,2.5624,2.7171,2.732,2.807,2.9868,2.9971,3.011,3.0369,3.0677,3.0908,3.0995,3.1035,3.1193,3.1485,3.1485,3.1635,3.1858,3.2179,3.2336,2.4296,2.4659,2.4989,2.4918,2.4739,2.4808,2.5682,2.5756,2.5911,2.6839,2.691,2.6806,2.6806,2.6806,0.0,0.0,0.0,0.0,2.6806,2.6553,2.6326,2.6111,2.5462,2.4831,2.4354,2.3511,2.2491,2.1256,2.0791,2.0308,1.9734,1.9486,1.9356,1.9356,1.9119,1.8987,1.8987,1.8987,1.9198,1.9617,1.9617,1.9811,2.0207,2.0207,2.0296,2.0447,2.0684,2.0894,2.1068,2.1288,2.1399,2.1399,2.1399,2.1399,2.1399,2.1399,2.1544,2.1746,2.1973,2.2184,2.2394,2.2555,2.2661,2.2684,2.2615,2.2721,2.2915,2.3229,2.3113,2.2946,2.3229,2.3243,2.3348,2.3861,2.4151,2.4421,2.4886,2.5005,2.5005,2.5005,2.5005,2.5005,2.5005,2.5005,2.5005,2.5005,2.5005,2.5005,2.5005,2.5119,2.5217,2.5294,2.5236,2.5894,2.7668,2.7822,2.8547,3.026,3.038,3.0422,3.0506,3.1018,3.1213,3.0995,3.1351,3.1542,3.1485,3.1485,3.1635,3.1894,3.2037,3.2214,2.4315,2.4508,2.4655,2.4477,2.4384,2.4522,2.5237,2.5536,2.5884,2.6625,2.6806,2.6806,2.6806,2.6806,2.6806,0.0,0.0,2.6779,2.6712,2.6354,2.6028,2.5788,2.51,2.4403,2.3834,2.2734,2.1733,2.1033,2.0981,2.0833,2.0573,2.0156,1.9914,1.9798,1.9512,1.9344,1.9344,1.9184,1.9391,1.9952,1.9762,1.9978,2.0548,2.0422,2.0447,2.0548,2.0734,2.0883,2.1006,2.1288,2.1399,2.1399,2.1399,2.1399,2.1423,2.1496,2.1664,2.1902,2.2208,2.2477,2.2698,2.2857,2.2888,2.2865,2.2729,2.2797,2.2888,2.2888,2.2888,2.2888,2.2888,2.3075,2.3392,2.3882,2.4172,2.4477,2.4906,2.5005,2.5005,2.5005,2.5005,2.5005,2.5005,2.5005,2.5005,2.5005,2.5005,2.5025,2.5084,2.5217,2.5352,2.5451,2.5486,2.6085,2.765,2.7768,2.8454,3.0075,3.0174,3.0274,3.0489,3.1038,3.1291,3.1154,3.1485,3.1618,3.1617,3.1542,3.1635,3.1894,3.2002,3.2161,2.4584,2.4498,2.4416,2.4088,2.4446,2.498,2.5318,2.5853,2.6381,2.6727,2.6806,2.6806,2.6806,2.6806,2.6806,0.0,0.0,0.0,2.6537,2.5977,2.546,2.5059,2.482,2.4149,2.2759,2.1877,2.1399,2.1399,2.1399,2.1399,2.1399,2.1006,2.061,2.0207,2.0182,2.0182,2.0182,1.9607,1.9815,2.0795,2.018,2.0423,2.1361,2.0981,2.1006,2.1375,2.0981,2.1031,2.1385,2.1399,2.1399,2.1399,2.1399,2.1399,2.1423,2.1712,2.1864,2.2067,2.2463,2.2675,2.2795,2.288,2.2888,2.2888,2.2888,2.2888,2.2888,2.2888,2.2888,2.2888,2.2888,2.2888,2.309,2.3833,2.4003,2.4193,2.4866,2.5005,2.5005,2.5005,2.5005,2.5005,2.5005,2.5005,2.5005,2.5005,2.5005,2.5064,2.5275,2.5294,2.5451,2.5844,2.5881,2.6192,2.6948,2.7014,2.7698,2.9314,2.9397,2.9744,3.0472,3.0834,3.1173,3.1502,3.1173,3.1312,3.1894,3.1635,3.1635,3.1894,3.2232,3.2406,2.468,2.4622,2.4514,2.4866,2.4889,2.4978,2.555,2.5808,2.6119,2.6675,2.6806,2.6806,2.6806,2.6806,2.6806,2.6806,0.0,0.0,0.0,2.6404,2.6012,2.548,2.4335,2.3191,2.2156,2.1725,2.1496,2.1423,2.1399,2.1399,2.1399,2.1288,2.1044,2.061,1.9947,1.9581,1.9581,1.8995,1.8993,1.9574,1.938,1.9615,2.0243,2.0105,2.0307,2.0765,2.0647,2.09,2.1399,2.1399,2.1399,2.1423,2.1616,2.1688,2.1712,2.1973,2.2114,2.2184,2.2486,2.2615,2.2698,2.2857,2.2888,2.2888,2.2888,2.2888,2.2955,2.3172,2.3246,2.3304,2.3581,2.3661,2.3769,2.4234,2.4354,2.4462,2.4906,2.5005,2.5005,2.5005,2.5005,2.5005,2.5005,2.5005,2.5005,2.5005,2.5103,2.5236,2.5294,2.5543,2.5768,2.5897,2.6007,2.6394,2.7139,2.7668,2.8365,2.933,2.986,3.0257,3.0489,3.0834,3.0955,3.0818,3.0935,3.1078,3.1293,3.1196,3.1408,3.1894,3.2249,3.2406,0.0,2.488,2.4845,2.5132,2.5194,2.5299,2.5691,2.6006,2.6312,2.6718,2.6806,2.6806,2.6806,2.6806,2.6806,2.6806,2.6602,2.6489,2.6642,2.6188,2.5624,2.5134,2.3716,2.2656,2.2311,2.1969,2.1712,2.1568,2.1278,2.1108,2.106,2.0857,2.0641,2.039,1.9969,1.9666,1.9447,1.8836,1.8779,1.9265,1.9026,1.9199,1.97,1.9517,1.9705,2.0193,2.0005,2.0244,0.0,2.0979,2.0938,2.0785,2.1215,2.1415,2.1509,2.181,2.1948,2.2036,2.2552,2.2571,2.2392,2.2518,2.2388,2.2185,2.2185,2.2533,2.2978,2.3312,2.3406,2.3486,2.3903,2.4003,2.4088,2.4416,2.4498,2.46,2.4926,2.5005,2.5005,2.5005,2.5005,2.5005,2.5005,2.5005,2.5005,2.5005,2.5162,2.5333,2.5391,2.5712,2.5934,2.6007,2.6132,2.6402,2.6851,2.7564,2.8293,2.8986,2.9678,3.0208,3.0489,3.0712,3.0757,3.0692,3.0773,3.0875,3.0995,3.1134,3.1504,3.209,3.2301,3.2406,0.0,2.5256,2.5342,2.5068,2.5444,2.585,2.5865,2.6344,0.0,2.6806,2.6806,2.6806,2.6747,2.6747,2.6747,2.6747,2.6181,2.5886,2.6378,2.5412,2.455,2.4276,2.3049,2.247,2.3013,2.244,2.1949,2.1793,2.1125,2.0643,2.0518,1.9976,1.9686,1.9632,2.0111,2.0139,1.9632,1.9043,1.9016,1.9564,1.9002,1.903,1.9556,1.9123,1.9181,1.961,1.9176,1.9248,1.9741,2.0233,2.0152,1.9754,2.0407,2.0749,2.0894,2.129,2.1489,2.1663,2.2473,2.2388,2.1931,2.1931,2.1511,2.1003,2.1044,2.1873,2.2905,2.3238,2.3398,2.3515,2.3925,2.4046,2.4151,2.4457,2.4539,2.462,2.4926,2.5005,2.5005,2.5005,2.5005,2.5005,2.5025,2.5025,2.5025,2.5045,2.5201,2.541,2.5597,2.5787,2.5989,2.6184,2.6202,2.6219,2.6268,2.6917,2.7597,2.8343,2.9036,2.9728,3.0472,3.0506,3.0651,3.0955,3.0712,3.0716,3.1035,3.1406,3.1856,3.2406,3.2406,3.2406,2.4946,0.0,2.5513,2.5989,2.6246,2.6373,0.0,2.6704,2.6806,2.6806,0.0,2.6646,2.6137,2.605,2.605,2.605,2.5527,2.5313,2.5872,2.4872,2.4264,2.4683,2.3511,2.2678,2.2714,2.2386,2.2067,2.1817,2.1125,2.0643,2.0518,1.9976,1.9505,1.903,1.9138,1.9138,1.9002,1.8405,1.8187,1.8323,1.8187,1.8187,1.8337,1.822,1.8484,1.9002,1.8882,1.9173,1.9714,1.9849,1.9822,1.9736,2.0031,2.0279,2.0483,2.0784,2.0997,2.1166,2.1388,2.1351,2.1235,2.1235,2.1133,2.1044,2.1304,2.1773,2.2273,2.2623,2.3278,2.3946,2.4291,2.4564,2.4786,2.4866,2.4886,2.4906,2.4985,2.5005,2.5005,2.5005,2.5005,2.5045,2.5217,2.5236,2.5278,2.5435,2.564,2.5787,2.5824,2.6023,2.615,2.6185,2.6202,2.6435,2.7,2.7199,2.7597,2.8343,2.9036,2.9728,3.0472,3.0506,3.0547,3.063,3.1038,3.1293,3.137,3.1911,3.2267,3.2406,3.2406,3.2406,2.4582,2.5084,2.5739,2.6199,2.6351,2.6457,2.6618,0.0,0.0,0.0,0.0,0.0,0.0,2.5836,2.6054,2.5444,2.5081,2.4878,2.4907,2.4326,2.4022,2.4384,2.3502,2.2826,2.2752,2.2509,2.2165,2.1616,2.0826,2.0192,1.9741,1.9184,1.8731,1.8391,1.8378,1.8378,1.8378,1.8065,1.7902,1.7902,1.7902,1.7902,1.7902,1.7902,1.8079,1.8378,1.8378,1.8568,1.8907,1.9157,1.9117,1.8921,1.9337,1.9634,1.9873,2.011,2.0317,2.0535,2.088,2.0814,2.0582,2.0582,2.0378,2.0171,2.0328,2.0837,2.1456,2.2234,2.3056,2.3723,2.3768,2.4375,2.4906,2.459,2.4748,2.5005,2.5005,2.5005,2.5025,2.5103,2.5139,2.5201,2.5394,2.5432,2.547,2.5586,2.577,2.5897,2.5897,2.6078,2.6336,2.6667,2.67,2.7017,2.7729,2.7796,2.8111,2.8804,2.9201,2.9728,3.0472,3.0506,3.0572,3.0733,3.1095,3.1408,3.1691,3.2019,3.2249,3.2406,3.2406,3.2406,2.3972,2.4845,2.5699,2.5974,2.615,2.6269,2.6316,0.0,0.0,0.0,0.0,0.0,0.0,2.5749,2.6126,2.4998,2.4723,2.4476,2.3963,2.3804,2.3789,2.3876,2.3302,2.2888,2.2888,2.2643,2.2152,2.1389,2.0458,1.9596,1.8876,1.8256,1.7922,1.7902,1.7902,1.7902,1.7902,1.7902,1.7902,1.7902,1.7902,1.7902,1.7902,1.7902,1.7902,1.7902,1.7902,1.7902,1.7943,1.8445,1.835,1.7957,1.8542,1.8921,1.9188,1.9385,1.9578,1.9874,2.0489,2.0378,1.9943,1.9943,1.9566,1.9101,1.9157,1.9711,2.0598,2.1753,2.2709,2.3328,2.3051,2.3967,2.4843,2.4223,2.4559,2.5005,2.5005,2.5005,2.5045,2.522,2.5294,2.5371,2.5586,2.5624,2.5659,2.5696,2.5844,2.5952,2.5952,2.6096,2.6452,2.7066,2.7216,2.7597,2.8343,2.8392,2.874,2.9512,2.9446,2.9728,3.0472,3.0506,3.0671,3.0995,3.1055,3.1351,3.1894,3.1966,3.2126,3.2406,3.2422,3.2422,2.3257,2.3865,2.46,2.5521,2.5948,2.6023,2.5654,0.0,0.0,0.0,0.0,0.0,0.0,2.5023,2.511,2.4853,2.436,2.4007,2.3905,2.3403,2.3258,2.3833,2.3302,2.2888,2.2888,2.2321,2.1829,2.156,2.0281,1.9364,1.9058,1.8385,1.7955,1.7902,1.7902,1.7902,1.7902,1.7902,1.7902,1.7902,1.7902,1.7902,1.7902,1.7902,1.7902,1.7902,1.7902,1.7902,1.7916,1.7997,1.7984,1.7916,1.7997,1.83,1.8618,1.8658,1.8897,1.9242,1.9362,1.9333,1.9261,1.9261,1.9188,1.9139,1.9365,1.9534,1.9803,2.0516,2.2003,2.3378,2.3328,2.4155,2.4954,2.4859,2.4906,2.5005,2.5005,2.5005,2.5025,2.5107,2.522,2.5375,2.5645,2.5772,2.5899,2.6078,2.6132,2.615,2.615,2.6184,2.6235,2.6369,2.6934,2.7597,2.8343,2.8392,2.8936,3.0241,2.9744,2.9728,3.0472,3.0506,3.0671,3.0995,3.1291,3.1579,3.1894,3.2179,3.2354,3.2388,3.2506,3.254,2.2516,2.2929,2.3361,2.4321,2.5294,2.5986,2.5981,0.0,0.0,0.0,0.0,0.0,0.0,2.4399,2.4762,2.4384,2.3766,2.3414,2.359,2.3198,2.308,2.3583,2.3198,2.2757,2.2446,2.2054,2.1463,2.0705,1.9857,1.9168,1.8631,1.8213,1.7962,1.7902,1.7902,1.7902,1.7902,1.7902,1.7902,1.7902,1.7902,1.7902,1.7902,1.7902,1.7902,1.7902,1.7902,1.7902,1.7902,1.7902,1.7902,1.7902,1.8023,1.8208,1.8411,1.8673,1.8908,1.9101,1.9101,1.9101,1.912,1.9273,1.931,1.9365,1.969,1.9871,2.0032,2.0325,2.1339,2.2366,2.2545,2.3478,2.4397,2.4397,2.4717,2.5005,2.5005,2.5005,2.5045,2.5182,2.5355,2.5546,2.5772,2.5952,2.6096,2.6202,2.6202,2.6202,2.6202,2.6202,2.6518,2.7296,2.7696,2.8343,2.945,2.9533,2.9648,2.9877,2.9959,3.0141,3.0489,3.0654,3.0935,3.1254,3.156,3.1894,3.2283,3.2405,3.2524,3.2674,3.269,3.2706,2.2003,2.2305,2.253,2.3452,0.0,2.5523,2.5735,0.0,0.0,0.0,0.0,0.0,0.0,2.4212,2.4725,2.4221,2.3582,2.3253,2.3508,2.3319,2.3253,2.3508,2.3238,2.2775,2.2192,2.1801,2.1125,1.9956,1.9526,1.9029,1.8375,1.8214,1.8075,1.7963,1.7929,1.7922,1.7902,1.7902,1.7902,1.7902,1.7902,1.7902,1.7902,1.7902,1.7902,1.7902,1.7902,1.7902,1.7902,1.7902,1.7922,1.7983,1.8143,1.8293,1.8475,1.887,1.9074,1.9101,1.9176,1.918,1.925,1.953,1.9621,1.9672,1.9919,2.0133,2.0308,2.0376,2.0889,2.1501,2.2004,2.3133,2.416,2.416,2.4645,2.5064,2.5064,2.5103,2.5201,2.5355,2.553,2.5717,2.5899,2.6078,2.6202,2.6202,2.6202,2.6202,2.6202,2.6202,2.67,2.7995,2.8293,2.8973,3.0373,3.0506,3.0257,2.9694,3.0191,3.0547,3.0593,3.0915,3.1235,3.1617,3.1858,3.2197,3.2639,3.2574,3.264,3.2868,3.287,3.2868,2.1941,2.2305,2.2567,2.368,2.4056,0.0,2.3796,2.3918,0.0,2.3592,0.0,0.0,2.4537,2.4836,2.4896,2.4836,2.4321,2.394,2.3961,2.394,2.394,2.3961,2.361,2.3125,2.2518,2.1612,2.0779,2.0126,1.9435,1.8946,1.8779,1.8581,1.838,1.8183,1.8055,1.7962,1.7902,1.7902,1.7902,1.7902,1.7902,1.7902,1.7902,1.7902,1.7902,1.7902,1.7902,1.7902,1.7902,1.7902,1.8003,1.8183,1.8183,1.8431,1.8784,1.9007,1.9101,1.9139,1.9384,1.9475,1.953,1.9866,1.9955,1.997,1.9988,2.0023,2.0078,2.0325,2.0889,2.1628,2.2573,2.3863,2.4906,2.4906,2.5091,2.5275,2.5275,2.5432,2.5586,2.5663,2.5772,2.5899,2.599,2.6097,2.6202,2.6202,2.6202,2.6202,2.6202,2.6202,2.6501,2.7282,2.7995,2.8973,3.0373,3.0506,3.0472,3.0423,3.0472,3.0651,3.0955,3.1176,3.1488,3.195,3.2109,3.2387,3.2789,3.2673,3.2673,3.2805,3.2995,3.3008,2.1473,2.2158,2.2545,2.2271,2.3112,0.0,0.0,2.4606,2.4684,2.4133,2.4104,0.0,2.4327,2.434,2.434,2.434,2.4149,2.4067,2.4276,2.413,2.4067,2.4291,2.3435,2.2589,2.1941,2.1002,2.0175,1.9522,1.918,1.8941,1.8803,1.8678,1.8503,1.8274,1.8175,1.8075,1.7962,1.7909,1.7902,1.7902,1.7902,1.7902,1.7902,1.7902,1.7902,1.7902,1.7902,1.7902,1.7902,1.7902,1.8023,1.8208,1.8484,1.8741,1.9007,1.9064,1.9101,1.9139,1.9402,1.9497,1.957,2.0098,2.0254,2.0289,2.0443,2.0494,2.0604,2.1128,2.1774,2.2407,2.2799,2.3591,2.4428,2.4891,2.5084,2.5201,2.5294,2.5394,2.5511,2.5624,2.5789,2.5899,2.5936,2.6079,2.6202,2.6202,2.6202,2.6202,2.6202,2.6202,2.6485,2.7216,2.7961,2.8624,2.9135,2.9185,2.9185,2.9185,3.0029,3.0651,3.0995,3.1353,3.1731,3.2109,3.2454,3.2721,3.2934,3.2868,3.2932,3.3109,3.3201,3.3214,2.1166,2.1906,2.2339,2.1988,0.0,0.0,2.4746,2.4966,2.4874,2.4499,2.4694,2.4771,2.4263,2.4234,2.4317,2.4317,2.4317,2.44,2.4641,2.4256,2.4055,2.4278,2.3213,2.2209,2.1536,2.0734,1.9933,1.9276,1.9097,1.8984,1.8898,1.8831,1.8692,1.8417,1.8386,1.8268,1.8075,1.8009,1.7983,1.7929,1.7922,1.7902,1.7889,1.7712,1.7726,1.7902,1.7902,1.7942,1.7983,1.7983,1.8149,1.8411,1.876,1.8988,1.9101,1.9101,1.9101,1.9139,1.9402,1.9566,1.9729,2.0239,2.0461,2.0562,2.0745,2.0794,2.0905,2.1346,2.2169,2.2898,2.2898,2.3559,2.4365,2.4875,2.5084,2.5204,2.5355,2.5489,2.5586,2.5752,2.5897,2.5989,2.5989,2.6114,2.6202,2.6202,2.6202,2.6202,2.6202,2.6202,2.6485,2.7216,2.7961,2.8392,2.8392,2.8453,2.8472,2.8431,2.9504,3.0373,3.0862,3.137,3.1899,3.2437,3.2786,3.3011,3.3091,3.3042,3.3122,3.331,3.3322,3.3337,2.1166,2.1496,2.1931,0.0,0.0,0.0,2.4655,2.4474,2.4088,2.4436,2.4766,2.4886,2.4559,2.4782,2.5005,2.5005,2.5005,2.5005,2.5005,2.4349,2.3904,2.3888,2.2992,2.2136,2.1461,2.0839,2.0213,1.9556,1.9254,1.9101,1.9101,1.9036,1.8917,1.8711,1.8692,1.8537,1.8222,1.8202,1.8149,1.7988,1.7915,1.7902,1.7889,1.7271,1.7345,1.7902,1.7902,1.8023,1.8202,1.8189,1.8445,1.8822,1.9026,1.9101,1.9101,1.9101,1.9101,1.9139,1.9402,1.9726,2.0043,2.0308,2.0579,2.0794,2.0794,2.0794,2.0794,2.081,2.1823,2.2898,2.2914,2.3942,2.5005,2.5005,2.5158,2.5371,2.5549,2.5752,2.5952,2.615,2.6202,2.6202,2.6202,2.6202,2.6202,2.6202,2.6202,2.6202,2.6202,2.6202,2.6485,2.7199,2.7945,2.8376,2.8376,2.8574,2.8632,2.8493,2.9052,2.9748,3.0559,3.1173,3.1965,3.2977,3.3055,3.3165,3.331,3.3165,3.3165,3.331,3.3367,3.3367,2.1166,2.1851,0.0,2.159,0.0,0.0,0.0,2.3743,0.0,0.0,2.4926,2.4966,2.4866,2.4926,2.5005,2.5005,2.5005,2.4812,2.4302,2.403,2.3733,2.3243,2.2311,2.1631,2.1414,2.0627,2.0077,1.9881,1.9777,1.9617,1.9384,1.9347,1.9228,1.8917,1.8831,1.8644,1.842,1.842,1.8307,1.8149,1.7683,1.7632,1.7902,1.7851,1.7938,1.8123,1.8262,1.8361,1.842,1.8548,1.8688,1.8822,1.9026,1.9101,1.9101,1.9101,1.9101,1.9139,1.9402,1.9726,2.0043,2.0308,2.0579,2.0794,2.0794,2.0794,2.0905,2.1362,2.2185,2.3009,2.348,2.4401,2.5217,2.5217,2.5278,2.5451,2.5752,2.5899,2.6025,2.6168,2.6202,2.6202,2.6202,2.6202,2.6202,2.6202,2.6202,2.6202,2.6202,2.6202,2.6268,2.6501,2.6717,2.6868,2.6925,2.7194,2.7368,2.7368,2.8025,2.8854,2.9851,3.0925,3.1729,3.2211,3.2937,3.3304,3.331,3.3304,3.3304,3.331,3.3367,3.3396,2.1087,2.1662,0.0,2.1574,2.2339,2.3244,2.334,0.0,0.0,0.0,2.5005,2.5005,2.5005,2.5005,2.4891,2.4622,2.4574,2.4302,2.3607,2.3275,2.2959,2.255,2.1714,2.117,2.117,2.0537,2.015,2.015,2.0061,1.9902,1.9708,1.9708,1.9527,1.9168,1.9101,1.8936,1.862,1.862,1.8523,1.8307,1.7633,1.7408,1.7595,1.7712,1.7653,1.747,1.7735,1.7866,1.7885,1.8074,1.8165,1.8198,1.8582,1.8738,1.8786,1.913,1.9254,1.9291,1.9599,1.9904,2.0185,2.0342,2.0579,2.0794,2.0794,2.0794,2.0873,2.1283,2.2122,2.2993,2.3401,2.4185,2.4942,2.523,2.5394,2.5549,2.5844,2.5917,2.6008,2.6168,2.6202,2.6202,2.6202,2.6202,2.6202,2.6202,2.6202,2.6202,2.6202,2.6202,2.6202,2.6202,2.6221,2.6276,2.6295,2.6607,2.6857,2.6971,2.7589,2.8279,2.8989,3.048,3.153,3.2003,3.2933,3.3382,3.3337,3.3382,3.3382,3.3337,3.3382,3.3393,2.0983,2.1302,0.0,2.2654,2.3036,0.0,2.465,2.4891,2.4906,2.5005,2.5005,2.5005,2.5005,2.4938,2.4685,2.3999,2.3841,2.3575,2.2898,2.228,2.1869,2.1805,2.1205,2.0794,2.0794,2.0579,2.0444,2.0444,2.0202,2.0061,2.0025,2.0023,1.9812,1.9413,1.9394,1.9167,1.8736,1.8679,1.8551,1.8335,1.7584,1.7129,1.6953,1.7008,1.6803,1.6387,1.6757,1.6944,1.6944,1.7115,1.72,1.7258,1.7882,1.8158,1.831,1.9104,1.9434,1.9548,1.9848,2.015,2.041,2.041,2.0579,2.0794,2.0794,2.0794,2.0794,2.0794,2.1775,2.2803,2.2821,2.3472,2.4305,2.5,2.5344,2.5582,2.5783,2.5885,2.5989,2.615,2.6202,2.6202,2.6202,2.6202,2.6202,2.6202,2.6202,2.6202,2.6202,2.6202,2.6202,2.6202,2.6241,2.6295,2.6313,2.6624,2.689,2.7103,2.7622,2.7964,2.8084,2.9909,3.127,3.2071,3.2886,3.3339,3.3393,3.3393,3.3393,3.3393,3.3393,3.3393,2.159,2.1977,0.0,0.0,2.3315,2.3802,2.4058,2.4144,2.4302,2.4875,2.5005,2.5005,2.5005,2.4543,2.4078,2.392,2.3465,2.2848,2.2136,2.1963,2.1696,2.1094,2.0889,2.0794,2.0794,2.0745,2.0712,2.0712,2.0662,2.0544,2.0325,2.0113,1.9848,1.9493,1.8837,1.8375,1.8165,1.7747,1.7415,1.7167,1.6884,1.6421,1.5855,1.6324,1.6655,1.6861,1.7047,1.7132,1.7132,1.7166,1.72,1.7214,1.7359,1.7737,1.8216,1.84,1.8917,1.9512,1.9584,1.996,2.041,2.041,2.0579,2.0794,2.0794,2.0794,2.0794,2.0794,2.1426,2.2141,2.2232,2.2916,2.3654,2.3973,2.4516,2.5029,2.5221,2.5735,2.615,2.6185,2.6202,2.6202,2.6202,2.6202,2.6202,2.6202,2.6202,2.6202,2.6202,2.6202,2.6202,2.6202,2.6203,2.6292,2.645,2.6708,2.6971,2.7165,2.7722,2.8075,2.8102,2.9368,3.0437,3.1252,3.2053,3.2777,3.3393,3.3393,3.3393,3.3393,3.3393,3.3393,2.0868,0.0,0.0,2.3036,0.0,2.3999,2.4531,2.4668,2.482,2.5398,2.4955,2.459,2.4922,2.4397,2.3793,2.348,2.2848,2.2153,2.1409,2.1347,2.1221,2.0858,2.0794,2.0794,2.0794,2.0794,2.0794,2.0794,2.0494,2.0256,2.0125,1.9552,1.9102,1.8801,1.8214,1.7812,1.7624,1.7305,1.7047,1.6844,1.646,1.5876,1.5173,1.5494,1.5918,1.6422,1.6333,1.6284,1.6284,1.6284,1.6284,1.6329,1.6619,1.7142,1.7783,1.8229,1.896,1.9762,1.9889,2.0206,2.0579,2.0579,2.0695,2.0794,2.0794,2.0794,2.0827,2.0909,2.145,2.2041,2.2211,2.2636,2.3045,2.3161,2.4081,2.4973,2.5076,2.5672,2.6202,2.6202,2.6202,2.6202,2.6202,2.6202,2.6202,2.6202,2.6202,2.6202,2.6202,2.6202,2.6202,2.6202,2.6222,2.6311,2.6485,2.6657,2.6891,2.7181,2.7502,2.7967,2.8655,2.9251,2.9999,3.0966,3.2162,3.2977,3.3393,3.3393,3.3393,3.3393,3.3393,3.3393,1.998,0.0,2.2336,2.3346,2.3787,0.0,2.5201,2.5328,2.541,2.5928,2.5102,2.4464,2.5073,2.448,2.3713,2.3157,2.2392,2.1643,2.0988,2.0893,2.0876,2.0827,2.07,2.0668,2.0778,2.0573,2.0494,2.062,2.0004,1.9609,1.9609,1.8827,1.8269,1.8019,1.7642,1.7307,1.704,1.6857,1.6716,1.6598,1.6004,1.5412,1.4808,1.4825,1.5139,1.5639,1.5408,1.5298,1.5298,1.5343,1.5343,1.5402,1.5943,1.6558,1.7263,1.8166,1.9077,1.9943,2.0277,2.0579,2.0794,2.0794,2.0794,2.0794,2.0794,2.0794,2.0844,2.1039,2.1503,2.1985,2.2199,2.2443,2.2622,2.2654,2.3902,2.5077,2.4944,2.559,2.6202,2.6202,2.6202,2.6202,2.6202,2.6202,2.6202,2.6202,2.6202,2.6202,2.6202,2.6203,2.6221,2.6221,2.6259,2.6365,2.6502,2.6554,2.6725,2.7085,2.7228,2.7866,2.919,2.9465,3.01,3.1184,3.2506,3.3266,3.3393,3.3393,3.3393,3.3393,3.3393,3.3393,0.0,0.0,2.2975,0.0,2.4127,2.4752,0.0,2.4662,2.458,2.5552,2.5786,2.5845,2.5928,2.484,2.3868,2.3786,2.2667,2.1701,2.1371,2.1277,2.1151,2.091,2.0321,2.0162,2.0731,1.9704,1.9246,1.9894,1.9262,1.8851,1.8851,1.8515,1.8223,1.8019,1.7177,1.6598,1.6343,1.5805,1.5498,1.5421,1.5165,1.4941,1.4794,1.492,1.5025,1.5112,1.5237,1.5298,1.5313,1.5492,1.5566,1.5595,1.5887,1.6412,1.703,1.7803,1.8648,1.9488,2.0175,2.0579,2.0794,2.0794,2.0794,2.0794,2.0794,2.0794,2.0844,2.1039,2.1167,2.1295,2.1612,2.2179,2.2718,2.2845,2.4017,2.4928,2.4282,2.5243,2.6202,2.6202,2.6202,2.6202,2.6202,2.6202,2.6202,2.6202,2.6202,2.6202,2.6202,2.6258,2.6278,2.6278,2.6295,2.6382,2.6555,2.6537,2.6589,2.6758,2.7305,2.802,2.8916,3.0119,3.1174,3.2017,3.2252,3.2705,3.3393,3.3393,3.3393,3.3393,3.3393,3.3393,2.0809,2.1766,2.246,0.0,2.4367,2.4786,2.5419,2.5364,2.5304,2.5816,2.6015,2.5982,2.556,2.463,2.3769,2.3356,2.2461,2.1751,2.1631,2.1121,2.0677,2.0539,1.9763,1.9339,1.9593,1.9072,1.882,1.9167,1.8536,1.8141,1.8141,1.7533,1.7142,1.7055,1.6383,1.598,1.5859,1.5444,1.5237,1.5207,1.5101,1.5071,1.5071,1.5133,1.5103,1.5013,1.5223,1.5298,1.5313,1.5522,1.5595,1.5624,1.5912,1.6378,1.7,1.7729,1.8559,1.9414,2.0128,2.0579,2.0794,2.0794,2.0794,2.0794,2.0794,2.0794,2.086,2.1135,2.1198,2.1294,2.1634,2.2269,2.2829,2.2892,2.4033,2.5011,2.4696,2.5458,2.6202,2.6202,2.6202,2.6202,2.6202,2.6202,2.6202,2.6202,2.6202,2.6203,2.6258,2.6278,2.633,2.6416,2.6416,2.6468,2.6606,2.6759,2.6875,2.6972,2.7428,2.8317,2.9745,3.0384,3.1409,3.285,3.2868,3.3049,3.3393,3.3393,3.3393,3.3393,3.3393,3.3393,0.0,0.0,2.1617,2.3488,2.4117,2.4533,2.5556,2.5834,2.5955,2.6207,2.6261,2.6016,2.5161,2.4377,2.3692,2.3141,2.2319,2.18,2.1926,2.0914,2.0158,2.0235,1.9228,1.8593,1.8693,1.8378,1.8236,1.8425,1.7809,1.7417,1.7417,1.6761,1.6355,1.6301,1.5954,1.5711,1.5595,1.5343,1.5237,1.5237,1.5237,1.5283,1.5388,1.5388,1.5299,1.5149,1.5268,1.5298,1.5328,1.558,1.5711,1.5725,1.6038,1.6428,1.6935,1.7838,1.8594,1.9278,2.0199,2.0629,2.0811,2.086,2.0876,2.0876,2.0909,2.0925,2.099,2.1294,2.1517,2.1678,2.1771,2.2626,2.3404,2.3222,2.4315,2.5374,2.5374,2.5805,2.6202,2.6202,2.6202,2.6202,2.6202,2.6202,2.6202,2.6202,2.6257,2.6329,2.6418,2.6504,2.6607,2.6742,2.6758,2.6792,2.6858,2.7085,2.7227,2.7322,2.7624,2.862,3.0419,3.0578,3.1495,3.336,3.3393,3.3393,3.3393,3.3393,3.3393,3.3393,3.3393,3.3393,0.0,2.0048,0.0,2.214,2.3088,2.3937,2.5001,2.5387,2.5746,2.6505,2.6707,2.6396,2.5212,2.4345,2.378,2.3746,2.2556,2.179,2.2289,2.0851,1.9882,2.035,1.8883,1.8083,1.8645,1.7494,1.7004,1.7699,1.7067,1.6657,1.6657,1.6612,1.6503,1.6315,1.6287,1.6052,1.561,1.5388,1.5298,1.5298,1.5298,1.5388,1.558,1.558,1.558,1.5566,1.5373,1.5298,1.5343,1.5798,1.5968,1.6024,1.6423,1.6586,1.679,1.8159,1.868,1.8931,2.0304,2.0794,2.0827,2.1023,2.1071,2.1119,2.123,2.1262,2.1325,2.1528,2.2081,2.2505,2.195,2.3388,2.4812,2.4116,2.5077,2.6136,2.6136,2.6169,2.6202,2.6202,2.6202,2.6202,2.6202,2.6202,2.6202,2.6202,2.6415,2.664,2.6758,2.7051,2.7301,2.742,2.745,2.7497,2.7624,2.7545,2.7527,2.7672,2.794,2.8816,3.0433,3.0814,3.1731,3.3375,3.3393,3.3393,3.3393,3.3393,3.3393,3.3393,3.3393,3.3393,0.0,0.0,0.0,2.1934,2.2952,2.3752,2.4784,2.5329,2.5666,2.5832,2.6094,2.5872,2.448,2.4422,2.4077,2.263,2.194,2.1484,2.1156,2.0042,1.9298,1.9415,1.8237,1.7465,1.7604,1.7069,1.6802,1.6988,1.6752,1.661,1.661,1.661,1.657,1.6488,1.6369,1.608,1.561,1.5388,1.5298,1.5298,1.5298,1.5403,1.5595,1.5595,1.5682,1.5854,1.5784,1.5653,1.5536,1.5996,1.6191,1.6219,1.6488,1.661,1.6767,1.8173,1.8708,1.8898,2.0304,2.0794,2.0827,2.1023,2.1103,2.1135,2.1246,2.1293,2.134,2.1543,2.1785,2.2062,2.2413,2.3454,2.458,2.5242,2.5821,2.6202,2.6202,2.6202,2.6202,2.6202,2.6202,2.6202,2.6202,2.6202,2.6202,2.6202,2.6274,2.6469,2.6824,2.697,2.7192,2.7592,2.7622,2.7654,2.7701,2.7808,2.7904,2.795,2.8246,2.8909,3.0017,3.0654,3.127,3.1836,3.2361,3.2886,3.3393,3.3393,3.3393,3.3393,3.3393,3.3393,1.7087,0.0,0.0,0.0,2.2222,2.3066,2.4307,2.5024,2.5445,2.5475,2.5662,2.5422,2.4189,2.4319,2.4008,2.2263,2.1527,2.1096,2.0837,1.9572,1.8728,1.8907,1.8,1.7264,1.7093,1.6946,1.6808,1.6691,1.6623,1.661,1.661,1.661,1.661,1.661,1.6342,1.6052,1.574,1.5448,1.5298,1.5298,1.5298,1.5403,1.5595,1.5682,1.5826,1.601,1.6136,1.6024,1.5754,1.615,1.6301,1.6328,1.6514,1.661,1.6767,1.8173,1.8708,1.8898,2.0304,2.0794,2.0844,2.1103,2.1183,2.1198,2.1402,2.1464,2.1495,2.1634,2.1845,2.2123,2.2445,2.3255,2.4381,2.5838,2.6202,2.6202,2.6202,2.6202,2.6203,2.6222,2.6222,2.6257,2.6292,2.6292,2.6292,2.6292,2.6346,2.6538,2.6922,2.7129,2.7376,2.7783,2.7929,2.8003,2.8003,2.8179,2.8268,2.8268,2.8479,2.8962,2.9766,3.031,3.0726,3.0998,3.151,3.2053,3.2596,3.2868,3.314,3.3393,3.3393,3.3393,0.0,0.0,0.0,0.0,2.0785,2.1881,2.3528,2.4373,2.4976,2.5524,2.5475,2.5126,2.4404,2.3996,2.3547,2.2819,2.144,2.0687,2.1458,1.9521,1.8273,1.8938,1.8176,1.7519,1.724,1.7093,1.6959,1.6824,1.6691,1.6594,1.6578,1.6578,1.6578,1.661,1.6219,1.601,1.601,1.5551,1.5328,1.5328,1.5313,1.5418,1.5639,1.5869,1.5996,1.6038,1.6421,1.6367,1.6024,1.6232,1.6315,1.6328,1.6514,1.661,1.6767,1.8173,1.8708,1.8898,2.032,2.0811,2.0876,2.1198,2.1325,2.1371,2.1708,2.1812,2.1812,2.1812,2.2326,2.2708,2.2044,2.2957,2.4431,2.5854,2.6202,2.6202,2.6202,2.6202,2.6221,2.6295,2.6296,2.6348,2.6486,2.6537,2.6537,2.6537,2.6691,2.6873,2.7101,2.7577,2.7968,2.8102,2.8409,2.86,2.86,2.86,2.86,2.86,2.86,2.8944,2.973,2.9784,3.0165,3.0912,3.0962,3.098,3.098,3.1763,3.256,3.3339,3.3357,3.3357,1.4059,0.0,0.0,0.0,0.0,0.0,2.1659,2.2443,2.3023,2.3551,2.389,2.3984,2.3582,2.3429,2.3232,2.2779,2.1888,2.1147,2.0785,1.97,1.9006,1.9201,1.8387,1.7772,1.7647,1.7337,1.7093,1.6942,1.6821,1.6495,1.5908,1.5877,1.6101,1.6581,1.6355,1.6219,1.6219,1.594,1.5812,1.5797,1.561,1.5711,1.6108,1.5826,1.5982,1.6421,1.6409,1.6394,1.6436,1.6488,1.653,1.6514,1.6583,1.661,1.6767,1.8173,1.8797,1.9122,2.0527,2.1071,2.1198,2.1434,2.1528,2.1542,2.1753,2.1812,2.1812,2.1812,2.1961,2.2294,2.3172,2.4497,2.5689,2.6103,2.6202,2.6202,2.6202,2.6202,2.6276,2.6607,2.6674,2.6758,2.7083,2.7164,2.7164,2.7164,2.7194,2.7365,2.771,2.7883,2.811,2.8422,2.8531,2.86,2.86,2.86,2.86,2.86,2.86,2.8708,2.8907,2.9481,2.9639,2.9269,2.9826,3.016,3.0212,3.0957,3.1437,3.1673,3.2252,3.2524,0.0,0.0,0.0,0.0,0.0,0.0,2.0125,2.0994,2.1711,2.2212,2.2617,2.2849,2.2701,2.2559,2.2438,2.2338,2.2024,2.1601,2.0985,1.9999,1.9337,1.9337,1.8598,1.7988,1.7772,1.7491,1.7216,1.6987,1.6863,1.6454,1.5652,1.5592,1.5782,1.618,1.6253,1.6301,1.6301,1.6094,1.5996,1.5996,1.584,1.5911,1.6163,1.5982,1.6108,1.6477,1.645,1.6488,1.661,1.661,1.661,1.661,1.661,1.662,1.686,1.8287,1.8928,1.9282,2.07,2.123,2.1341,2.1527,2.1604,2.1635,2.1753,2.1812,2.1812,2.1812,2.1812,2.2077,2.3238,2.4183,2.4978,2.559,2.5739,2.5822,2.6174,2.624,2.6312,2.6539,2.6724,2.6922,2.721,2.7411,2.7517,2.7517,2.7517,2.7607,2.7826,2.7968,2.8134,2.837,2.8518,2.86,2.86,2.86,2.86,2.86,2.86,2.86,2.86,2.9047,2.9096,2.865,2.9103,2.9377,2.9428,3.0194,3.0744,3.1097,3.1501,3.1914,1.1591,1.2638,0.0,0.0,1.6148,0.0,1.8595,1.9631,2.0485,2.098,2.1286,2.1509,2.1629,2.1488,2.1431,2.1675,2.1947,2.2032,2.1743,2.0511,1.9617,1.9513,1.8856,1.8237,1.7772,1.7595,1.7337,1.6953,1.6757,1.6349,1.5652,1.5529,1.5513,1.5592,1.5999,1.6264,1.6326,1.6163,1.6066,1.6066,1.6038,1.6038,1.6066,1.6205,1.6301,1.6326,1.6503,1.6583,1.661,1.661,1.661,1.661,1.661,1.6672,1.6978,1.8459,1.9086,1.941,2.0838,2.134,2.1371,2.1557,2.162,2.1634,2.1768,2.1812,2.1812,2.1812,2.1877,2.2107,2.2771,2.3003,2.3417,2.473,2.5095,2.5362,2.6081,2.6316,2.6401,2.6401,2.6708,2.7034,2.7227,2.755,2.7803,2.7803,2.7803,2.7803,2.7803,2.801,2.8156,2.8156,2.8422,2.86,2.86,2.86,2.86,2.86,2.86,2.86,2.86,2.86,2.865,2.8694,2.8706,2.8761,2.881,2.9459,3.0186,3.093,3.0902,3.1388,1.0644,1.1358,1.2135,1.3272,1.4242,0.0,1.6044,1.6845,1.7625,1.8294,1.8699,1.9168,1.9967,2.0261,2.0553,2.107,2.1871,2.2374,2.2258,2.1627,2.093,2.028,1.9556,1.8783,1.7951,1.7641,1.738,1.7076,1.6303,1.5775,1.562,1.5086,1.5039,1.5576,1.5681,1.6003,1.6528,1.6503,1.649,1.649,1.6328,1.6328,1.6477,1.6191,1.6232,1.653,1.6423,1.645,1.661,1.661,1.661,1.661,1.661,1.6675,1.6971,1.8459,1.9129,1.9493,2.1021,2.1619,2.1708,2.1753,2.1753,2.1768,2.1797,2.1812,2.1812,2.1812,2.233,2.2964,2.3098,2.3707,2.4335,2.464,2.5182,2.5723,2.5875,2.6497,2.7021,2.7021,2.7224,2.7587,2.8192,2.8375,2.8427,2.8427,2.8427,2.8427,2.8427,2.8466,2.8505,2.8505,2.8562,2.86,2.86,2.86,2.86,2.86,2.86,2.86,2.86,2.8644,2.87,2.8694,2.8822,2.8881,2.8881,2.8974,2.9095,2.929,2.9915,3.0644,0.9736,1.044,1.1182,1.196,1.2822,0.0,0.0,1.5203,1.6046,1.6699,1.7343,1.7932,1.8448,1.887,1.9281,1.9703,2.0616,2.1359,2.1524,2.1578,2.1397,2.087,2.0159,1.9371,1.8535,1.8237,1.7789,1.7066,1.6125,1.5592,1.5592,1.5276,1.526,1.5592,1.5912,1.6262,1.661,1.661,1.661,1.661,1.6503,1.6503,1.6596,1.6396,1.6423,1.6596,1.6488,1.6517,1.661,1.661,1.661,1.661,1.661,1.6675,1.6997,1.8543,1.9214,1.9593,2.1154,2.1738,2.1812,2.1812,2.1812,2.1812,2.1812,2.1812,2.1812,2.1812,2.2208,2.2651,2.2651,2.3098,2.365,2.4008,2.4415,2.4821,2.5302,2.5756,2.6301,2.6962,2.7173,2.7479,2.8192,2.8466,2.86,2.86,2.86,2.86,2.86,2.86,2.86,2.86,2.86,2.86,2.86,2.86,2.86,2.86,2.86,2.86,2.86,2.8637,2.8687,2.8749,2.8881,2.894,2.894,2.8923,2.8912,2.8912,2.9235,3.0087,0.8949,0.9589,1.0302,1.0746,1.1529,1.2324,0.0,0.0,0.0,1.5249,1.6031,1.6663,1.6761,1.7303,1.7828,1.8164,1.9186,2.0064,2.0468,2.1103,2.1406,2.1113,2.0585,1.9938,1.9212,1.9012,1.8365,1.7043,1.6422,1.5952,1.5648,1.5605,1.5592,1.5592,1.6133,1.6467,1.661,1.661,1.661,1.661,1.661,1.661,1.661,1.661,1.661,1.661,1.661,1.661,1.661,1.6636,1.6649,1.6649,1.6649,1.6791,1.719,1.854,1.9279,1.9813,2.1125,2.168,2.1812,2.1812,2.1812,2.1812,2.1812,2.1812,2.1796,2.184,2.2013,2.2198,2.2223,2.2422,2.2773,2.3402,2.366,2.3974,2.4764,2.5063,2.5557,2.6796,2.7061,2.7294,2.8013,2.837,2.86,2.86,2.86,2.86,2.86,2.86,2.86,2.86,2.86,2.86,2.86,2.86,2.86,2.86,2.86,2.86,2.86,2.8625,2.8687,2.881,2.8947,2.9005,2.9005,2.9005,2.9005,2.8994,2.89,2.968,0.8395,0.8565,0.8804,0.9438,1.0142,1.0741,1.1031,0.0,1.2905,1.2967,0.0,1.4263,1.4516,0.0,0.0,1.7037,1.8368,1.9449,1.9844,2.0625,2.1038,2.072,2.0689,2.0454,1.9764,1.9684,1.8946,1.7199,1.7587,1.7262,1.5773,1.5633,1.5592,1.5592,1.5671,1.5991,1.6581,1.661,1.661,1.661,1.661,1.661,1.661,1.661,1.661,1.661,1.661,1.661,1.661,1.6725,1.6776,1.6776,1.6776,1.7225,1.7907,1.8271,1.9274,2.0506,2.074,2.1249,2.1812,2.1812,2.1812,2.1812,2.1812,2.1812,2.184,2.2027,2.2257,2.2497,2.2668,2.2876,2.3087,2.3286,2.3869,2.4448,2.4614,2.5306,2.6138,2.7007,2.7282,2.7609,2.8404,2.8574,2.86,2.86,2.86,2.86,2.86,2.86,2.86,2.86,2.86,2.86,2.86,2.86,2.86,2.86,2.86,2.86,2.86,2.8712,2.881,2.8893,2.8952,2.9005,2.9005,2.9005,2.9005,2.9005,2.8982,2.947,0.7863,0.821,0.8644,0.8867,0.9416,0.9903,0.9969,1.0648,1.1322,1.1463,0.0,0.0,0.0,0.0,0.0,0.0,1.7202,1.8419,1.902,1.9756,2.0426,2.095,2.1053,2.0863,2.0251,2.0309,1.9834,1.8526,1.8689,1.8335,1.7213,1.6984,1.6662,1.6196,1.618,1.6323,1.661,1.661,1.661,1.661,1.661,1.661,1.661,1.661,1.661,1.661,1.661,1.6633,1.6712,1.6776,1.6853,1.693,1.705,1.75,1.8122,1.8721,1.9618,2.0626,2.1139,2.1547,2.1812,2.1812,2.1812,2.1812,2.1812,2.1812,2.184,2.2039,2.232,2.262,2.285,2.3114,2.3348,2.3395,2.3673,2.3952,2.4043,2.4381,2.4905,2.5756,2.6338,2.6952,2.7767,2.8292,2.86,2.86,2.86,2.86,2.86,2.86,2.86,2.86,2.86,2.86,2.86,2.86,2.86,2.86,2.8637,2.8662,2.8662,2.8798,2.887,2.8905,2.897,2.9005,2.9005,2.9005,2.9005,2.9005,2.9005,2.9427,0.75,0.7865,0.8297,0.8333,0.8671,0.9031,0.8979,0.9424,0.9882,1.0049,1.0604,0.0,0.0,0.0,1.3857,1.4646,0.0,1.733,1.8185,1.8805,1.9615,2.0829,2.1262,2.1202,2.0584,2.0957,2.0788,1.9698,1.9682,1.9402,1.8683,1.8189,1.7663,1.7056,1.6784,1.6636,1.661,1.661,1.661,1.661,1.661,1.661,1.661,1.661,1.661,1.661,1.661,1.6688,1.6802,1.6841,1.6942,1.7113,1.749,1.7986,1.8561,1.8982,1.9887,2.092,2.1338,2.163,2.1812,2.1812,2.1812,2.1812,2.1812,2.1812,2.1855,2.2127,2.2402,2.2682,2.3003,2.3277,2.3494,2.3533,2.3544,2.3596,2.3693,2.3725,2.3981,2.4835,2.566,2.6464,2.726,2.8075,2.86,2.86,2.86,2.86,2.86,2.86,2.86,2.86,2.86,2.86,2.86,2.86,2.86,2.8625,2.87,2.8737,2.8737,2.8846,2.8905,2.8905,2.897,2.9005,2.9005,2.9005,2.9005,2.9005,2.9005,2.9317,0.7389,0.727,0.7303,0.7565,0.7751,0.7865,0.7847,0.8278,0.8609,0.8499,0.9267,1.0004,1.0145,1.1354,0.0,0.0,0.0,0.0,0.0,1.7824,1.8576,1.9971,2.1103,2.1468,2.0681,2.1664,2.1728,2.0271,2.0525,2.0461,1.9779,1.8821,1.8232,1.8153,1.7267,1.673,1.661,1.661,1.661,1.661,1.661,1.661,1.661,1.661,1.661,1.661,1.661,1.6688,1.6815,1.6942,1.7109,1.7371,1.8157,1.8906,1.9468,1.879,1.9896,2.1648,2.0967,2.1199,2.1812,2.1812,2.1812,2.1812,2.1812,2.1812,2.1901,2.236,2.2538,2.2712,2.318,2.3348,2.3441,2.3645,2.3689,2.3703,2.3774,2.3795,2.4031,2.4846,2.566,2.6464,2.726,2.8075,2.86,2.86,2.86,2.86,2.86,2.86,2.86,2.86,2.86,2.86,2.86,2.86,2.8625,2.8682,2.8761,2.8785,2.8785,2.887,2.8905,2.8905,2.897,2.9005,2.9005,2.9005,2.9005,2.9005,2.9005,2.9005,0.7661,0.7648,0.7643,0.7877,0.7856,0.7768,0.7695,0.7706,0.7729,0.7684,0.8401,0.9115,0.9333,1.0691,0.0,0.0,0.0,0.0,0.0,1.7873,1.871,1.9069,2.0266,2.1006,2.0828,2.1803,2.2311,2.1884,2.1978,2.1754,2.103,2.0502,1.9518,1.7978,1.7625,1.7178,1.661,1.661,1.661,1.661,1.661,1.661,1.661,1.661,1.661,1.661,1.661,1.6725,1.6942,1.698,1.7158,1.746,1.7727,1.8568,1.9631,1.9876,2.0752,2.1777,2.1671,2.1711,2.1811,2.1955,2.1897,2.1825,2.1955,2.2013,2.2096,2.2681,2.2914,2.3084,2.3458,2.3616,2.3685,2.375,2.3771,2.3771,2.3795,2.3806,2.4031,2.4846,2.566,2.6464,2.726,2.8075,2.86,2.86,2.86,2.86,2.86,2.86,2.86,2.86,2.86,2.8612,2.8657,2.8712,2.8737,2.8761,2.8834,2.887,2.887,2.8929,2.897,2.897,2.8994,2.9005,2.9005,2.9005,2.9005,2.9005,2.9005,2.9005,0.7808,0.7836,0.7833,0.796,0.7784,0.7541,0.7397,0.7147,0.7004,0.725,0.7849,0.8468,0.8915,1.0197,0.0,0.0,0.0,0.0,0.0,1.7487,1.8348,1.853,1.9826,2.0763,2.0926,2.1633,2.2247,2.27,2.2669,2.2555,2.2389,2.1678,2.0472,1.8715,1.8089,1.7418,1.661,1.661,1.661,1.661,1.661,1.661,1.661,1.661,1.6636,1.6659,1.6659,1.6866,1.7191,1.7191,1.7325,1.7614,1.8147,1.8851,1.965,2.0141,2.0936,2.1811,2.1955,2.1955,2.1926,2.2053,2.207,2.2075,2.22,2.224,2.2354,2.2863,2.3077,2.3259,2.3611,2.3747,2.3803,2.3795,2.3806,2.3806,2.3806,2.3806,2.4031,2.4846,2.566,2.6464,2.726,2.8075,2.86,2.86,2.86,2.86,2.86,2.86,2.86,2.86,2.86,2.8625,2.8682,2.8785,2.8834,2.8834,2.8893,2.894,2.894,2.8982,2.9005,2.9005,2.9005,2.9005,2.9005,2.9005,2.9005,2.9005,2.9005,2.9005]}]]